[[{"header":{"parameterUnit":"m.s-1","parameterCategory":1,"la1":31.0,"la2":29.5877,"lo1":-88.7671,"lo2":-86.6584,"dy":0.0162,"dx":0.0185,"nx":115,"ny":88,"refTime":"2023-08-28T12:00:00:Z","depth":0,"parameterNumber":2,"parameterNumberName":"U-component_of_WINDS"},"data":[0.0,0.0,0.0,0.0,0.0,0.0,0.0,0.0,0.0,0.0,0.0,0.0,0.0,0.0,0.0,0.0,0.0,0.0,0.0,0.0,0.0,0.0,0.0,0.0,0.0,0.0,0.0,0.0,0.0,0.0,0.0,0.0,0.0,0.0,0.0,0.0,0.0,0.0,0.0,0.0,0.0,0.0,0.0,0.0,0.0,0.0,0.0,0.0,0.0,0.0,0.0,0.0,0.0,0.0,0.0,0.0,0.0,0.0,0.0,0.0,0.0,0.0,0.0,0.0,0.0,0.0,0.0,0.0,0.0,0.0,0.0,0.0,0.0,0.0,0.0,0.0,0.0,0.0,0.0,0.0,0.0,0.0,0.0,0.0,0.0,0.0,0.0,0.0,0.0,0.0,0.0,0.0,0.0,0.0,0.0,0.0,0.0,0.0,0.0,0.0,0.0,0.0,0.0,0.0,0.0,0.0,0.0,0.0,0.0,0.0,0.0,0.0,0.0,0.0,0.0,0.0,0.0,0.0,0.0,0.0,0.0,0.0,0.0,0.0,0.0,0.0,0.0,0.0,0.0,0.0,0.0,0.0,0.0,0.0,0.0,0.0,0.0,0.0,0.0,0.0,0.0,0.0,0.0,0.0,0.0,0.0,0.0,0.0,0.0,0.0,0.0,0.0,0.0,0.0,0.0,0.0,0.0,0.0,0.0,0.0,0.0,0.0,0.0,0.0,0.0,0.0,0.0,0.0,0.0,0.0,0.0,0.0,0.0,0.0,0.0,0.0,0.0,0.0,0.0,0.0,0.0,0.0,0.0,0.0,0.0,0.0,0.0,0.0,0.0,0.0,0.0,0.0,0.0,0.0,0.0,0.0,0.0,0.0,0.0,0.0,0.0,0.0,0.0,0.0,0.0,0.0,0.0,0.0,0.0,0.0,0.0,0.0,0.0,0.0,0.0,0.0,0.0,0.0,0.0,0.0,0.0,0.0,0.0,0.0,0.0,0.0,0.0,0.0,0.0,0.0,0.0,0.0,0.0,0.0,0.0,0.0,0.0,0.0,0.0,0.0,0.0,0.0,0.0,0.0,0.0,0.0,0.0,0.0,0.0,0.0,0.0,0.0,0.0,0.0,0.0,0.0,0.0,0.0,0.0,0.0,0.0,0.0,0.0,0.0,0.0,0.0,0.0,0.0,0.0,0.0,0.0,0.0,0.0,0.0,0.0,0.0,0.0,0.0,0.0,0.0,0.0,0.0,0.0,0.0,0.0,0.0,0.0,0.0,0.0,0.0,0.0,0.0,0.0,0.0,0.0,0.0,0.0,0.0,0.0,0.0,0.0,0.0,0.0,0.0,0.0,0.0,0.0,0.0,0.0,0.0,0.0,0.0,0.0,0.0,0.0,0.0,0.0,0.0,0.0,0.0,0.0,0.0,0.0,0.0,0.0,0.0,0.0,0.0,0.0,0.0,0.0,0.0,0.0,0.0,0.0,0.0,0.0,0.0,0.0,0.0,0.0,0.0,0.0,0.0,0.0,0.0,0.0,0.0,0.0,0.0,0.0,0.0,0.0,0.0,0.0,0.0,0.0,0.0,0.0,0.0,0.0,0.0,0.0,0.0,0.0,0.0,0.0,0.0,0.0,0.0,0.0,0.0,0.0,0.0,0.0,0.0,0.0,0.0,0.0,0.0,0.0,0.0,0.0,0.0,0.0,0.0,0.0,0.0,0.0,0.0,0.0,0.0,0.0,0.0,0.0,0.0,0.0,0.0,0.0,0.0,0.0,0.0,0.0,0.0,0.0,0.0,0.0,0.0,0.0,0.0,0.0,0.0,0.0,0.0,0.0,0.0,0.0,0.0,0.0,0.0,0.0,0.0,0.0,0.0,0.0,0.0,0.0,0.0,0.0,0.0,0.0,0.0,0.0,0.0,0.0,0.0,0.0,0.0,0.0,0.0,0.0,0.0,0.0,0.0,0.0,0.0,0.0,0.0,0.0,0.0,0.0,0.0,0.0,0.0,0.0,0.0,0.0,0.0,0.0,0.0,0.0,0.0,0.0,0.0,0.0,0.0,0.0,0.0,0.0,0.0,0.0,0.0,0.0,0.0,0.0,0.0,0.0,0.0,0.0,0.0,0.0,0.0,0.0,0.0,0.0,0.0,0.0,0.0,0.0,0.0,0.0,0.0,0.0,0.0,0.0,0.0,0.0,0.0,0.0,0.0,0.0,0.0,0.0,0.0,0.0,0.0,0.0,0.0,0.0,0.0,0.0,0.0,0.0,0.0,0.0,0.0,0.0,0.0,0.0,0.0,0.0,0.0,0.0,0.0,0.0,0.0,0.0,0.0,0.0,0.0,0.0,0.0,0.0,0.0,0.0,0.0,0.0,0.0,0.0,0.0,0.0,0.0,0.0,0.0,0.0,0.0,0.0,0.0,0.0,0.0,0.0,0.0,0.0,0.0,0.0,0.0,0.0,0.0,0.0,0.0,0.0,0.0,0.0,0.0,0.0,0.0,0.0,0.0,0.0,0.0,0.0,0.0,0.0,0.0,0.0,0.0,0.0,0.0,0.0,0.0,0.0,0.0,0.0,0.0,0.0,0.0,0.0,0.0,0.0,0.0,0.0,0.0,0.0,0.0,0.0,0.0,0.0,0.0,0.0,0.0,0.0,0.0,0.0,0.0,0.0,0.0,0.0,0.0,0.0,0.0,0.0,0.0,0.0,0.0,0.0,0.0,0.0,0.0,0.0,0.0,0.0,0.0,0.0,0.0,0.0,0.0,0.0,0.0,0.0,0.0,0.0,0.0,0.0,0.0,0.0,0.0,0.0,0.0,0.0,0.0,0.0,0.0,0.0,0.0,0.0,0.0,0.0,0.0,0.0,0.0,0.0,0.0,0.0,0.0,0.0,0.0,0.0,0.0,0.0,0.0,0.0,0.0,0.0,0.0,0.0,0.0,0.0,0.0,0.0,0.0,0.0,0.0,0.0,0.0,0.0,0.0,0.0,0.0,0.0,0.0,0.0,0.0,0.0,0.0,0.0,0.0,0.0,0.0,0.0,0.0,0.0,0.0,0.0,0.0,0.0,0.0,0.0,0.0,0.0,0.0,0.0,0.0,0.0,0.0,0.0,0.0,0.0,0.0,0.0,0.0,0.0,0.0,0.0,0.0,0.0,0.0,0.0,0.0,0.0,0.0,0.0,0.0,0.0,0.0,0.0,0.0,0.0,0.0,0.0,0.0,0.0,0.0,0.0,0.0,0.0,0.0,0.0,0.0,0.0,0.0,0.0,0.0,0.0,0.0,0.0,0.0,0.0,0.0,0.0,0.0,0.0,0.0,0.0,0.0,0.0,0.0,0.0,0.0,0.0,0.0,0.0,0.0,0.0,0.0,0.0,0.0,0.0,0.0,0.0,0.0,0.0,0.0,0.0,0.0,0.0,0.0,0.0,0.0,0.0,0.0,0.0,0.0,0.0,0.0,0.0,0.0,0.0,0.0,0.0,0.0,0.0,0.0,0.0,0.0,0.0,0.0,0.0,0.0,0.0,0.0,0.0,0.0,0.0,0.0,0.0,0.0,0.0,0.0,0.0,0.0,0.0,0.0,0.0,0.0,0.0,0.0,0.0,0.0,0.0,0.0,0.0,0.0,0.0,0.0,0.0,0.0,0.0,0.0,0.0,0.0,0.0,0.0,0.0,0.0,0.0,0.0,0.0,0.0,0.0,0.0,0.0,0.0,0.0,0.0,0.0,0.0,0.0,0.0,0.0,0.0,0.0,0.0,0.0,0.0,0.0,0.0,0.0,0.0,0.0,0.0,0.0,0.0,0.0,0.0,0.0,0.0,0.0,0.0,0.0,0.0,0.0,0.0,0.0,0.0,0.0,0.0,0.0,0.0,0.0,0.0,0.0,0.0,0.0,0.0,0.0,0.0,0.0,0.0,0.0,0.0,0.0,0.0,0.0,0.0,0.0,0.0,0.0,0.0,0.0,0.0,0.0,0.0,0.0,0.0,0.0,0.0,0.0,0.0,0.0,0.0,0.0,0.0,0.0,0.0,0.0,0.0,0.0,0.0,0.0,0.0,0.0,0.0,0.0,0.0,0.0,0.0,0.0,0.0,0.0,0.0,0.0,0.0,0.0,0.0,0.0,0.0,0.0,0.0,0.0,0.0,0.0,0.0,0.0,0.0,0.0,0.0,0.0,0.0,0.0,0.0,0.0,0.0,0.0,0.0,0.0,0.0,0.0,0.0,0.0,0.0,0.0,0.0,0.0,0.0,0.0,0.0,0.7691,0.0,0.0,0.0,0.0,0.0,0.0,0.0,0.0,0.0,0.0,0.0,0.0,0.0,0.0,0.0,0.0,0.0,0.0,0.0,0.0,0.0,0.0,0.0,0.0,0.0,0.0,0.0,0.0,0.0,0.0,0.0,0.0,0.0,0.0,0.0,0.0,0.0,0.0,0.0,0.0,0.0,0.0,0.0,0.0,0.0,0.0,0.0,0.0,0.0,0.0,0.0,0.0,0.0,0.0,0.0,0.0,0.0,0.0,0.0,0.0,0.0,0.0,0.0,0.0,0.0,0.0,0.0,0.0,0.0,0.0,0.0,0.0,0.0,0.0,0.0,0.0,0.0,0.0,0.0,0.0,0.0,0.0,0.0,0.0,0.0,0.0,0.0,0.0,0.0,0.0,0.0,0.0,0.0,0.0,0.0,0.0,0.0,0.0,0.0,0.0,0.0,0.0,0.0,0.0,0.0,0.0,0.0,0.0,0.0,0.0,0.7691,0.7691,0.7691,0.7691,0.7691,0.0,0.0,0.0,0.0,0.0,0.0,0.0,0.0,0.0,0.0,0.0,0.0,0.0,0.0,0.0,0.0,0.0,0.0,0.0,0.0,0.0,0.0,0.0,0.0,0.0,0.0,0.0,0.0,0.0,0.0,0.0,0.0,0.0,0.0,0.0,0.0,0.0,0.0,0.0,0.0,0.0,0.0,0.0,0.0,0.0,0.0,0.0,0.0,0.0,0.0,0.0,0.0,0.0,0.0,0.0,0.0,0.0,0.0,0.0,0.0,0.0,0.0,0.0,0.0,0.0,0.0,0.0,0.0,0.0,0.0,0.0,0.0,0.0,0.0,0.0,0.0,0.0,0.0,0.0,0.0,0.0,0.0,0.0,0.0,0.0,0.0,0.0,0.0,0.0,0.0,0.0,0.0,0.0,0.0,0.0,0.0,0.0,0.0,0.0,0.0,0.0,0.0,0.0,0.0,0.0,0.0,0.0,0.0,0.0,0.0,0.0,0.0,0.7691,0.7691,0.7691,0.0,0.0,0.0,0.0,0.0,0.0,0.0,0.0,0.0,0.0,0.0,0.0,0.0,0.0,0.0,0.0,0.0,0.0,0.0,0.0,0.0,0.0,0.0,0.0,0.0,0.0,0.0,0.0,0.0,0.0,0.0,0.0,0.0,0.0,0.0,0.0,0.0,0.0,0.0,0.0,0.0,0.0,0.0,0.0,0.0,0.0,0.0,0.0,0.0,0.0,0.0,0.0,0.0,0.0,0.0,0.0,0.0,0.0,0.0,0.0,0.0,0.0,0.0,0.0,0.0,0.0,0.0,0.0,0.0,0.0,0.0,0.0,0.0,0.0,0.0,0.0,0.0,0.0,0.0,0.0,0.0,0.0,0.0,0.0,0.0,0.0,0.0,0.0,0.0,0.0,0.0,0.0,0.0,0.0,0.0,0.0,0.0,0.0,0.0,0.0,0.0,0.0,0.0,0.0,0.0,0.0,0.0,0.0,0.0,0.0,0.7691,0.7691,0.7698,0.0,0.7691,0.0,0.0,0.0,0.0,0.0,0.0,0.0,0.0,0.0,0.0,0.0,0.0,0.0,0.0,0.0,0.0,0.0,0.0,0.0,0.0,0.0,0.0,0.0,0.0,0.0,0.0,0.0,0.0,0.0,0.0,0.0,0.0,0.0,0.0,0.0,0.0,0.0,0.0,0.0,0.0,0.0,0.0,0.0,0.0,0.0,0.0,0.0,0.0,0.0,0.0,0.0,0.0,0.0,0.0,0.0,0.0,0.0,0.0,0.0,0.0,0.0,0.0,0.0,0.0,0.0,0.0,0.0,0.0,0.0,0.0,0.0,0.0,0.0,0.0,0.0,0.0,0.0,0.0,0.0,0.0,0.0,0.0,0.0,0.0,0.0,0.0,0.0,0.0,0.0,0.0,0.0,0.0,0.0,0.0,0.0,0.0,0.0,0.0,0.0,0.0,0.0,0.0,0.0,0.0,0.0,0.0,0.0,0.0,0.0,0.0,0.7691,0.7691,0.7902,0.8004,0.0,0.0,0.0,0.0,0.0,0.0,0.0,0.0,0.0,0.0,0.0,0.0,0.0,0.0,0.0,0.0,0.0,0.0,0.0,0.0,0.0,0.0,0.0,0.0,0.0,0.0,0.0,0.0,0.0,0.0,0.0,0.0,0.0,0.0,0.0,0.0,0.0,0.0,0.0,0.0,0.0,0.0,0.0,0.0,0.0,0.0,0.0,0.0,0.0,0.0,0.0,0.0,0.0,0.0,0.0,0.0,0.0,0.0,0.0,0.0,0.0,0.0,0.0,0.0,0.0,0.0,0.0,0.0,0.0,0.0,0.0,0.0,0.0,0.0,0.0,0.0,0.0,0.0,0.0,0.0,0.0,0.0,0.0,0.0,0.0,0.0,0.0,0.0,0.0,0.0,0.0,0.0,0.0,0.0,0.0,0.0,0.0,0.0,0.0,0.0,0.0,0.0,0.0,0.0,0.0,0.0,0.0,0.0,0.0,0.0,0.7691,0.7735,0.7858,0.8165,0.8341,0.8341,0.0,0.0,0.0,0.0,0.0,0.0,0.0,0.0,0.0,0.0,0.0,0.0,0.0,0.0,0.0,0.0,0.0,0.0,0.0,0.0,0.0,0.0,0.0,0.0,0.0,0.0,0.0,0.0,0.0,0.0,0.0,0.0,0.0,0.0,0.0,0.0,0.0,0.0,0.0,0.0,0.0,0.0,0.0,0.0,0.0,0.0,0.0,0.0,0.0,0.0,0.0,0.0,0.0,0.0,0.0,0.0,0.0,0.0,0.0,0.0,0.0,0.0,0.0,0.0,0.0,0.0,0.0,0.0,0.0,0.0,0.0,0.0,0.0,0.0,0.0,0.0,0.0,0.0,0.0,0.0,0.0,0.0,0.0,0.0,0.0,0.0,0.0,0.0,0.0,0.0,0.0,0.0,0.0,0.0,0.0,0.0,0.0,0.0,0.0,0.0,0.0,0.0,0.0,0.0,0.0,0.0,0.0,0.0,0.7698,0.7705,0.7851,0.8187,0.8517,0.8693,0.0,0.0,0.0,0.0,0.0,0.0,0.0,0.0,0.0,0.0,0.0,0.0,0.0,0.0,0.0,0.0,0.0,0.0,0.0,0.0,0.0,0.0,0.0,0.0,0.0,0.0,0.0,0.0,0.0,0.0,0.0,0.0,0.0,0.0,0.0,0.0,0.0,0.0,0.0,0.0,0.0,0.0,0.0,0.0,0.0,0.0,0.0,0.0,0.0,0.0,0.0,0.0,0.0,0.0,0.0,0.0,0.0,0.0,0.0,0.0,0.0,0.0,0.0,0.0,0.0,0.0,0.0,0.0,0.0,0.0,0.0,0.0,0.0,0.0,0.0,0.0,0.0,0.0,0.0,0.0,0.0,0.0,0.0,0.0,0.0,0.0,0.0,0.0,0.0,0.0,0.0,0.0,0.0,0.0,0.0,0.0,0.0,0.0,0.0,0.0,0.0,0.0,0.0,0.0,0.0,0.0,0.0,0.0,0.0,0.8034,0.8231,0.8494,0.884,0.8965,0.9024,0.0,0.0,0.0,0.0,0.0,0.0,0.0,0.0,0.0,0.0,0.0,0.0,0.0,0.0,0.0,0.0,0.0,0.0,0.0,0.0,0.0,0.0,0.0,0.0,0.0,0.0,0.0,0.0,0.0,0.0,0.0,0.0,0.0,0.0,0.0,0.0,0.0,0.0,0.0,0.0,0.0,0.0,0.0,0.0,0.0,0.0,0.0,0.0,0.0,0.0,0.0,0.0,0.0,0.0,0.0,0.0,0.0,0.0,0.0,0.0,0.0,0.0,0.0,0.0,0.0,0.0,0.0,0.0,0.0,0.0,0.0,0.0,0.0,0.0,0.0,0.0,0.0,0.0,0.0,0.0,0.0,0.0,0.0,0.0,0.0,0.0,0.0,0.0,0.0,0.0,0.0,0.0,0.0,0.0,0.0,0.0,0.0,0.0,0.0,0.0,0.0,0.0,0.0,0.0,0.0,0.0,0.0,0.0,0.0,0.8363,0.0,0.898,0.9192,0.9295,0.9346,0.0,0.0,0.0,0.0,0.0,0.0,0.0,0.0,0.0,0.0,0.0,0.0,0.0,0.0,0.0,0.0,0.0,0.0,0.0,0.0,0.0,0.0,0.0,0.0,0.0,0.0,0.0,0.0,0.0,0.0,0.0,0.0,0.0,0.0,0.0,0.0,0.0,0.0,0.0,0.0,0.0,0.0,0.0,0.0,0.0,0.0,0.0,0.0,0.0,0.0,0.0,0.0,0.0,0.0,0.0,0.0,0.0,0.0,0.0,0.0,0.0,0.0,0.0,0.0,0.0,0.0,0.0,0.0,0.0,0.0,0.0,0.0,0.0,0.0,0.0,0.0,0.0,0.0,0.0,0.0,0.0,0.0,0.0,0.0,0.0,0.0,0.0,0.0,0.0,0.0,0.0,0.0,0.0,0.0,0.0,0.0,0.0,0.0,0.0,0.0,0.0,0.0,0.0,0.0,0.0,0.0,0.0,0.0,0.8377,0.8692,0.9038,0.9214,0.9222,0.9453,0.9607,0.0,0.0,0.0,0.0,0.0,0.0,0.0,0.0,0.0,0.0,0.0,0.0,0.0,0.0,0.0,0.0,0.0,0.0,0.0,0.0,0.0,0.0,0.0,0.0,0.0,0.0,0.0,0.0,0.0,0.0,0.0,0.0,0.0,0.0,0.0,0.0,0.0,0.0,0.0,0.0,0.0,0.0,0.0,0.0,0.0,0.0,0.0,0.0,0.0,0.0,0.0,0.0,0.0,0.0,0.0,0.0,0.0,0.0,0.0,0.0,0.0,0.0,0.0,0.0,0.0,0.0,0.0,0.0,0.0,0.0,0.0,0.0,0.0,0.0,0.0,0.0,0.0,0.0,0.0,0.0,0.0,0.0,0.0,0.0,0.0,0.0,0.0,0.0,0.0,0.0,0.0,0.0,0.0,0.0,0.0,0.0,0.0,0.0,0.0,0.0,0.0,0.0,0.0,0.0,0.0,0.0,0.0,0.0,0.0,0.9296,0.9431,0.9475,0.9475,0.9563,0.9614,0.0,0.0,0.0,0.0,0.0,0.0,0.0,0.0,0.0,0.0,0.0,0.0,0.0,0.0,0.0,0.0,0.0,0.0,0.0,0.0,0.0,0.0,0.0,0.0,0.0,0.0,0.0,0.0,0.0,0.0,0.0,0.0,0.0,0.0,0.0,0.0,0.0,0.0,0.0,0.0,0.0,0.0,0.0,0.0,0.0,0.0,0.0,0.0,0.0,0.0,0.0,0.0,0.0,0.0,0.0,0.0,0.0,0.0,0.0,0.0,0.0,0.0,0.0,0.0,0.0,0.0,0.0,0.0,0.0,0.0,0.0,0.0,0.0,0.0,0.0,0.0,0.0,0.0,0.0,0.0,0.0,0.0,0.0,0.0,0.0,0.0,0.0,0.0,0.0,0.0,0.0,0.0,0.0,0.0,0.0,0.0,0.0,0.0,0.0,0.0,0.0,0.0,0.0,0.0,0.0,0.0,0.0,0.0,0.0,0.8967,0.9276,0.9516,0.9691,0.9601,0.9594,0.9684,0.0,0.0,0.0,0.0,0.0,0.0,0.0,0.0,0.0,0.0,0.0,0.0,0.0,0.0,0.0,0.0,0.0,0.0,0.0,0.0,0.0,0.0,0.0,0.0,0.0,0.0,0.0,0.0,0.0,0.0,0.0,0.0,0.0,0.0,0.0,0.0,0.0,0.0,0.0,0.0,0.0,0.0,0.0,0.0,0.0,0.0,0.0,0.0,0.0,0.0,0.0,0.0,0.0,0.0,0.0,0.0,0.0,0.0,0.0,0.0,0.0,0.0,0.0,0.0,0.0,0.0,0.0,0.0,0.0,0.0,0.0,0.0,0.0,0.0,0.0,0.0,0.0,0.0,0.0,0.0,0.0,0.0,0.0,0.0,0.0,0.0,0.0,0.0,0.0,0.0,0.0,0.0,0.0,0.0,0.0,0.0,0.0,0.0,0.0,0.0,0.0,0.0,0.0,0.0,0.0,0.0,0.0,0.0,0.7904,0.8672,0.9291,0.9781,0.951,0.9496,0.0,0.0,0.0,0.0,0.0,0.0,0.0,0.0,0.0,0.0,0.0,0.0,0.0,0.0,0.0,0.0,0.0,0.0,0.0,0.0,0.0,0.0,0.0,0.0,0.0,0.0,0.0,0.0,0.0,0.0,0.0,0.0,0.0,0.0,0.0,0.0,0.0,0.0,0.0,0.0,0.0,0.0,0.0,0.0,0.0,0.0,0.0,0.0,0.0,0.0,0.0,0.0,0.0,0.0,0.0,0.0,0.0,0.0,0.0,0.0,0.0,0.0,0.0,0.0,0.0,0.0,0.0,0.0,0.0,0.0,0.0,0.0,0.0,0.0,0.0,0.0,0.0,0.0,0.0,0.0,0.0,0.0,0.0,0.0,0.0,0.0,0.0,0.0,0.0,0.0,0.0,0.0,0.0,0.0,0.0,0.0,0.0,0.0,0.0,0.0,0.0,0.0,0.0,0.0,0.0,0.0,0.0,0.0,0.0,0.7631,0.7637,0.8,0.8764,0.8699,0.8877,0.0,0.0,0.0,0.0,0.0,0.0,0.0,0.0,0.0,0.0,0.0,0.0,0.0,0.0,0.0,0.0,0.0,0.0,0.0,0.0,0.0,0.0,0.0,0.0,0.0,0.0,0.0,0.0,0.0,0.0,0.0,0.0,0.0,0.0,0.0,0.0,0.0,0.0,0.0,0.0,0.0,0.0,0.0,0.0,0.0,0.0,0.0,0.0,0.0,0.0,0.0,0.0,0.0,0.0,0.0,0.0,0.0,0.0,0.0,0.0,0.0,0.0,0.0,0.0,0.0,0.0,0.0,0.0,0.0,0.0,0.0,0.0,0.0,0.0,0.0,0.0,0.0,0.0,0.0,0.0,0.0,0.0,0.0,0.0,0.0,0.0,0.0,0.0,0.0,0.0,0.0,0.0,0.0,0.0,0.0,0.0,0.0,0.0,0.0,0.0,0.0,0.0,0.0,0.0,0.0,0.0,0.0,0.0,0.7274,0.7107,0.6695,0.6857,0.7672,0.8072,0.8486,0.0,0.0,0.0,0.0,0.0,0.0,0.0,0.0,0.0,0.0,0.0,0.0,0.0,0.0,0.0,0.0,0.0,0.0,0.0,0.0,0.0,0.0,0.0,0.0,0.0,0.0,0.0,0.0,0.0,0.0,0.0,0.0,0.0,0.0,0.0,0.0,0.0,0.0,0.0,0.0,0.0,0.0,0.0,0.0,0.0,0.0,0.0,0.0,0.0,0.0,0.0,0.0,0.0,0.0,0.0,0.0,0.0,0.0,0.0,0.0,0.0,0.0,0.0,0.0,0.0,0.0,0.0,0.0,0.0,0.0,0.0,0.0,0.0,0.0,0.0,0.0,0.0,0.0,0.0,0.0,0.0,0.0,0.0,0.0,0.0,0.0,0.0,0.0,0.0,0.0,0.0,0.0,0.0,0.0,0.0,0.0,0.0,0.0,0.0,0.0,0.0,0.0,0.0,0.0,0.0,0.0,0.0,0.0,0.6562,0.6531,0.5948,0.5944,0.66,0.749,0.8139,0.0,0.0,0.0,0.0,0.0,0.0,0.0,0.0,0.0,0.0,0.0,0.0,0.0,0.0,0.0,0.0,0.0,0.0,0.0,0.0,0.0,0.0,0.0,0.0,0.0,0.0,0.0,0.0,0.0,0.0,0.0,0.0,0.0,0.0,0.0,0.0,0.0,0.0,0.0,0.0,0.0,0.0,0.0,0.0,0.0,0.0,0.0,0.0,0.0,0.0,0.0,0.0,0.0,0.0,0.0,0.0,0.0,0.0,0.0,0.0,0.0,0.0,0.0,0.0,0.0,0.0,0.0,0.0,0.0,0.0,0.0,0.0,0.0,0.0,0.0,0.0,0.0,0.0,0.0,0.0,0.0,0.0,0.0,0.0,0.0,0.0,0.0,0.0,0.0,0.0,0.0,0.0,0.0,0.0,0.0,0.0,0.0,0.0,0.0,0.0,0.0,0.0,0.0,0.0,0.0,0.0,0.0,0.0,0.6445,0.5993,0.5867,0.5903,0.6061,0.6687,0.7372,0.0,0.0,0.0,0.0,0.0,0.0,0.0,0.0,0.0,0.0,0.0,0.0,0.0,0.0,0.0,0.0,0.0,0.0,0.0,0.0,0.0,0.0,0.0,0.0,0.0,0.0,0.0,0.0,0.0,0.0,0.0,0.0,0.0,0.0,0.0,0.0,0.0,0.0,0.0,0.0,0.0,0.0,0.0,0.0,0.0,0.0,0.0,0.0,0.9586,0.0,0.0,0.0,0.0,0.0,0.0,0.0,0.0,0.0,0.0,0.0,0.0,0.0,0.0,0.0,0.0,0.0,0.0,0.0,0.0,0.0,0.0,0.0,0.0,0.0,0.0,0.0,0.0,0.0,0.0,0.0,0.0,0.0,0.0,0.0,0.0,0.0,0.0,0.0,0.0,0.0,0.0,0.0,0.0,0.0,0.0,0.0,0.0,0.0,0.0,0.0,0.0,0.0,0.0,0.0,0.0,0.0,0.0,0.0,0.6415,0.6227,0.6094,0.6082,0.6128,0.6415,0.6942,0.0,0.0,0.0,0.0,0.0,0.0,0.0,0.0,0.0,0.0,0.0,0.0,0.0,0.0,0.0,0.0,0.0,0.0,0.0,0.0,0.0,0.0,0.0,0.0,0.0,0.0,0.0,0.0,0.0,0.0,0.0,0.0,0.0,0.0,0.0,0.0,0.0,0.0,0.0,0.0,0.0,0.0,0.0,0.0,0.0,0.0,0.0,0.0,0.0,0.0,0.0,0.0,0.0,0.0,0.0,0.0,0.0,0.0,0.0,0.0,0.0,0.0,0.0,0.0,0.0,0.0,0.0,0.0,0.0,0.0,0.0,0.0,0.0,0.0,0.0,0.0,0.0,0.0,0.0,0.0,0.0,0.0,0.0,0.0,0.0,0.0,0.0,0.0,0.0,0.0,0.0,0.0,0.0,0.0,0.0,0.0,0.0,0.0,0.0,0.0,0.0,0.0,0.0,0.0,0.0,0.0,0.0,0.6524,0.6383,0.6607,0.6378,0.6294,0.6408,0.6378,0.6653,0.7214,0.0,0.0,0.0,0.0,0.0,0.0,0.0,0.0,0.0,0.0,0.0,0.0,0.0,0.0,0.0,0.0,0.0,0.0,0.0,0.0,0.0,0.0,0.0,0.0,0.0,0.0,0.0,0.0,0.0,0.0,0.0,0.0,0.0,0.0,0.0,0.0,0.0,0.0,0.8965,0.9411,0.0,0.0,0.0,0.0,0.0,0.0,0.0,0.0,1.0394,0.0,0.0,0.0,0.0,0.0,0.0,0.0,0.0,0.0,0.0,0.0,0.0,0.0,0.0,0.0,0.0,0.0,0.0,0.0,0.0,0.0,0.0,0.0,0.0,0.0,0.0,0.0,0.0,0.0,0.0,0.0,0.0,0.0,0.0,0.0,0.0,0.0,0.0,0.0,0.0,0.0,0.0,0.0,0.0,0.0,0.0,0.0,0.0,0.0,0.0,0.0,0.0,0.0,0.0,0.0,0.0,0.626,0.6189,0.6196,0.628,0.6343,0.6384,0.6412,0.6273,0.6459,0.6915,0.0,0.0,0.0,0.0,0.0,0.0,0.0,0.0,0.0,0.0,0.0,0.0,0.0,0.0,0.0,0.0,0.0,0.0,0.0,0.0,0.0,0.0,0.0,0.0,0.0,0.0,0.0,0.0,0.0,0.0,0.0,0.0,0.0,0.0,0.0,0.0,0.0,0.0,0.0,0.9873,0.9991,0.0,0.0,0.0,0.0,0.0,0.0,0.0,0.0,1.0378,0.0,0.0,0.0,0.0,0.0,0.0,0.0,0.0,0.0,0.0,0.0,0.0,0.0,0.0,0.0,0.0,0.0,0.0,0.0,0.0,0.0,0.0,0.0,0.0,0.0,0.0,0.0,0.0,0.0,0.0,0.0,0.0,0.0,0.0,0.0,0.0,0.0,0.0,0.0,0.0,0.0,0.0,0.0,0.0,0.0,0.0,0.0,0.0,0.0,0.0,0.0,0.0,0.0,0.0,0.0,0.6112,0.6203,0.6264,0.6318,0.6371,0.642,0.6416,0.6273,0.6389,0.0,0.0,0.0,0.0,0.0,0.0,0.0,0.0,0.0,0.0,0.0,0.0,0.0,0.0,0.0,0.0,0.0,0.0,0.0,0.0,0.0,0.0,0.0,0.0,0.0,0.0,0.0,0.0,0.0,0.0,0.0,0.0,0.0,0.0,0.0,0.0,0.0,0.0,0.0,0.0,0.9604,0.9543,0.9468,0.0,0.0,0.0,0.0,0.0,0.0,1.0272,1.0179,0.0,0.0,0.0,0.0,0.0,0.0,0.0,0.0,0.0,0.0,0.0,0.0,0.0,0.0,0.0,0.0,0.0,0.0,0.0,0.0,0.0,0.0,0.0,0.0,0.0,0.0,0.0,0.0,0.0,0.0,0.0,0.0,0.0,0.0,0.0,0.0,0.0,0.0,0.0,0.0,0.0,0.0,0.0,0.0,0.0,0.0,0.0,0.0,0.0,0.0,0.0,0.0,0.0,0.0,0.0,0.6039,0.6233,0.6384,0.642,0.642,0.642,0.6416,0.6241,0.6324,0.0,0.0,0.0,0.0,0.0,0.0,0.0,0.0,0.0,0.0,0.0,0.0,0.0,0.0,0.0,0.0,0.0,0.0,0.0,0.0,0.0,0.0,0.0,0.0,0.0,0.0,0.0,0.0,0.0,0.0,0.0,0.0,0.0,0.0,0.0,0.0,0.0,0.0,0.0,0.0,0.0,0.9084,0.8638,0.8537,0.0,0.0,0.0,0.0,1.0054,0.9999,0.0,0.0,0.0,0.0,0.0,0.0,0.0,0.0,0.0,0.0,0.0,0.0,0.0,0.0,0.0,0.0,0.0,0.0,0.0,0.0,0.0,0.0,0.0,0.0,0.0,0.0,0.0,0.0,0.0,0.0,0.0,0.0,0.0,0.0,0.0,0.0,0.0,0.0,0.0,0.0,0.0,0.0,0.0,0.0,0.0,0.0,0.0,0.0,0.0,0.0,0.0,0.0,0.0,0.0,0.0,0.0,0.5755,0.6075,0.629,0.6412,0.642,0.642,0.6416,0.6095,0.6075,0.0,0.0,0.0,0.0,0.0,0.0,0.0,0.0,0.0,0.0,0.0,0.0,0.0,0.0,0.0,0.0,0.0,0.0,0.0,0.0,0.0,0.0,0.0,0.0,0.0,0.0,0.0,0.0,0.0,0.0,0.0,0.0,0.0,0.0,0.0,0.0,0.0,0.0,0.0,0.0,0.0,0.8818,0.8236,0.8207,0.835,0.0,0.0,0.9635,0.9964,1.0002,0.0,0.0,0.0,0.0,0.0,0.0,0.0,0.0,0.0,0.0,0.0,0.0,0.0,0.0,0.0,0.0,0.0,0.0,0.0,0.0,0.0,0.0,0.0,0.0,0.0,0.0,0.0,0.0,0.0,0.0,0.0,0.0,0.0,0.0,0.0,0.0,0.0,0.0,0.0,0.0,0.0,0.0,0.0,0.0,0.0,0.0,0.0,0.0,0.0,0.0,0.0,0.0,0.0,0.0,0.0,0.5109,0.5066,0.5103,0.5157,0.5216,0.5219,0.5415,0.5815,0.538,0.5508,0.0,0.0,0.0,0.0,0.0,0.0,0.0,0.0,0.0,0.0,0.0,0.0,0.0,0.0,0.0,0.0,0.0,0.0,0.0,0.0,0.0,0.0,0.0,0.0,0.0,0.0,0.0,0.0,0.0,0.0,0.0,0.0,0.0,0.0,0.0,0.0,0.0,0.0,0.0,0.0,0.0,0.0,0.7325,0.7157,0.0,0.0,0.0,0.9007,0.9425,0.0,0.0,0.0,0.0,0.0,0.0,0.0,0.0,0.0,0.0,0.0,0.0,0.0,0.0,0.0,0.0,0.0,0.0,0.0,0.0,0.0,0.0,0.0,0.0,0.0,0.0,0.0,0.0,0.0,0.0,0.0,0.0,0.0,0.0,0.0,0.0,0.0,0.0,0.0,0.0,0.0,0.0,0.0,0.0,0.0,0.0,0.0,0.0,0.0,0.0,0.0,0.0,0.0,0.0,0.0,0.0,0.0,0.4549,0.4393,0.4317,0.4317,0.4317,0.4553,0.511,0.4848,0.0,0.0,0.0,0.0,0.0,0.0,0.0,0.0,0.0,0.0,0.0,0.0,0.0,0.0,0.0,0.0,0.0,0.0,0.0,0.0,0.0,0.0,0.0,0.0,0.0,0.0,0.0,0.8803,0.0,0.0,0.0,0.0,0.0,0.0,0.0,0.0,0.0,0.0,0.0,0.0,0.0,0.0,0.7218,0.6571,0.6375,0.6404,0.0,0.0,0.8351,0.885,0.8945,0.915,0.0,0.0,0.0,0.0,0.0,0.0,0.0,0.0,0.0,0.0,0.0,0.0,0.0,0.0,0.0,0.0,0.0,0.0,0.0,0.0,0.0,0.0,0.0,0.0,0.0,0.0,0.0,0.0,0.0,0.0,0.0,0.0,0.0,0.0,0.0,0.0,0.0,0.0,0.0,0.0,0.0,0.0,0.0,0.0,0.0,0.0,0.0,0.0,0.0,0.0,0.0,0.0,0.0,0.0,0.0,0.4427,0.4361,0.4287,0.4287,0.4317,0.432,0.4384,0.481,0.5023,0.0,0.0,0.0,0.0,0.0,0.0,0.0,0.0,0.0,0.0,0.0,0.0,0.0,0.0,0.0,0.0,0.0,0.0,0.0,0.0,0.0,0.0,0.0,0.0,0.0,0.0,0.0,0.0,0.0,0.0,0.0,0.0,0.0,0.0,0.0,0.0,0.0,0.0,0.0,0.0,0.0,0.6616,0.6203,0.629,0.6396,0.0,0.0,0.779,0.8431,0.8151,0.8164,0.917,0.0,0.0,0.0,0.0,0.0,0.0,0.0,0.0,0.0,0.0,0.0,0.0,0.0,0.0,0.0,0.0,0.0,0.0,0.0,0.0,0.0,0.0,0.0,0.0,0.0,0.0,0.0,0.0,0.0,0.0,0.0,0.0,0.0,0.0,0.0,0.0,0.0,0.0,0.0,0.0,0.0,0.0,0.0,0.0,0.0,0.0,0.0,0.0,0.0,0.0,0.0,0.0,0.0,0.3867,0.36,0.3229,0.2989,0.2989,0.3023,0.3188,0.3618,0.3619,0.3914,0.0,0.0,0.0,0.0,0.0,0.0,0.0,0.0,0.0,0.0,0.0,0.0,0.0,0.0,0.0,0.0,0.0,0.0,0.0,0.0,0.0,0.0,0.0,0.0,0.0,0.0,0.0,0.0,0.8718,0.8437,0.8381,0.0,0.0,0.0,0.0,0.0,0.0,0.0,0.0,0.0,0.0,0.6356,0.5986,0.591,0.0,0.0,0.6672,0.7274,0.7643,0.7865,0.8107,0.8471,0.8456,0.0,0.0,0.0,0.0,0.0,0.0,0.0,0.0,0.0,0.0,0.0,0.0,0.0,0.0,0.0,0.0,0.0,0.0,0.0,0.0,0.0,0.0,0.0,0.0,0.0,0.0,0.0,0.0,0.0,0.0,0.0,0.0,0.0,0.0,0.0,0.0,0.0,0.0,0.0,0.0,0.0,0.0,0.0,0.0,0.0,0.0,0.0,0.0,0.0,0.0,0.0,0.0,0.332,0.3048,0.2483,0.2188,0.2188,0.2188,0.2421,0.2883,0.2861,0.3179,0.0,0.0,0.0,0.0,0.0,0.0,0.0,0.0,0.0,0.0,0.0,0.0,0.0,0.0,0.0,0.0,0.0,0.0,0.0,0.0,0.0,0.0,0.0,0.0,0.0,0.0,0.0,0.0,0.8486,0.8047,0.8014,0.0,0.0,0.0,0.0,0.0,0.0,0.0,0.0,0.0,0.0,0.597,0.5642,0.5582,0.5521,0.5524,0.6052,0.6558,0.6824,0.7137,0.746,0.7803,0.0,0.0,0.0,0.0,0.0,0.0,0.0,0.0,0.0,0.0,0.0,0.0,0.0,0.0,0.0,0.0,0.0,0.0,0.0,0.0,0.0,0.0,0.0,0.0,0.0,0.0,0.0,0.0,0.0,0.0,0.4786,0.0,0.0,0.0,0.0,0.0,0.0,0.0,0.0,0.0,0.0,0.0,0.0,0.0,0.0,0.0,0.0,0.0,0.0,0.0,0.0,0.0,0.0,0.3171,0.2895,0.2417,0.2188,0.2188,0.2188,0.2221,0.2253,0.285,0.3041,0.2764,0.0,0.0,0.0,0.0,0.0,0.0,0.0,0.0,0.0,0.0,0.0,0.0,0.0,0.0,0.0,0.0,0.0,0.0,0.0,0.0,0.0,0.0,0.0,0.0,0.0,0.0,0.7809,0.7912,0.7784,0.0,0.0,0.0,0.0,0.0,0.0,0.0,0.0,0.0,0.0,0.5968,0.535,0.516,0.5256,0.5229,0.4731,0.51,0.5601,0.6053,0.5729,0.5835,0.0,0.0,0.0,0.0,0.0,0.0,0.0,0.0,0.0,0.0,0.0,0.0,0.0,0.0,0.0,0.0,0.0,0.0,0.0,0.0,0.0,0.0,0.0,0.0,0.0,0.0,0.0,0.3601,0.3876,0.0,0.0,0.0,0.0,0.0,0.0,0.0,0.0,0.0,0.0,0.0,0.2949,0.311,0.0,0.0,0.0,0.0,0.0,0.0,0.0,0.0,0.0,0.0,0.0,0.0,0.2739,0.2564,0.2352,0.2188,0.2188,0.2188,0.2188,0.2188,0.2421,0.2584,0.2704,0.0,0.0,0.0,0.0,0.0,0.0,0.0,0.0,0.0,0.0,0.0,0.0,0.0,0.0,0.0,0.0,0.0,0.0,0.0,0.0,0.0,0.0,0.0,0.0,0.0,0.6316,0.0,0.0,0.0,0.0,0.0,0.0,0.0,0.0,0.0,0.0,0.0,0.561,0.565,0.5094,0.4636,0.4568,0.4619,0.4721,0.0,0.0,0.0,0.0,0.0,0.0,0.0,0.0,0.0,0.0,0.0,0.0,0.0,0.0,0.6733,0.6244,0.6157,0.6089,0.5811,0.0,0.0,0.0,0.0,0.0,0.0,0.0,0.0,0.0,0.0,0.0,0.0,0.0,0.0,0.3046,0.0,0.3027,0.0,0.0,0.0,0.0,0.0,0.0,0.0,0.0,0.2041,0.1856,0.1707,0.1849,0.2038,0.0,0.2419,0.2651,0.0,0.0,0.0,0.0,0.0,0.0,0.0,0.0,0.2463,0.2319,0.2256,0.2188,0.2188,0.2188,0.2188,0.2188,0.2188,0.23,0.2518,0.2795,0.3127,0.0,0.0,0.0,0.0,0.0,0.0,0.0,0.0,0.0,0.0,0.0,0.0,0.0,0.0,0.0,0.0,0.0,0.0,0.0,0.0,0.0,0.0,0.0,0.5243,0.0,0.0,0.0,0.0,0.0,0.0,0.0,0.0,0.0,0.5126,0.4945,0.4704,0.464,0.429,0.3997,0.3869,0.0,0.0,0.0,0.0,0.0,0.0,0.0,0.4715,0.4823,0.4836,0.4901,0.5207,0.5474,0.5595,0.5484,0.0,0.0,0.5712,0.5709,0.5577,0.5194,0.4601,0.4113,0.3894,0.3417,0.3018,0.0,0.0,0.0,0.0,0.0,0.0,0.0,0.0,0.2595,0.267,0.0,0.2549,0.0,0.0,0.0,0.0,0.0,0.1735,0.0,0.0,0.0606,0.0094,-0.0351,-0.028,0.0031,0.0675,0.1062,0.1449,0.1821,0.2468,0.0,0.0,0.0,0.0,0.0,0.0,0.2344,0.2197,0.2192,0.2188,0.2188,0.2188,0.2188,0.2188,0.2188,0.2186,0.2218,0.2518,0.2672,0.27,0.3138,0.0,0.0,0.0,0.0,0.0,0.0,0.0,0.0,0.0,0.0,0.0,0.0,0.0,0.0,0.0,0.0,0.0,0.0,0.0,0.0,0.486,0.0,0.0,0.0,0.0,0.0,0.0,0.0,0.0,0.0,0.0,0.4004,0.3727,0.3542,0.3718,0.0,0.0,0.0,0.0,0.3197,0.2842,0.3423,0.3894,0.3932,0.3753,0.3747,0.4056,0.0,0.0,0.3479,0.3409,0.3398,0.3356,0.3507,0.3808,0.474,0.4905,0.4647,0.3644,0.3362,0.3112,0.2645,0.2531,0.2381,0.042,0.0,0.0,0.0,0.0,0.0937,0.0901,0.0929,0.1016,0.106,0.1085,0.082,0.0,0.0,0.0,0.0,0.0,0.0,-0.0118,-0.0182,-0.0282,-0.0383,-0.0547,-0.0488,-0.0361,-0.0165,-0.0033,0.0065,0.0196,0.0392,0.1073,0.2266,0.0,0.0,0.0,0.0,0.2118,0.2135,0.218,0.2188,0.2188,0.2188,0.2188,0.2188,0.2188,0.2188,0.2188,0.2303,0.2403,0.2547,0.2787,0.0,0.0,0.0,0.0,0.0,0.0,0.0,0.0,0.0,0.0,0.0,0.0,0.0,0.0,0.0,0.0,0.0,0.0,0.0,0.4446,0.4073,0.3758,0.0,0.0,0.0,0.0,0.0,0.0,0.0,0.0,0.0,0.1863,0.2355,0.2746,0.0,0.0,0.2149,0.2225,0.2174,0.2198,0.2457,0.2392,0.0,0.0,0.2539,0.2322,0.2411,0.2719,0.2982,0.3177,0.3465,0.3639,0.3639,0.3544,0.3374,0.3085,0.3638,0.3938,0.3683,0.3177,0.271,0.2502,0.2075,0.1576,-0.0875,-0.0422,0.0059,0.0262,0.0204,0.0116,0.0,-0.012,-0.0117,-0.0087,-0.0058,-0.0257,-0.0423,-0.0536,-0.0846,0.0,0.0,0.0,-0.1022,-0.1179,-0.1233,-0.1375,-0.1606,-0.1598,-0.1408,-0.1173,-0.1106,-0.0938,-0.0738,-0.0738,-0.0195,0.0886,0.0,0.0,0.1801,0.1824,0.1868,0.1966,0.2056,0.2119,0.2188,0.2188,0.2188,0.2188,0.2188,0.2188,0.2188,0.2188,0.2271,0.2397,0.2496,0.2631,0.0,0.0,0.0,0.0,0.0,0.0,0.0,0.0,0.0,0.0,0.0,0.3865,0.4016,0.0,0.0,0.0,0.3377,0.3432,0.317,0.3075,0.0,0.0,0.0,0.0,0.0,0.0,0.0,0.1603,0.1311,0.1024,0.0709,0.1191,0.1613,0.1815,0.1534,0.1382,0.1476,0.0,0.1434,0.1759,0.1667,0.1735,0.2025,0.1763,0.1497,0.1304,0.163,0.1958,0.2077,0.2349,0.2504,0.2506,0.2387,0.2154,0.1647,0.2116,0.2506,0.2506,0.2117,0.1765,0.1765,0.1335,0.0982,-0.2188,-0.2078,-0.0795,-0.0404,-0.0622,-0.0558,-0.0713,-0.0992,-0.0865,-0.0865,-0.0988,-0.0893,-0.1048,-0.1359,-0.1363,0.0,-0.1099,-0.1195,-0.1538,-0.2012,-0.2214,-0.2586,-0.3192,-0.3192,-0.2889,-0.2281,-0.208,-0.1745,-0.1277,-0.1277,-0.1194,-0.1002,-0.0194,0.0541,0.1212,0.1304,0.1419,0.1616,0.1659,0.1816,0.2052,0.2119,0.2153,0.2153,0.2153,0.2153,0.2153,0.2153,0.2153,0.2151,0.2199,0.2295,0.2417,0.0,0.0,0.0,0.0,0.0,0.0,0.0,0.0,0.0,0.0,0.0,0.0,0.0,0.0,0.0,0.2279,0.0,0.1676,0.2041,0.0,0.0,0.0,0.2354,0.1717,0.1752,0.1578,0.1011,0.0,0.0,0.0361,0.0285,0.0387,0.0705,0.0772,0.0833,0.0873,0.0812,0.0825,0.0863,0.1215,0.1449,0.1407,0.1254,0.1019,0.0706,0.0589,0.0667,0.0707,0.0707,0.0629,0.0746,0.0589,0.0629,0.0589,0.0667,0.055,0.0628,0.0668,0.0629,0.0707,0.0667,0.0629,-0.2188,-0.2185,-0.1825,-0.1748,-0.1781,-0.178,-0.1813,-0.1876,-0.1803,-0.1785,-0.1816,-0.1993,-0.2276,-0.2645,-0.2707,-0.271,-0.2661,-0.2694,-0.2771,-0.2889,-0.2922,-0.3058,-0.3192,-0.3192,-0.3125,-0.2956,-0.2922,-0.2822,-0.2723,-0.2688,-0.2409,-0.1893,-0.1694,-0.1081,-0.016,-0.0096,-0.0033,0.0033,0.0067,0.0336,0.0873,0.1445,0.1748,0.1748,0.1748,0.1748,0.1748,0.1748,0.1748,0.1748,0.1771,0.1781,0.1741,0.1725,0.0,0.0,0.0,0.0,0.0,0.0,0.0,0.0,0.0,0.2289,0.2609,0.0,0.1715,0.0,0.134,0.1401,0.2052,0.1593,0.0,0.0,0.1637,0.1636,0.1195,0.1104,0.0914,0.0519,0.0341,0.0205,0.0106,0.0072,0.0109,0.0185,0.0,0.0267,0.0427,0.0313,0.0196,0.0,0.0314,0.0392,0.0353,0.0353,0.0314,0.0354,0.0354,0.0432,0.0589,0.0629,0.0629,0.0589,0.0471,0.0393,0.0354,0.0236,0.0157,0.0157,0.0393,0.0629,0.0629,0.0589,0.055,-0.3159,-0.2656,-0.2891,-0.2857,-0.2624,-0.2488,-0.2421,-0.2417,-0.2546,-0.2594,-0.259,-0.2745,-0.2944,-0.3152,-0.317,-0.3192,-0.3192,-0.3192,-0.3192,-0.3192,-0.3192,-0.3192,-0.3192,-0.3192,-0.3192,-0.3192,-0.3192,-0.3192,-0.3192,-0.3192,-0.3023,-0.2653,-0.2619,-0.2365,-0.1772,-0.1148,-0.0595,-0.0168,-0.0368,-0.0335,0.0067,0.047,0.0739,0.0873,0.0974,0.1102,0.1222,0.1352,0.1378,0.1362,0.1394,0.1352,0.1329,0.1246,0.1218,0.0,0.0,0.0,0.0,0.0,0.0,0.0,0.0,0.0,0.0,0.0,0.1302,0.135,0.1016,0.1069,0.1707,0.128,0.0978,0.093,0.1008,0.0925,0.0571,0.0471,0.0372,0.0172,0.0069,0.0,0.0,0.0,0.0,0.0,0.0,0.0039,0.0117,0.0079,0.0,0.0,-0.0314,-0.0706,-0.1019,-0.1097,-0.1058,-0.098,-0.094,-0.0823,-0.0353,-0.0235,-0.0118,0.0236,0.0236,0.0157,0.0157,-0.0275,-0.0588,-0.0588,-0.0706,-0.051,0.0157,0.0314,0.0275,-0.4488,-0.3513,-0.3948,-0.3873,-0.336,-0.3088,-0.2885,-0.2787,-0.3092,-0.3192,-0.3192,-0.3192,-0.3192,-0.3192,-0.3192,-0.3192,-0.3192,-0.3192,-0.3192,-0.3192,-0.3192,-0.3192,-0.3192,-0.3192,-0.3192,-0.3192,-0.3192,-0.3192,-0.3192,-0.3192,-0.3192,-0.3192,-0.3192,-0.3159,-0.3025,-0.1949,-0.0974,-0.0168,-0.0537,-0.0703,-0.0703,-0.0603,-0.0402,-0.0101,0.0101,0.0332,0.0645,0.0837,0.0953,0.0959,0.0957,0.0959,0.09,0.0742,0.0672,0.0,0.0447,0.0,0.0,0.0,0.0,0.0,0.0,0.0,0.0,0.1116,0.1132,0.1196,0.0928,0.0807,0.0975,0.0975,0.0807,0.0471,0.0437,0.0303,0.0034,0.0,0.0,0.0,0.0,0.0,0.0,-0.0075,0.0,0.0,0.0,0.0,-0.0353,-0.0314,0.0,-0.0275,-0.0941,-0.1644,-0.219,-0.2425,-0.2386,-0.2425,-0.2347,-0.227,-0.1527,-0.1449,-0.1214,-0.0549,-0.0432,-0.0392,-0.0314,-0.098,-0.141,-0.145,-0.1963,-0.1927,-0.0785,-0.0432,-0.0314,-0.5112,-0.4777,-0.4849,-0.475,-0.4483,-0.445,-0.392,-0.3125,-0.3159,-0.3192,-0.3192,-0.3192,-0.3192,-0.3192,-0.3192,-0.3192,-0.3192,-0.3192,-0.3192,-0.3192,-0.3192,-0.3192,-0.3192,-0.3192,-0.3192,-0.3192,-0.3192,-0.3192,-0.3192,-0.3192,-0.3192,-0.3192,-0.3192,-0.2922,-0.2417,0.0,0.0,0.0,-0.2114,-0.1878,-0.1844,-0.1141,-0.0706,-0.0638,-0.047,0.0,-0.0161,-0.0032,0.0064,0.0124,0.0216,0.0,0.0,0.0,0.0,0.0,0.0,0.0,0.0,0.0,0.0,0.0,-0.0612,0.0061,0.0741,0.0695,0.0648,0.0666,0.0504,0.0404,0.0438,0.0303,0.0168,0.0101,0.0,0.0067,0.0,0.0,0.0,0.0,0.0,0.0,0.0,-0.0603,-0.103,-0.1093,-0.1606,-0.1996,-0.1996,-0.1449,-0.1332,-0.1879,-0.2152,-0.2308,-0.2464,-0.2581,-0.266,-0.2503,-0.2503,-0.2465,-0.2309,-0.2268,-0.2268,-0.1957,-0.2035,-0.1996,-0.1957,-0.219,-0.2273,-0.227,-0.2504,-0.2523,-0.2123,-0.2036,-0.2035,-0.5866,0.0,-0.5544,-0.5458,0.0,-0.5187,-0.4947,-0.4483,-0.4154,-0.399,-0.3987,-0.3823,-0.3758,-0.3725,-0.346,-0.3426,-0.3491,-0.3395,-0.3393,-0.3493,-0.3491,-0.346,-0.3328,-0.3328,-0.3295,-0.3192,-0.3295,-0.3295,-0.3192,-0.3295,-0.3295,-0.3192,-0.3192,-0.3025,-0.272,-0.3025,-0.3192,-0.3192,-0.2855,-0.2686,-0.2686,-0.2217,-0.1882,-0.1747,0.0,0.0,0.0,0.0,0.0,0.0,0.0,0.0,0.0,0.0,0.0,-0.1322,-0.1449,-0.1607,-0.186,-0.1725,-0.1706,-0.1865,-0.1478,-0.0703,0.0506,0.0487,0.0398,0.0404,0.0236,0.0169,0.0135,0.0067,0.0,0.0,0.0,0.0,0.0,0.0,0.0,0.0,0.0,-0.0145,-0.0602,-0.0994,-0.1467,-0.1836,-0.2229,-0.2698,-0.2971,-0.2426,-0.219,-0.2971,-0.3168,-0.3285,-0.364,-0.3759,-0.3717,-0.3717,-0.372,-0.356,-0.3207,-0.3127,-0.3012,-0.2621,-0.2503,-0.2503,-0.2545,-0.2843,-0.3183,-0.323,-0.3651,-0.3983,-0.3895,-0.3282,-0.2715,-0.6685,-0.588,-0.627,-0.6317,-0.6064,-0.6064,-0.6139,-0.618,0.0,0.0,0.0,-0.4583,-0.4386,-0.4353,-0.3828,-0.3627,-0.3792,-0.3629,-0.3661,-0.3792,-0.3825,-0.3694,-0.3565,-0.3563,-0.3462,-0.3326,-0.3431,-0.3431,-0.3326,-0.3464,-0.3464,-0.3293,-0.3261,-0.3228,-0.3192,-0.3192,-0.3192,-0.3192,-0.3192,-0.3192,-0.3192,-0.3159,-0.3025,-0.2753,-0.2551,-0.232,-0.2033,-0.1837,-0.1747,-0.1728,-0.1693,-0.1729,-0.1768,-0.1768,-0.1804,-0.1877,-0.1908,-0.2119,-0.2562,-0.224,-0.2129,-0.248,-0.2248,-0.1462,-0.0033,0.0066,0.0034,0.0067,0.0034,0.0,0.0,0.0,0.0,0.0,0.0,0.0,0.0,0.0,0.0,-0.0176,0.0,-0.0555,-0.1403,-0.1701,-0.1957,-0.2581,-0.2934,-0.3168,-0.3715,-0.3441,-0.3246,-0.3871,-0.399,-0.4226,-0.4779,-0.4901,-0.5018,-0.4859,-0.4898,-0.474,-0.4226,-0.4029,-0.3715,-0.3209,-0.2974,-0.3013,-0.3017,-0.3623,-0.4087,-0.4133,-0.4804,-0.5401,-0.5275,-0.4358,-0.3511,-0.7451,-0.7465,-0.7539,-0.769,-0.7826,-0.7826,-0.7716,-0.7446,-0.6269,-0.5741,-0.5705,-0.5011,-0.4749,-0.4683,-0.4056,-0.3792,-0.3792,-0.3792,-0.3758,0.0,-0.3825,-0.3792,-0.3758,-0.3758,-0.3725,-0.3692,-0.3596,-0.356,-0.3694,-0.3563,-0.3563,-0.3694,-0.3527,-0.3362,-0.3228,-0.3192,-0.3192,-0.3192,-0.3192,-0.3192,-0.3192,-0.3092,-0.3023,-0.2956,-0.2753,-0.2621,-0.252,-0.2355,-0.2259,-0.2193,-0.2096,-0.215,-0.2424,-0.2461,-0.262,-0.295,-0.3123,-0.3263,-0.3343,-0.3438,-0.3309,-0.2954,-0.2855,-0.248,-0.1635,-0.1139,-0.0908,-0.0874,-0.0404,0.0,0.0,0.0,0.0,0.0,0.0,0.0,0.0,0.0,-0.0352,-0.101,-0.1148,-0.1401,-0.2204,-0.2924,-0.3363,-0.3636,-0.4031,-0.4621,-0.4662,-0.474,-0.4701,-0.4781,-0.482,-0.4898,-0.4979,-0.5018,-0.5018,-0.5018,-0.5018,-0.494,-0.4779,-0.474,-0.4662,-0.4623,-0.4467,-0.4506,-0.4545,-0.4827,-0.494,-0.4968,-0.5285,-0.5475,-0.5483,-0.5247,-0.5124,-0.8002,-0.8266,-0.8299,-0.8439,-0.8641,-0.87,-0.8627,-0.8349,-0.7803,-0.6992,-0.6115,-0.5219,-0.4791,-0.4755,-0.4192,-0.3961,-0.4064,-0.3961,-0.3961,-0.4064,-0.4064,-0.403,-0.3894,-0.3894,-0.3894,-0.3792,-0.3794,-0.3794,-0.3792,-0.3692,-0.3694,-0.3792,-0.3727,-0.3627,-0.356,-0.3527,-0.346,-0.3362,-0.3261,-0.3192,-0.3192,-0.3125,-0.3092,-0.3125,-0.3025,-0.2941,-0.2938,-0.2869,-0.2819,-0.2783,-0.2715,-0.2763,-0.2929,-0.3033,-0.3183,-0.336,-0.3563,-0.3661,-0.3661,-0.3825,-0.3861,-0.3694,-0.3696,-0.3558,-0.3255,-0.2214,-0.1644,-0.1644,-0.131,-0.1143,-0.1142,-0.1142,-0.1142,-0.1143,-0.1142,-0.1143,-0.1146,-0.1205,-0.1415,-0.1779,-0.1896,-0.2246,-0.3119,-0.3558,-0.399,-0.4345,-0.482,-0.5018,-0.5018,-0.5018,-0.5018,-0.5018,-0.5018,-0.5018,-0.5018,-0.5018,-0.5018,-0.5018,-0.5018,-0.5018,-0.5018,-0.5018,-0.5018,-0.5018,-0.5018,-0.5018,-0.5021,-0.5167,-0.526,-0.5309,-0.548,-0.5583,-0.5615,-0.5653,-0.5642,-0.8479,-0.8818,-0.8861,-0.8985,-0.9222,-0.9282,-0.9152,-0.8947,-0.8578,-0.7755,-0.6626,-0.5587,-0.506,-0.4858,-0.4328,-0.4167,-0.4267,-0.4131,-0.4133,-0.4303,-0.4303,-0.4233,-0.4064,-0.4064,-0.403,-0.3928,-0.3961,-0.3961,-0.3928,-0.3861,-0.3861,-0.3861,-0.3861,-0.3825,-0.3825,-0.3825,-0.3727,-0.3563,-0.3429,-0.3293,-0.3192,-0.3228,-0.3261,-0.3261,-0.3261,-0.3261,-0.3261,-0.3228,-0.3228,-0.3261,-0.3261,-0.3295,-0.3326,-0.346,-0.3563,-0.3596,-0.3761,-0.3861,-0.3928,-0.403,-0.4131,-0.4303,-0.4303,-0.4303,-0.42,-0.3288,-0.2515,-0.2382,-0.2147,-0.2045,-0.2047,-0.2045,-0.2114,-0.2114,-0.2114,-0.2054,-0.2136,-0.2257,-0.2423,-0.2561,-0.2734,-0.3104,-0.3812,-0.4068,-0.4304,-0.482,-0.5018,-0.5018,-0.5018,-0.5018,-0.5018,-0.5018,-0.5018,-0.5018,-0.5018,-0.5018,-0.5018,-0.5018,-0.5018,-0.5018,-0.5018,-0.5018,-0.5018,-0.5018,-0.5018,-0.5018,-0.5034,-0.5175,-0.5347,-0.5396,-0.5523,-0.5637,-0.5672,-0.5683,-0.5688,-0.8899,-0.9208,-0.9246,-0.9458,-0.9739,-0.9642,-0.94,-0.9013,-0.7681,-0.7185,-0.7269,-0.6597,-0.584,-0.5213,-0.4561,-0.43,-0.4303,-0.4303,-0.4267,-0.4303,-0.4303,-0.4303,-0.4267,-0.4267,-0.4267,-0.4233,-0.4097,-0.4097,-0.4233,-0.4064,-0.3961,-0.3995,-0.3995,-0.3928,-0.3825,-0.3825,-0.3792,-0.3792,-0.3758,-0.3558,-0.3228,-0.3395,-0.3464,-0.3464,-0.3464,-0.3464,-0.3464,-0.3295,-0.3295,-0.3464,-0.3464,-0.356,-0.3692,-0.3758,-0.3794,-0.3758,-0.3894,-0.4064,-0.4233,-0.4267,-0.4267,-0.4303,-0.4303,-0.4303,-0.4303,-0.4167,-0.3792,-0.3184,-0.2514,-0.2248,-0.2114,-0.2181,-0.2248,-0.2315,-0.2248,-0.2134,-0.2359,-0.2283,-0.2636,-0.3566,-0.3639,-0.3979,-0.4618,-0.4781,-0.4859,-0.4979,-0.5018,-0.5018,-0.5018,-0.5018,-0.5018,-0.5018,-0.5018,-0.5018,-0.5018,-0.5018,-0.5018,-0.5018,-0.5018,-0.5018,-0.5018,-0.5018,-0.5018,-0.5018,-0.5018,-0.5018,-0.504,-0.5124,-0.5243,-0.5405,-0.5491,-0.557,-0.5656,-0.5688,-0.5688,-0.9284,-0.9663,-0.9657,-0.9733,-0.9868,-0.982,-0.9556,-0.913,-0.8513,-0.7967,-0.7414,-0.6728,-0.6001,-0.5276,-0.5017,-0.4688,-0.43,-0.4303,-0.4303,-0.4303,-0.4303,-0.4303,-0.4303,-0.4303,-0.4303,-0.4303,-0.42,-0.42,-0.4267,-0.4233,-0.4131,-0.403,-0.4097,-0.4131,-0.4097,-0.4097,-0.403,-0.3928,-0.3928,-0.3792,-0.3591,-0.3627,-0.3661,-0.3661,-0.3661,-0.3658,-0.3661,-0.3594,-0.3594,-0.3661,-0.3661,-0.3692,-0.3792,-0.3861,-0.3894,-0.3928,-0.4064,-0.42,-0.4303,-0.4303,-0.4303,-0.4303,-0.4303,-0.4303,-0.4303,-0.4303,-0.4167,-0.3894,-0.3558,-0.3391,-0.3355,-0.3389,-0.3391,-0.3391,-0.3391,-0.3461,-0.3587,-0.3685,-0.3928,-0.4333,-0.4435,-0.4582,-0.4898,-0.5018,-0.5018,-0.5018,-0.5018,-0.5018,-0.5018,-0.5018,-0.5018,-0.5018,-0.5018,-0.5018,-0.5018,-0.5018,-0.5018,-0.5018,-0.5018,-0.5018,-0.5018,-0.5018,-0.5018,-0.5018,-0.5018,-0.5018,-0.5018,-0.5113,-0.5224,-0.5352,-0.5537,-0.5634,-0.5683,-0.5688,-0.5688,-0.962,-0.9884,-0.9884,-0.9884,-0.9879,-0.9852,-0.9479,-0.8901,-0.8648,-0.8025,-0.7176,-0.6396,-0.5804,-0.5309,-0.5113,-0.4755,-0.4334,-0.4303,-0.4303,-0.4303,-0.4303,-0.4303,-0.4303,-0.4303,-0.4303,-0.4303,-0.4303,-0.4303,-0.4303,-0.4303,-0.4233,-0.4131,-0.4233,-0.4303,-0.4303,-0.4303,-0.4233,-0.4097,-0.4064,-0.4041,-0.3999,-0.4004,-0.3955,-0.3863,-0.3861,-0.3861,-0.3861,-0.3825,-0.3825,-0.3828,-0.3861,-0.3894,-0.3928,-0.403,-0.4064,-0.4097,-0.4233,-0.4303,-0.4303,-0.4303,-0.4303,-0.4303,-0.4303,-0.4303,-0.4303,-0.4303,-0.4303,-0.4267,-0.4303,-0.4267,-0.4303,-0.4303,-0.4303,-0.4303,-0.4322,-0.4427,-0.451,-0.4665,-0.4717,-0.4833,-0.4848,-0.5018,-0.5018,-0.5018,-0.5018,-0.5018,-0.5018,-0.5018,-0.5018,-0.5018,-0.5018,-0.5018,-0.5018,-0.5018,-0.5018,-0.5018,-0.5018,-0.5018,-0.5018,-0.5018,-0.5018,-0.5018,-0.5018,-0.5018,-0.5018,-0.5018,-0.5018,-0.5102,-0.5246,-0.5355,-0.5529,-0.5645,-0.5683,-0.5686,-0.5688,-0.9884,-0.9884,-0.9879,-0.9868,-0.9863,-0.9685,-0.9088,-0.8293,-0.7428,-0.6819,-0.6544,-0.5771,-0.5375,-0.5312,-0.4691,-0.4334,-0.4303,-0.4303,-0.4303,-0.4303,-0.4303,-0.4303,-0.4303,-0.4303,-0.4303,-0.4303,-0.4303,-0.4303,-0.4303,-0.4303,-0.4303,-0.4303,-0.4303,-0.4303,-0.4303,-0.4303,-0.4303,-0.4267,-0.4275,-0.4318,-0.4444,-0.4458,-0.4309,-0.4059,-0.4002,-0.4012,-0.4007,-0.3897,-0.3863,-0.3997,-0.3997,-0.4064,-0.4267,-0.4267,-0.4267,-0.427,-0.4303,-0.4303,-0.4303,-0.4303,-0.4303,-0.4303,-0.4303,-0.4303,-0.4303,-0.4303,-0.4303,-0.4303,-0.4303,-0.4303,-0.4303,-0.4303,-0.4303,-0.4308,-0.4432,-0.4536,-0.4662,-0.4732,-0.4871,-0.4969,-0.5007,-0.5018,-0.5018,-0.5018,-0.5018,-0.5018,-0.5018,-0.5018,-0.5018,-0.5018,-0.5018,-0.5018,-0.5018,-0.5018,-0.5018,-0.5018,-0.5018,-0.5018,-0.5018,-0.5018,-0.5018,-0.5018,-0.5018,-0.5018,-0.5054,-0.5054,-0.5018,-0.5072,-0.521,-0.5347,-0.5464,-0.5553,-0.5669,-0.5686,-0.5688,-0.9884,-0.9868,-0.9766,-0.9701,-0.9669,-0.9443,-0.9066,-0.8608,-0.8317,-0.7989,-0.7545,-0.6531,-0.6001,-0.5968,-0.4791,-0.4303,-0.4303,-0.4303,-0.4303,-0.4303,-0.4303,-0.4303,-0.4303,-0.4303,-0.4303,-0.4303,-0.4303,-0.4303,-0.4303,-0.4303,-0.4303,-0.4303,-0.4303,-0.4303,-0.4303,-0.4303,-0.4303,-0.4308,-0.4368,-0.4465,-0.4512,-0.4583,-0.4564,-0.4458,-0.4453,-0.4453,-0.4453,-0.4312,-0.4269,-0.4304,-0.424,-0.4233,-0.4303,-0.4303,-0.4303,-0.4303,-0.4303,-0.4303,-0.4303,-0.4303,-0.4303,-0.4303,-0.4303,-0.4303,-0.4303,-0.4303,-0.4303,-0.4303,-0.4303,-0.4303,-0.4303,-0.4303,-0.4303,-0.4317,-0.4404,-0.4555,-0.4676,-0.476,-0.4844,-0.4947,-0.5018,-0.5018,-0.5018,-0.5018,-0.5018,-0.5018,-0.5018,-0.5018,-0.5018,-0.5018,-0.5018,-0.5018,-0.5018,-0.5018,-0.5018,-0.5018,-0.5018,-0.5018,-0.5018,-0.5018,-0.5018,-0.5015,-0.5015,-0.5054,-0.5093,-0.5171,-0.5212,-0.5272,-0.5368,-0.5377,-0.5492,-0.5605,-0.5667,-0.5808,-0.5772,-0.9809,-0.9776,-0.9556,-0.9459,-0.9432,-0.92,-0.8898,-0.8547,-0.8474,-0.8223,-0.7666,-0.6793,-0.6264,-0.5939,-0.502,-0.4495,-0.4334,-0.4303,-0.4303,-0.4303,-0.4303,-0.4303,-0.4303,-0.4303,-0.4303,-0.4303,-0.4303,-0.4303,-0.4303,-0.4303,-0.4303,-0.4303,-0.4303,-0.4303,-0.4303,-0.4303,-0.4314,-0.4363,-0.4433,-0.4536,-0.458,-0.4667,-0.4732,-0.4802,-0.477,-0.4764,-0.4692,-0.4608,-0.4564,-0.4553,-0.449,-0.4395,-0.4394,-0.4319,-0.4303,-0.4303,-0.4303,-0.4303,-0.4303,-0.4303,-0.4303,-0.4303,-0.4303,-0.4303,-0.4303,-0.4303,-0.4303,-0.4303,-0.4303,-0.4303,-0.4303,-0.4303,-0.4303,-0.4322,-0.4436,-0.4591,-0.4684,-0.4798,-0.4882,-0.4957,-0.5018,-0.5018,-0.5018,-0.5018,-0.5018,-0.5018,-0.5018,-0.5018,-0.5018,-0.5018,-0.5018,-0.5018,-0.5018,-0.5018,-0.5018,-0.5018,-0.5018,-0.5018,-0.5093,-0.5093,-0.5171,-0.5129,-0.5168,-0.5168,-0.5207,-0.5362,-0.543,-0.5486,-0.5502,-0.5501,-0.5644,-0.5792,-0.5869,-0.5924,-0.5938,-0.9614,-0.954,-0.9308,-0.9206,-0.9168,-0.8958,-0.848,-0.7942,-0.772,-0.7438,-0.6961,-0.6531,-0.6199,-0.554,-0.5342,-0.4918,-0.4464,-0.4334,-0.4303,-0.4303,-0.4303,-0.4303,-0.4303,-0.4303,-0.4303,-0.4303,-0.4303,-0.4303,-0.4303,-0.4303,-0.4303,-0.4303,-0.4303,-0.4303,-0.4303,-0.4306,-0.4355,-0.4471,-0.4512,-0.4627,-0.476,-0.479,-0.4844,-0.498,-0.4991,-0.4893,-0.472,-0.4698,-0.469,-0.4687,-0.4673,-0.4624,-0.4509,-0.4376,-0.4308,-0.4314,-0.4306,-0.4303,-0.4303,-0.4303,-0.4303,-0.4303,-0.4303,-0.4303,-0.4303,-0.4303,-0.4303,-0.4303,-0.4303,-0.4303,-0.4303,-0.4303,-0.4303,-0.4325,-0.4493,-0.4668,-0.4725,-0.4866,-0.5015,-0.5018,-0.5018,-0.5018,-0.5018,-0.5018,-0.5018,-0.5018,-0.5018,-0.5018,-0.5018,-0.5018,-0.5018,-0.5018,-0.5018,-0.5018,-0.5018,-0.5018,-0.5018,-0.5057,-0.5171,-0.5285,-0.5512,-0.5589,-0.578,-0.578,-0.5515,-0.5634,-0.5595,-0.565,-0.5659,-0.5693,-0.5847,-0.5981,-0.6024,-0.6133,-0.6236,-0.9319,-0.9292,-0.91,-0.8969,-0.8976,-0.8721,-0.8488,-0.8285,-0.8208,-0.8052,-0.7787,-0.7358,-0.7027,-0.6564,-0.5804,-0.518,-0.4954,-0.4528,-0.4303,-0.4303,-0.4303,-0.4303,-0.4303,-0.4303,-0.4303,-0.4303,-0.4303,-0.4303,-0.4303,-0.4303,-0.4303,-0.4303,-0.4303,-0.4303,-0.4303,-0.4306,-0.4357,-0.4501,-0.4588,-0.4678,-0.4793,-0.4879,-0.4941,-0.4971,-0.5018,-0.4974,-0.4906,-0.4822,-0.4779,-0.4776,-0.4734,-0.4671,-0.4618,-0.4517,-0.442,-0.4409,-0.4341,-0.4303,-0.4303,-0.4303,-0.4303,-0.4303,-0.4303,-0.4303,-0.4303,-0.4303,-0.4303,-0.4303,-0.4303,-0.4303,-0.4303,-0.4303,-0.4303,-0.4303,-0.4542,-0.4687,-0.4725,-0.4871,-0.4996,-0.5018,-0.5018,-0.5018,-0.5018,-0.5018,-0.5018,-0.5018,-0.5018,-0.5018,-0.5018,-0.5018,-0.5018,-0.5018,-0.5018,-0.5096,-0.5171,-0.5249,-0.5326,-0.5518,-0.567,-0.5744,-0.5935,-0.6353,-0.6507,-0.6318,-0.6054,-0.5825,-0.5828,-0.5811,-0.5861,-0.5833,-0.593,-0.6029,-0.6169,-0.63,-0.6452,-0.9077,-0.905,-0.8868,-0.8765,-0.8721,-0.8571,-0.8517,-0.8517,-0.8517,-0.8517,-0.8382,-0.8052,-0.7554,-0.6994,-0.61,-0.5411,-0.4921,-0.4464,-0.4303,-0.4303,-0.4303,-0.4303,-0.4303,-0.4303,-0.4303,-0.4303,-0.4303,-0.4303,-0.4303,-0.4303,-0.4303,-0.4303,-0.4303,-0.4303,-0.4308,-0.4346,-0.442,-0.4572,-0.4659,-0.4779,-0.489,-0.4938,-0.5018,-0.5018,-0.5018,-0.5018,-0.5012,-0.4939,-0.4901,-0.4844,-0.4787,-0.4761,-0.4747,-0.4643,-0.4553,-0.4498,-0.444,-0.4349,-0.4311,-0.4303,-0.4303,-0.4303,-0.4303,-0.4303,-0.4303,-0.4303,-0.4303,-0.4303,-0.4303,-0.4303,-0.4303,-0.4303,-0.4303,-0.4303,-0.4501,-0.4654,-0.4753,-0.4893,-0.5002,-0.5018,-0.5018,-0.5018,-0.5018,-0.5018,-0.5018,-0.5018,-0.5018,-0.5054,-0.5054,-0.5129,-0.5132,-0.5171,-0.5287,-0.5326,-0.5404,-0.5518,-0.5634,-0.5938,-0.6282,-0.636,-0.6514,-0.7234,-0.7617,-0.6934,-0.6556,-0.6138,-0.6064,-0.6064,-0.6061,-0.6066,-0.6199,-0.6277,-0.6444,-0.6549,-0.6679,-0.8879,-0.8846,-0.8608,-0.8533,-0.8533,-0.8517,-0.8517,-0.8517,-0.8517,-0.8517,-0.8479,-0.8447,-0.7787,-0.6793,-0.6564,-0.5877,-0.4728,-0.4628,-0.4631,-0.4597,-0.4498,-0.4431,-0.4334,-0.4303,-0.4303,-0.4303,-0.4303,-0.4303,-0.4303,-0.4303,-0.4303,-0.4303,-0.4303,-0.4303,-0.4319,-0.4443,-0.455,-0.4668,-0.476,-0.4844,-0.4957,-0.5015,-0.5018,-0.5018,-0.5018,-0.5018,-0.5015,-0.5004,-0.5007,-0.5002,-0.4898,-0.4806,-0.4787,-0.4766,-0.4649,-0.4523,-0.4523,-0.4412,-0.4338,-0.4306,-0.4303,-0.4303,-0.4303,-0.4303,-0.4303,-0.4303,-0.4303,-0.4303,-0.4303,-0.4303,-0.4303,-0.4303,-0.4303,-0.4314,-0.4451,-0.4577,-0.4798,-0.4893,-0.4944,-0.5012,-0.5018,-0.5018,-0.5018,-0.5018,-0.5057,-0.5057,-0.5057,-0.5171,-0.5246,-0.5323,-0.5401,-0.5443,-0.5482,-0.5556,-0.5595,-0.6093,-0.6247,-0.6672,-0.7169,-0.7544,-0.751,-0.8156,-0.8613,-0.7893,-0.7134,-0.6718,-0.6602,-0.6791,-0.683,-0.6897,-0.6889,-0.6731,-0.6884,-0.719,-0.7343,-0.8603,-0.8597,-0.8506,-0.8517,-0.8517,-0.8517,-0.8517,-0.8517,-0.8517,-0.8517,-0.8517,-0.8517,-0.8252,-0.7884,-0.7391,-0.6999,-0.6404,-0.6009,-0.584,-0.5774,-0.5282,-0.4758,-0.44,-0.4303,-0.4303,-0.4303,-0.4303,-0.4303,-0.4303,-0.4303,-0.4303,-0.4303,-0.4303,-0.4303,-0.4319,-0.4451,-0.4566,-0.469,-0.4773,-0.4858,-0.4996,-0.5018,-0.5018,-0.5018,-0.5018,-0.5018,-0.5018,-0.5018,-0.5018,-0.5018,-0.4952,-0.4969,-0.4911,-0.4849,-0.4762,-0.4708,-0.4569,-0.4498,-0.442,-0.4349,-0.4308,-0.4303,-0.4303,-0.4303,-0.4303,-0.4303,-0.4303,-0.4303,-0.4303,-0.4303,-0.4303,-0.4303,-0.4303,-0.4314,-0.4395,-0.4588,-0.476,-0.4822,-0.4874,-0.4996,-0.5012,-0.5018,-0.5057,-0.5132,-0.5207,-0.5246,-0.5326,-0.5446,-0.5521,-0.5518,-0.5595,-0.5556,-0.5595,-0.5673,-0.5902,-0.6475,-0.6973,-0.7442,-0.8127,-0.9112,-0.9074,-0.9226,-0.9458,-0.9268,-0.8246,-0.7676,-0.7902,-0.8131,-0.8055,-0.771,-0.7866,-0.7871,-0.8114,-0.8405,-0.8495,-0.8517,-0.8517,-0.8517,-0.8517,-0.8517,-0.8517,-0.8517,-0.8517,-0.8517,-0.8517,-0.8517,-0.8517,-0.8149,-0.7624,-0.7526,-0.7092,-0.6593,-0.656,-0.6461,-0.6264,-0.5606,-0.4951,-0.4431,-0.4303,-0.4303,-0.4303,-0.4303,-0.4303,-0.4303,-0.4303,-0.4303,-0.4303,-0.4303,-0.4303,-0.4314,-0.4503,-0.461,-0.4709,-0.4817,-0.4911,-0.5012,-0.5018,-0.5018,-0.5018,-0.5018,-0.5018,-0.5018,-0.5018,-0.5018,-0.5018,-0.5018,-0.5018,-0.5012,-0.4914,-0.4849,-0.4801,-0.4694,-0.4588,-0.4514,-0.4406,-0.4352,-0.4314,-0.4303,-0.4303,-0.4303,-0.4303,-0.4303,-0.4303,-0.4303,-0.4303,-0.4303,-0.4303,-0.4303,-0.4308,-0.436,-0.448,-0.4631,-0.4736,-0.4892,-0.5005,-0.5096,-0.5171,-0.5249,-0.5362,-0.5401,-0.5443,-0.5482,-0.5598,-0.5712,-0.5712,-0.575,-0.5789,-0.587,-0.5986,-0.6293,-0.6826,-0.7698,-0.8165,-0.9074,-1.0099,-1.0137,-1.0099,-0.9916,-0.9728,-0.9122,-0.878,-0.8894,-0.8894,-0.8551,-0.843,-0.8758,-0.8905,-0.8992,-0.9178,-0.9293,-0.8517,-0.8517,-0.8517,-0.8517,-0.8517,-0.8517,-0.8517,-0.8517,-0.8544,-0.8549,-0.8517,-0.8517,-0.8014,-0.6695,-0.7619,-0.7027,-0.5965,-0.6719,-0.656,-0.6301,-0.5771,-0.5216,-0.4631,-0.4367,-0.43,-0.4303,-0.4303,-0.4303,-0.4303,-0.4303,-0.4303,-0.4303,-0.4303,-0.4303,-0.4346,-0.4561,-0.4676,-0.4728,-0.4882,-0.4993,-0.5015,-0.5018,-0.5018,-0.5018,-0.5018,-0.5018,-0.5018,-0.5018,-0.5018,-0.5018,-0.5018,-0.5018,-0.5018,-0.5015,-0.493,-0.4839,-0.4782,-0.4708,-0.4604,-0.4616,-0.4517,-0.4395,-0.4367,-0.4334,-0.4334,-0.4303,-0.4303,-0.4303,-0.4303,-0.4303,-0.4303,-0.4303,-0.4303,-0.4303,-0.4308,-0.4352,-0.4498,-0.4692,-0.4872,-0.5078,-0.5181,-0.5366,-0.55,-0.5589,-0.5637,-0.5634,-0.5715,-0.587,-0.5948,-0.5983,-0.606,-0.6141,-0.6222,-0.63,-0.6721,-0.7138,-0.8127,-0.8998,-0.9981,-1.0738,-1.07,-1.055,-1.025,-0.9954,-0.9798,-0.9609,-0.9415,-0.9268,-0.9117,-0.9241,-0.9644,-0.9468,-0.9296,-0.9555,-0.9744,-0.8517,-0.8517,-0.8517,-0.8517,-0.8517,-0.8517,-0.8517,-0.8517,-0.8673,-0.8641,-0.8582,-0.8673,-0.8506,-0.8204,-0.8339,-0.8371,-0.7897,-0.7739,-0.7129,-0.6083,-0.6363,-0.5968,-0.5319,-0.4794,-0.44,-0.44,-0.4334,-0.4334,-0.4367,-0.4467,-0.43,-0.4334,-0.4464,-0.4303,-0.4341,-0.4707,-0.469,-0.4734,-0.4934,-0.5049,-0.5018,-0.5018,-0.5018,-0.5018,-0.5018,-0.5018,-0.5018,-0.5018,-0.5018,-0.5018,-0.5018,-0.5018,-0.5018,-0.5018,-0.4999,-0.4922,-0.4841,-0.477,-0.4773,-0.4976,-0.4999,-0.4554,-0.4755,-0.4855,-0.4334,-0.4303,-0.4303,-0.4303,-0.4303,-0.4303,-0.4303,-0.4303,-0.4334,-0.4334,-0.4334,-0.4375,-0.4554,-0.4677,-0.4778,-0.4983,-0.5204,-0.5397,-0.5444,-0.573,-0.5796,-0.5854,-0.5983,-0.6145,-0.618,-0.618,-0.6219,-0.63,-0.63,-0.6454,-0.718,-0.7748,-0.8846,-0.9642,-1.0545,-1.1074,-1.0999,-1.0999,-1.0663,-1.0663,-1.0775,-1.0507,-1.0094,-1.0319,-1.0288,-1.04,-1.0443,-1.0367,-1.0247,-1.0293,-1.0344,-0.8517,-0.8517,-0.8517,-0.8549,-0.8646,-0.8646,-0.8673,-0.8732,-0.8861,-0.8829,-0.8765,-0.8861,-0.8727,-0.8463,-0.8727,-0.8791,-0.8592,-0.8528,-0.8144,-0.7549,-0.7474,-0.7046,-0.6597,-0.591,-0.5451,-0.5319,-0.5286,-0.5286,-0.5286,-0.5219,-0.5186,-0.4858,-0.5087,-0.4937,-0.4693,-0.5223,-0.5324,-0.4984,-0.529,-0.5398,-0.5057,-0.5018,-0.5018,-0.5018,-0.5018,-0.5018,-0.5018,-0.5018,-0.5018,-0.5018,-0.5018,-0.5018,-0.5018,-0.5018,-0.5018,-0.5002,-0.4966,-0.5012,-0.5189,-0.54,-0.5517,-0.5269,-0.5342,-0.508,-0.4758,-0.4531,-0.4303,-0.4303,-0.4303,-0.4303,-0.4303,-0.4303,-0.4334,-0.4431,-0.4464,-0.4531,-0.4648,-0.4708,-0.4804,-0.5039,-0.5288,-0.546,-0.5637,-0.5811,-0.5904,-0.5945,-0.6096,-0.6222,-0.6222,-0.6257,-0.6257,-0.63,-0.63,-0.6606,-0.7484,-0.8432,-0.9609,-1.0288,-1.085,-1.1111,-1.1074,-1.1074,-1.108,-1.1074,-1.1037,-1.1037,-1.0812,-1.1117,-1.1117,-1.0925,-1.0879,-1.1139,-1.1212,-1.1004,-1.1118,-0.8517,-0.8544,-0.8544,-0.8646,-0.8802,-0.8835,-0.8894,-0.899,-0.9017,-0.9022,-0.9017,-0.9011,-0.8786,-0.8452,-0.8818,-0.8657,-0.8425,-0.8721,-0.8856,-0.8393,-0.8064,-0.7804,-0.7512,-0.7149,-0.6924,-0.6756,-0.6429,-0.6334,-0.6268,-0.6363,-0.5906,-0.5639,-0.6038,-0.5822,-0.5393,-0.6029,-0.636,-0.5631,-0.6076,-0.6012,-0.5401,-0.5287,-0.5249,-0.5018,-0.5018,-0.5018,-0.5018,-0.5018,-0.5018,-0.5018,-0.5018,-0.5018,-0.5018,-0.5018,-0.5132,-0.5171,-0.5273,-0.5481,-0.5857,-0.6051,-0.6251,-0.6469,-0.6067,-0.5639,-0.5415,-0.4921,-0.4628,-0.4495,-0.4461,-0.4367,-0.4334,-0.44,-0.45,-0.4597,-0.4625,-0.4691,-0.4779,-0.4798,-0.4943,-0.5149,-0.5355,-0.5548,-0.5696,-0.5858,-0.5946,-0.6054,-0.6176,-0.63,-0.63,-0.63,-0.63,-0.63,-0.63,-0.6984,-0.7863,-0.915,-1.0325,-1.0625,-1.1117,-1.1117,-1.1117,-1.1117,-1.1117,-1.1117,-1.1117,-1.1117,-1.1117,-1.1117,-1.1117,-1.1117,-1.1129,-1.1166,-1.1353,-1.16,-1.1787,-0.8608,-0.877,-0.877,-0.8829,-0.8958,-0.8958,-0.8985,-0.9017,-0.9177,-0.9145,-0.9049,-0.9177,-0.9177,-0.9107,-0.9139,-0.8914,-0.8716,-0.9049,-0.8894,-0.8269,-0.8102,-0.8236,-0.8134,-0.7999,-0.8032,-0.8102,-0.7507,-0.6789,-0.6597,-0.6396,-0.6465,-0.6297,-0.6433,-0.633,-0.6413,-0.6776,-0.7065,-0.6712,-0.7045,-0.6811,-0.6202,-0.5973,-0.5667,-0.5249,-0.5132,-0.5096,-0.5018,-0.5018,-0.5018,-0.5018,-0.5018,-0.5018,-0.5132,-0.5132,-0.544,-0.5783,-0.6012,-0.6259,-0.6713,-0.7247,-0.7091,-0.6768,-0.6756,-0.6724,-0.6231,-0.5609,-0.5279,-0.5113,-0.4885,-0.4625,-0.4561,-0.4728,-0.4731,-0.4761,-0.4794,-0.4861,-0.4997,-0.5052,-0.5044,-0.5201,-0.5405,-0.5564,-0.5666,-0.5803,-0.5925,-0.603,-0.6159,-0.6276,-0.63,-0.63,-0.63,-0.63,-0.63,-0.7253,-0.8318,-0.9755,-1.0925,-1.085,-1.1117,-1.1117,-1.1117,-1.1117,-1.1117,-1.1117,-1.1117,-1.1117,-1.1117,-1.1117,-1.1117,-1.1117,-1.1117,-1.1117,-1.1304,-1.1522,-1.1799,-0.8732,-0.8894,-0.8899,-0.899,-0.9145,-0.9145,-0.9183,-0.9285,-0.935,-0.9344,-0.9312,-0.9344,-0.9408,-0.9408,-0.9408,-0.9247,-0.9183,-0.928,-0.9087,-0.863,-0.8765,-0.8823,-0.8786,-0.8748,-0.8818,-0.8818,-0.8291,-0.7837,-0.7647,-0.7587,-0.7288,-0.7092,-0.726,-0.7307,-0.7177,-0.7702,-0.7699,-0.7696,-0.7799,-0.7698,-0.6969,-0.6853,-0.6395,-0.586,-0.555,-0.5401,-0.5057,-0.5018,-0.5018,-0.5093,-0.5398,-0.5592,-0.5744,-0.6051,-0.6318,-0.6468,-0.6769,-0.7226,-0.761,-0.8087,-0.8044,-0.7846,-0.7804,-0.7609,-0.7181,-0.6625,-0.6133,-0.6034,-0.5968,-0.5642,-0.5348,-0.5348,-0.5253,-0.5024,-0.499,-0.5123,-0.5193,-0.5256,-0.5289,-0.5289,-0.5426,-0.5532,-0.5521,-0.5661,-0.585,-0.6,-0.6173,-0.6245,-0.6293,-0.63,-0.6296,-0.6644,-0.6795,-0.7902,-0.8889,-1.0056,-1.108,-1.1117,-1.1117,-1.1117,-1.1117,-1.1117,-1.1117,-1.1117,-1.1117,-1.1117,-1.1117,-1.1117,-1.1117,-1.1117,-1.1117,-1.1141,-1.1256,-1.1449,-1.1724,-0.8926,-0.9049,-0.9049,-0.9177,-0.9338,-0.9338,-0.9408,-0.9478,-0.9478,-0.9478,-0.9478,-0.9478,-0.9478,-0.9478,-0.9478,-0.9478,-0.9478,-0.9478,-0.9414,-0.9382,-0.9382,-0.9382,-0.9376,-0.9408,-0.935,-0.9151,-0.9075,-0.9119,-0.87,-0.8538,-0.8242,-0.8014,-0.8317,-0.8202,-0.7776,-0.8449,-0.8416,-0.8477,-0.8533,-0.8504,-0.7927,-0.754,-0.7195,-0.6546,-0.6433,-0.6167,-0.5783,-0.5744,-0.5705,-0.586,-0.6128,-0.6472,-0.6626,-0.731,-0.7574,-0.7268,-0.7723,-0.8226,-0.8618,-0.8764,-0.8819,-0.8679,-0.8425,-0.8258,-0.8032,-0.7507,-0.7022,-0.6957,-0.6859,-0.6658,-0.6231,-0.6199,-0.6038,-0.5811,-0.5679,-0.5583,-0.5617,-0.5683,-0.5683,-0.565,-0.5591,-0.5685,-0.5873,-0.6379,-0.6726,-0.646,-0.6603,-0.6409,-0.6451,-0.6296,-0.6412,-0.6988,-0.7561,-0.8661,-0.9571,-1.0288,-1.0962,-1.1117,-1.1117,-1.1117,-1.1117,-1.1117,-1.1117,-1.1117,-1.1117,-1.1117,-1.1117,-1.1117,-1.1117,-1.1117,-1.1117,-1.1148,-1.1214,-1.1486,-1.1796,-0.9081,-0.9274,-0.9274,-0.9344,-0.9478,-0.9478,-0.9478,-0.9478,-0.9478,-0.9478,-0.9478,-0.9478,-0.9478,-0.9478,-0.9478,-0.9478,-0.9478,-0.9478,-0.9478,-0.9478,-0.9478,-0.9478,-0.9478,-0.9478,-0.9478,-0.9382,-0.9338,-0.9177,-0.9022,-0.8958,-0.8829,-0.8635,-0.8619,-0.8684,-0.8547,-0.8946,-0.9234,-0.9348,-0.959,-0.9344,-0.8618,-0.7961,-0.7617,-0.7387,-0.7349,-0.7195,-0.6965,-0.6892,-0.6965,-0.7046,-0.7238,-0.7349,-0.7502,-0.8271,-0.8803,-0.8879,-0.8992,-0.9077,-0.9485,-0.9522,-0.9326,-0.9125,-0.8882,-0.8856,-0.8657,-0.8291,-0.7674,-0.6924,-0.712,-0.7214,-0.7149,-0.7153,-0.712,-0.699,-0.6798,-0.6564,-0.6433,-0.6272,-0.6272,-0.64,-0.6437,-0.6453,-0.6523,-0.7164,-0.7637,-0.73,-0.6994,-0.6779,-0.6606,-0.6528,-0.6834,-0.7446,-0.8169,-0.9231,-0.9986,-1.0738,-1.0925,-1.1117,-1.1117,-1.1117,-1.1117,-1.1117,-1.1117,-1.1117,-1.1117,-1.1117,-1.1117,-1.1117,-1.1117,-1.1117,-1.1117,-1.1117,-1.1123,-1.1479,-1.1862,-0.9344,-0.9408,-0.9408,-0.9446,-0.9478,-0.9478,-0.9478,-0.9478,-0.9478,-0.9478,-0.9478,-0.9478,-0.9478,-0.9478,-0.9478,-0.9478,-0.9478,-0.9478,-0.9478,-0.9478,-0.9478,-0.9478,-0.9478,-0.9478,-0.9478,-0.9478,-0.9446,-0.9414,-0.9253,-0.9087,-0.8958,-0.8926,-0.8937,-0.8952,-0.9013,-0.9266,-0.9411,-0.9583,-0.975,-0.9717,-0.9387,-0.9003,-0.8613,-0.8232,-0.8199,-0.7965,-0.7693,-0.7502,-0.7574,-0.7727,-0.8037,-0.8423,-0.8689,-0.9339,-0.9943,-1.0083,-0.992,-0.9913,-1.0032,-0.9937,-0.965,-0.9409,-0.928,-0.9253,-0.9221,-0.8985,-0.8721,-0.8463,-0.8463,-0.8328,-0.7999,-0.7999,-0.7739,-0.7614,-0.7619,-0.7354,-0.712,-0.7022,-0.699,-0.7116,-0.7293,-0.7409,-0.7493,-0.7853,-0.8091,-0.7647,-0.7377,-0.7148,-0.7026,-0.6872,-0.7369,-0.8131,-0.8889,-0.976,-1.0363,-1.0962,-1.0999,-1.1117,-1.1117,-1.1117,-1.1117,-1.1117,-1.1117,-1.1117,-1.1117,-1.1117,-1.1117,-1.1117,-1.1117,-1.1117,-1.1117,-1.1117,-1.1154,-1.1519,-1.1928,-0.9478,-0.9478,-0.9478,-0.9478,-0.9478,-0.9478,-0.9478,-0.9478,-0.9478,-0.9478,-0.9478,-0.9478,-0.9478,-0.9478,-0.9478,-0.9478,-0.9478,-0.9478,-0.9478,-0.9478,-0.9478,-0.9478,-0.9478,-0.9478,-0.9478,-0.9478,-0.9478,-0.9452,-0.9414,-0.9285,-0.9151,-0.9081,-0.9081,-0.9076,-0.9125,-0.9318,-0.9545,-0.9685,-0.9841,-0.9873,-0.9809,-0.9809,-0.9463,-0.9198,-0.897,-0.8775,-0.8309,-0.8342,-0.8452,-0.868,-0.9069,-0.9453,-0.9636,-1.0094,-1.0418,-1.0487,-1.0291,-1.0184,-1.0111,-0.9982,-0.9781,-0.9612,-0.9478,-0.9446,-0.9446,-0.9478,-0.9478,-0.9285,-0.9318,-0.9081,-0.8882,-0.8753,-0.856,-0.8301,-0.8112,-0.7874,-0.7712,-0.7707,-0.7674,-0.7772,-0.8055,-0.8606,-0.8666,-0.871,-0.8547,-0.8057,-0.7734,-0.7566,-0.7518,-0.7446,-0.8055,-0.8813,-0.9306,-1.0062,-1.0625,-1.1074,-1.1111,-1.1117,-1.1117,-1.1117,-1.1117,-1.1117,-1.1117,-1.1117,-1.1117,-1.1117,-1.1117,-1.1117,-1.1117,-1.1117,-1.1117,-1.1117,-1.125,-1.1603,-1.2,-0.9478,-0.9478,-0.9478,-0.9478,-0.9478,-0.9478,-0.9478,-0.9478,-0.9478,-0.9478,-0.9478,-0.9478,-0.9478,-0.9478,-0.9478,-0.9478,-0.9478,-0.9478,-0.9478,-0.9478,-0.9478,-0.9478,-0.9478,-0.9478,-0.9478,-0.9478,-0.9478,-0.9478,-0.9478,-0.9446,-0.9344,-0.93,-0.9274,-0.9151,-0.9178,-0.9388,-0.9694,-0.9855,-0.9981,-0.9954,-0.996,-0.996,-0.9884,-0.9884,-0.9954,-1.0062,-0.9986,-0.9906,-0.9943,-0.9976,-1.0132,-1.025,-1.0357,-1.0625,-1.0736,-1.0555,-1.0426,-1.0239,-1.0039,-0.9901,-0.9736,-0.9568,-0.9478,-0.9478,-0.9478,-0.9478,-0.9478,-0.9478,-0.9478,-0.9478,-0.9382,-0.9388,-0.9151,-0.9022,-0.8759,-0.8662,-0.8528,-0.8425,-0.8425,-0.8452,-0.8728,-0.9208,-0.9604,-0.9585,-0.9375,-0.8896,-0.8515,-0.8356,-0.8356,-0.8399,-0.8889,-0.9458,-0.9728,-1.0293,-1.0887,-1.1117,-1.1117,-1.1117,-1.1117,-1.1117,-1.1117,-1.1117,-1.1117,-1.1117,-1.1117,-1.1117,-1.1117,-1.1117,-1.1117,-1.1117,-1.1123,-1.1141,-1.1304,-1.1603,-1.2036,-0.9478,-0.9478,-0.9478,-0.9478,-0.9478,-0.9478,-0.9478,-0.9478,-0.9478,-0.9478,-0.9478,-0.9478,-0.9478,-0.9478,-0.9478,-0.9478,-0.9478,-0.9478,-0.9478,-0.9478,-0.9478,-0.9478,-0.9478,-0.9478,-0.9478,-0.9478,-0.9478,-0.9478,-0.9478,-0.9478,-0.9478,-0.9408,-0.9408,-0.9312,-0.9352,-0.9525,-0.9879,-1.0159,-1.0255,-1.0255,-1.0255,-1.0255,-1.0255,-1.0293,-1.0293,-1.0368,-1.0368,-1.0438,-1.055,-1.0625,-1.0663,-1.0738,-1.0812,-1.0931,-1.0819,-1.0575,-1.0383,-1.0166,-0.9907,-0.9769,-0.958,-0.9538,-0.9478,-0.9478,-0.9478,-0.9478,-0.9478,-0.9478,-0.9478,-0.9478,-0.9478,-0.9484,-0.9414,-0.9478,-0.9414,-0.928,-0.9183,-0.9017,-0.903,-0.8982,-0.9267,-0.9685,-1.0035,-1.036,-1.0088,-0.9787,-0.9429,-0.9155,-0.9155,-0.9231,-0.9647,-0.9986,-1.025,-1.0443,-1.1043,-1.1117,-1.1117,-1.1117,-1.1117,-1.1117,-1.1117,-1.1117,-1.1117,-1.1117,-1.1117,-1.1117,-1.1117,-1.1117,-1.1117,-1.1117,-1.1148,-1.1196,-1.1375,-1.1621,-1.1988,-0.9478,-0.9478,-0.9478,-0.9478,-0.9478,-0.9478,-0.9478,-0.9478,-0.9478,-0.9478,-0.9478,-0.9478,-0.9478,-0.9478,-0.9478,-0.9478,-0.9478,-0.9478,-0.9478,-0.9478,-0.9478,-0.9478,-0.9478,-0.9478,-0.9478,-0.9478,-0.9478,-0.9478,-0.9478,-0.9478,-0.9478,-0.9478,-0.9478,-0.9414,-0.9462,-0.9689,-1.0093,-1.0399,-1.0513,-1.0513,-1.0475,-1.0475,-1.0481,-1.0481,-1.0519,-1.0588,-1.0625,-1.0663,-1.0775,-1.085,-1.0887,-1.0962,-1.1037,-1.1069,-1.0888,-1.0635,-1.0388,-1.0182,-0.9835,-0.9622,-0.949,-0.9478,-0.9478,-0.9478,-0.9478,-0.9478,-0.9478,-0.9478,-0.9478,-0.9478,-0.9478,-0.9478,-0.9478,-0.9478,-0.9478,-0.9382,-0.9414,-0.9318,-0.9432,-0.953,-0.9802,-0.9942,-1.0353,-1.0641,-1.0615,-1.0416,-1.0312,-1.0062,-1.0019,-1.0094,-1.025,-1.0513,-1.07,-1.0887,-1.1117,-1.1117,-1.1117,-1.1117,-1.1117,-1.1117,-1.1117,-1.1117,-1.1117,-1.1117,-1.1117,-1.1117,-1.1117,-1.1117,-1.1117,-1.1117,-1.1148,-1.1184,-1.1363,-1.1603,-1.1874,-0.9478,-0.9478,-0.9478,-0.9478,-0.9478,-0.9478,-0.9478,-0.9478,-0.9478,-0.9478,-0.9478,-0.9478,-0.9478,-0.9478,-0.9478,-0.9478,-0.9478,-0.9478,-0.9478,-0.9478,-0.9478,-0.9478,-0.9478,-0.9478,-0.9478,-0.9478,-0.9478,-0.9478,-0.9478,-0.9478,-0.9478,-0.9478,-0.9478,-0.9508,-0.9538,-0.9824,-1.0159,-1.0464,-1.0522,-1.055,-1.0588,-1.0588,-1.0588,-1.0625,-1.0738,-1.0775,-1.0812,-1.0887,-1.0999,-1.1043,-1.1043,-1.108,-1.1117,-1.1117,-1.0918,-1.0534,-1.0439,-1.0153,-0.9665,-0.9566,-0.9548,-0.951,-0.9478,-0.9478,-0.9478,-0.9478,-0.9478,-0.9478,-0.9478,-0.9478,-0.9478,-0.9478,-0.9478,-0.9478,-0.9478,-0.9478,-0.9478,-0.9516,-0.9588,-0.9763,-0.9907,-1.0094,-1.0527,-1.0857,-1.1009,-1.1025,-1.1074,-1.0962,-1.0732,-1.07,-1.0738,-1.0812,-1.0925,-1.0999,-1.1117,-1.1117,-1.1117,-1.1117,-1.1117,-1.1117,-1.1117,-1.1117,-1.1117,-1.1117,-1.1149,-1.1186,-1.1149,-1.1117,-1.1117,-1.1117,-1.1117,-1.1184,-1.1357,-1.1549,-1.1772,-0.9478,-0.9478,-0.9478,-0.9478,-0.9478,-0.9478,-0.9478,-0.9478,-0.9478,-0.9478,-0.9478,-0.9478,-0.9478,-0.9478,-0.9478,-0.9478,-0.9478,-0.9478,-0.9478,-0.9478,-0.9478,-0.9478,-0.9478,-0.9478,-0.9478,-0.9478,-0.9478,-0.951,-0.9478,-0.951,-0.9478,-0.9478,-0.9682,-0.9586,-0.9778,-1.0073,-1.0349,-1.0609,-1.0769,-1.0881,-1.0887,-1.0925,-1.0925,-1.0956,-1.1068,-1.1105,-1.1074,-1.1186,-1.1186,-1.1149,-1.1149,-1.1186,-1.1217,-1.1211,-1.1137,-1.0966,-1.0951,-1.0942,-1.0676,-1.0503,-0.9951,-0.9734,-0.9606,-0.9638,-0.9516,-0.9478,-0.9478,-0.951,-0.9542,-0.9542,-0.9478,-0.9478,-0.9478,-0.9478,-0.9478,-0.9478,-0.9478,-0.9516,-0.9588,-0.9841,-1.0027,-1.0388,-1.0834,-1.0966,-1.1075,-1.1117,-1.1117,-1.1117,-1.0962,-1.0962,-1.1005,-1.1005,-1.1074,-1.108,-1.1117,-1.1117,-1.1117,-1.1117,-1.1117,-1.1117,-1.1117,-1.1155,-1.1223,-1.126,-1.1298,-1.1292,-1.1298,-1.126,-1.1155,-1.1117,-1.1155,-1.1117,-1.1238,-1.1369,-1.1555,-0.9478,-0.9478,-0.9478,-0.9478,-0.9478,-0.9478,-0.9478,-0.9478,-0.9478,-0.9478,-0.9478,-0.9478,-0.9478,-0.9478,-0.9478,-0.9478,-0.9478,-0.9478,-0.9478,-0.9478,-0.9478,-0.9478,-0.9478,-0.9542,-0.9478,-0.951,-0.9542,-0.9574,-0.9856,-0.9606,-0.967,-0.9888,-1.0072,-1.0398,-1.0477,-1.0497,-1.043,-1.0671,-1.0918,-1.126,-1.1409,-1.1558,-1.1706,-1.1885,-1.199,-1.1879,-1.1626,-1.1484,-1.1372,-1.1298,-1.1335,-1.1484,-1.1545,-1.1664,-1.1696,-1.1716,-1.1469,-1.1437,-1.128,-1.1118,-1.0654,-1.0376,-1.0193,-1.0072,-0.9919,-0.9919,-1.0104,-1.0104,-0.9798,-0.9734,-0.9766,-0.9734,-0.9606,-0.9606,-0.9606,-0.9606,-0.9624,-0.9637,-0.9816,-1.0059,-1.0286,-1.0707,-1.0997,-1.1045,-1.1111,-1.1117,-1.1117,-1.1117,-1.1117,-1.1111,-1.1117,-1.1117,-1.1117,-1.1117,-1.1117,-1.1117,-1.1117,-1.1117,-1.1117,-1.1149,-1.1223,-1.126,-1.1372,-1.1446,-1.1484,-1.1484,-1.1484,-1.1446,-1.1335,-1.1267,-1.1229,-1.1192,-1.1117,-1.1244,-1.1413,-0.9478,-0.9478,-0.9478,-0.9478,-0.9478,-0.9478,-0.9478,-0.9478,-0.9478,-0.9478,-0.9478,-0.9478,-0.9478,-0.9478,-0.9478,-0.9542,-0.9638,-0.9638,-0.9728,-0.976,-0.9951,-0.9824,-0.9792,-0.9792,-0.9945,-0.976,-0.9792,-1.0231,-1.0453,-1.0199,-1.0168,-1.051,-1.093,-1.1129,-1.1031,-1.089,-1.0814,-1.1114,-1.1486,-1.1883,-1.2218,-1.2335,-1.2622,-1.2879,-1.3018,-1.2762,-1.2512,-1.2328,-1.1966,-1.1892,-1.1959,-1.2224,-1.243,-1.2713,-1.2674,-1.2438,-1.1919,-1.1735,-1.1787,-1.1703,-1.1516,-1.1368,-1.1516,-1.118,-1.0755,-1.0541,-1.0692,-1.0717,-1.0503,-1.0358,-1.0301,-1.0047,-0.9792,-0.9792,-0.9792,-0.981,-0.9841,-0.9951,-1.015,-1.0357,-1.0585,-1.0852,-1.1033,-1.1111,-1.1155,-1.1186,-1.1186,-1.1223,-1.1223,-1.1111,-1.1111,-1.1117,-1.1117,-1.1117,-1.1117,-1.1111,-1.1117,-1.1117,-1.1186,-1.1223,-1.1298,-1.1409,-1.1521,-1.1632,-1.1669,-1.1706,-1.1706,-1.1632,-1.1595,-1.1521,-1.1409,-1.1335,-1.126,-1.1192,-1.1338,-0.9478,-0.9478,-0.9478,-0.9478,-0.9478,-0.9478,-0.9478,-0.9478,-0.9478,-0.9478,-0.9478,-0.9478,-0.9478,-0.9478,-0.9478,-0.9798,-1.0047,-1.0295,-1.0598,-1.0685,-1.0717,-1.0843,-1.0874,-1.0811,-1.0867,-1.0867,-1.0905,-1.0874,-1.1118,-1.0899,-1.093,-1.1267,-1.1547,-1.1609,-1.16,-1.1488,-1.1706,-1.1978,-1.2377,-1.2722,-1.3018,-1.3135,-1.3426,-1.3608,-1.3716,-1.3462,-1.3244,-1.3171,-1.2915,-1.2915,-1.2989,-1.3135,-1.315,-1.3273,-1.3267,-1.3168,-1.2718,-1.2389,-1.2726,-1.2481,-1.2205,-1.232,-1.2565,-1.2166,-1.1648,-1.1274,-1.1392,-1.1361,-1.1111,-1.0937,-1.085,-1.0661,-1.0408,-1.032,-1.0403,-1.066,-1.0701,-1.0784,-1.0932,-1.0902,-1.1103,-1.0924,-1.1099,-1.1155,-1.1192,-1.1223,-1.1298,-1.1335,-1.1335,-1.1223,-1.1223,-1.1223,-1.1155,-1.1192,-1.1149,-1.1149,-1.1111,-1.1117,-1.1223,-1.1335,-1.1446,-1.1558,-1.17,-1.1811,-1.1892,-1.1892,-1.1929,-1.1855,-1.1781,-1.1706,-1.1595,-1.1484,-1.1409,-1.1372,-1.1347,-0.9478,-0.9478,-0.9478,-0.9478,-0.9478,-0.9478,-0.9606,-0.9798,-0.9606,-0.9478,-0.9478,-0.9478,-0.9478,-0.9542,-0.9798,-1.011,-1.0453,-1.0787,-1.1087,-1.1267,-1.1578,-1.1423,-1.1485,-1.1547,-1.1423,-1.1516,-1.1578,-1.1516,-1.1826,-1.2166,-1.2258,-1.1919,-1.2074,-1.2258,-1.2398,-1.2703,-1.3048,-1.3186,-1.3341,-1.3566,-1.3772,-1.3962,-1.4078,-1.4302,-1.4338,-1.423,-1.3962,-1.3934,-1.3818,-1.3673,-1.3673,-1.3926,-1.395,-1.3947,-1.3826,-1.3705,-1.3255,-1.3097,-1.326,-1.31,-1.2948,-1.2978,-1.3221,-1.3009,-1.2573,-1.2135,-1.2258,-1.2258,-1.1795,-1.1423,-1.1423,-1.1368,-1.1149,-1.0937,-1.1304,-1.165,-1.1715,-1.1767,-1.171,-1.1616,-1.1463,-1.1175,-1.1117,-1.1229,-1.1223,-1.1335,-1.1409,-1.1521,-1.1484,-1.1372,-1.1409,-1.1446,-1.1335,-1.1267,-1.1223,-1.1223,-1.1223,-1.1298,-1.1409,-1.1521,-1.1595,-1.1744,-1.1892,-1.2003,-1.2114,-1.2114,-1.2077,-1.204,-1.1966,-1.1892,-1.1818,-1.1781,-1.1669,-1.1595,-1.1608,-0.9478,-0.951,-0.9548,-0.9638,-0.958,-0.9696,-1.0072,-1.0485,-1.0009,-0.9696,-0.976,-0.9702,-0.9792,-1.004,-1.0383,-1.0667,-1.1038,-1.1399,-1.1734,-1.1671,-1.195,-1.1981,-1.195,-1.1695,-1.2043,-1.1826,-1.1826,-1.2251,-1.2634,-1.2887,-1.2917,-1.2634,-1.3039,-1.3199,-1.3197,-1.3545,-1.3856,-1.4123,-1.3939,-1.3885,-1.451,-1.4796,-1.5018,-1.5549,-1.5549,-1.539,-1.4903,-1.4609,-1.4386,-1.4178,-1.4214,-1.4681,-1.4717,-1.4676,-1.4495,-1.4177,-1.3763,-1.3548,-1.3515,-1.3351,-1.3381,-1.339,-1.348,-1.3381,-1.3039,-1.2787,-1.2818,-1.2879,-1.2473,-1.2135,-1.2043,-1.2243,-1.2203,-1.2192,-1.2401,-1.2725,-1.2928,-1.2855,-1.2687,-1.255,-1.2263,-1.199,-1.199,-1.2137,-1.2204,-1.1879,-1.1737,-1.1892,-1.1781,-1.1669,-1.1669,-1.17,-1.1521,-1.1446,-1.1416,-1.1409,-1.1409,-1.1484,-1.1595,-1.1706,-1.1818,-1.1929,-1.2083,-1.2157,-1.2194,-1.2231,-1.2231,-1.2194,-1.2114,-1.2077,-1.204,-1.204,-1.1966,-1.1855,-1.1861,-0.9478,-0.9542,-1.0047,-1.0269,-1.0326,-1.0811,-1.1087,-1.1243,-1.1118,-1.1024,-1.1024,-1.0993,-1.0961,-1.0937,-1.1118,-1.143,-1.1919,-1.2104,-1.2573,-1.2765,-1.2856,-1.2726,-1.2948,-1.2757,-1.2887,-1.3009,-1.3039,-1.297,-1.3199,-1.3411,-1.3472,-1.3282,-1.3541,-1.3541,-1.3536,-1.3927,-1.429,-1.4675,-1.4698,-1.4702,-1.5296,-1.5505,-1.5691,-1.5805,-1.5735,-1.5735,-1.5434,-1.5434,-1.5399,-1.5363,-1.539,-1.5497,-1.5507,-1.536,-1.5041,-1.462,-1.4311,-1.3982,-1.3731,-1.364,-1.364,-1.3592,-1.3554,-1.3528,-1.342,-1.3321,-1.3277,-1.3346,-1.3272,-1.2936,-1.2831,-1.3111,-1.3328,-1.3404,-1.3534,-1.3843,-1.4122,-1.3888,-1.3671,-1.343,-1.3128,-1.2974,-1.2974,-1.3004,-1.3077,-1.2931,-1.2682,-1.2579,-1.2365,-1.2224,-1.207,-1.2033,-1.1744,-1.1632,-1.1632,-1.1639,-1.1632,-1.1669,-1.1818,-1.1892,-1.2003,-1.212,-1.2194,-1.2231,-1.2305,-1.2305,-1.2305,-1.2268,-1.2231,-1.2187,-1.2187,-1.215,-1.2194,-1.212,-1.215,-0.9478,-0.9612,-1.032,-1.0818,-1.1125,-1.1547,-1.1795,-1.1943,-1.2043,-1.2197,-1.2235,-1.1826,-1.1516,-1.164,-1.1795,-1.2074,-1.2565,-1.2848,-1.3039,-1.3381,-1.3511,-1.342,-1.348,-1.3511,-1.339,-1.348,-1.358,-1.358,-1.364,-1.37,-1.3731,-1.3722,-1.3692,-1.3688,-1.3701,-1.4006,-1.4403,-1.4798,-1.5186,-1.5558,-1.5939,-1.5903,-1.5805,-1.5805,-1.5805,-1.5805,-1.5805,-1.5805,-1.5832,-1.5903,-1.5964,-1.6,-1.5913,-1.5746,-1.5509,-1.5143,-1.4781,-1.4342,-1.4083,-1.3974,-1.3974,-1.3952,-1.4191,-1.4336,-1.4402,-1.4308,-1.4107,-1.4146,-1.4339,-1.4104,-1.409,-1.4298,-1.4333,-1.4395,-1.4668,-1.5015,-1.4951,-1.4755,-1.4572,-1.4387,-1.3998,-1.3477,-1.3513,-1.3694,-1.3759,-1.3795,-1.3585,-1.3585,-1.331,-1.2915,-1.2732,-1.2549,-1.2328,-1.1966,-1.1818,-1.1818,-1.1818,-1.1892,-1.2003,-1.2077,-1.2157,-1.2231,-1.2305,-1.2305,-1.2305,-1.2305,-1.2305,-1.2305,-1.2305,-1.2268,-1.2268,-1.2268,-1.2305,-1.2305,-1.2268,-0.9638,-0.9824,-1.0622,-1.1361,-1.195,-1.2205,-1.2443,-1.2696,-1.2887,-1.3169,-1.3351,-1.2351,-1.1881,-1.1981,-1.2297,-1.2512,-1.2787,-1.3161,-1.3442,-1.3541,-1.358,-1.364,-1.3631,-1.3601,-1.3631,-1.367,-1.3769,-1.3791,-1.3821,-1.3881,-1.395,-1.401,-1.3998,-1.3985,-1.4005,-1.4271,-1.4667,-1.5101,-1.5476,-1.5851,-1.5974,-1.6035,-1.5938,-1.5867,-1.5867,-1.5832,-1.5841,-1.5911,-1.5973,-1.607,-1.6175,-1.6211,-1.6358,-1.6248,-1.5974,-1.567,-1.5476,-1.5061,-1.4715,-1.4626,-1.4626,-1.4737,-1.5088,-1.5204,-1.5227,-1.5177,-1.4962,-1.5021,-1.5186,-1.5145,-1.5121,-1.5201,-1.521,-1.5313,-1.5675,-1.5898,-1.5722,-1.5535,-1.5419,-1.5267,-1.4859,-1.4271,-1.4343,-1.4522,-1.4557,-1.4593,-1.4557,-1.4601,-1.4494,-1.4027,-1.3702,-1.3448,-1.323,-1.2799,-1.2218,-1.2114,-1.215,-1.204,-1.215,-1.2231,-1.2305,-1.2305,-1.2305,-1.2305,-1.2305,-1.2305,-1.2305,-1.2305,-1.2305,-1.2305,-1.2305,-1.2305,-1.2305,-1.2305,-1.2305,-1.0225,-1.0773,-1.1485,-1.2166,-1.2787,-1.3351,-1.3662,-1.37,-1.3731,-1.3821,-1.3791,-1.3731,-1.342,-1.31,-1.3199,-1.329,-1.326,-1.3541,-1.361,-1.3709,-1.3731,-1.3821,-1.3851,-1.3821,-1.3881,-1.392,-1.392,-1.395,-1.398,-1.401,-1.401,-1.404,-1.404,-1.4169,-1.4515,-1.4771,-1.5133,-1.5546,-1.5848,-1.621,-1.6227,-1.6246,-1.6175,-1.6132,-1.6132,-1.6105,-1.6105,-1.614,-1.6202,-1.6237,-1.6368,-1.6447,-1.6645,-1.6933,-1.6825,-1.6568,-1.6328,-1.6057,-1.5771,-1.5579,-1.556,-1.5515,-1.5734,-1.5714,-1.5787,-1.596,-1.5812,-1.5788,-1.5824,-1.5438,-1.5414,-1.5637,-1.5751,-1.595,-1.6217,-1.6258,-1.6175,-1.6105,-1.6009,-1.6053,-1.5974,-1.5745,-1.5816,-1.586,-1.5789,-1.5719,-1.5463,-1.5463,-1.5073,-1.4824,-1.4681,-1.4386,-1.4135,-1.3273,-1.2556,-1.2549,-1.2556,-1.2409,-1.2335,-1.2519,-1.2526,-1.2305,-1.2305,-1.2305,-1.2305,-1.2305,-1.2305,-1.2305,-1.2305,-1.2305,-1.2305,-1.2305,-1.2305,-1.2305,-1.2305]},{"header":{"parameterUnit":"m.s-1","parameterCategory":1,"la1":31.0,"la2":29.5877,"lo1":-88.7671,"lo2":-86.6584,"dy":0.0162,"dx":0.0185,"nx":115,"ny":88,"refTime":"2023-08-28T12:00:00:Z","depth":0,"parameterNumber":3,"parameterNumberName":"V-component_of_WINDS"},"data":[0.0,0.0,0.0,0.0,0.0,0.0,0.0,0.0,0.0,0.0,0.0,0.0,0.0,0.0,0.0,0.0,0.0,0.0,0.0,0.0,0.0,0.0,0.0,0.0,0.0,0.0,0.0,0.0,0.0,0.0,0.0,0.0,0.0,0.0,0.0,0.0,0.0,0.0,0.0,0.0,0.0,0.0,0.0,0.0,0.0,0.0,0.0,0.0,0.0,0.0,0.0,0.0,0.0,0.0,0.0,0.0,0.0,0.0,0.0,0.0,0.0,0.0,0.0,0.0,0.0,0.0,0.0,0.0,0.0,0.0,0.0,0.0,0.0,0.0,0.0,0.0,0.0,0.0,0.0,0.0,0.0,0.0,0.0,0.0,0.0,0.0,0.0,0.0,0.0,0.0,0.0,0.0,0.0,0.0,0.0,0.0,0.0,0.0,0.0,0.0,0.0,0.0,0.0,0.0,0.0,0.0,0.0,0.0,0.0,0.0,0.0,0.0,0.0,0.0,0.0,0.0,0.0,0.0,0.0,0.0,0.0,0.0,0.0,0.0,0.0,0.0,0.0,0.0,0.0,0.0,0.0,0.0,0.0,0.0,0.0,0.0,0.0,0.0,0.0,0.0,0.0,0.0,0.0,0.0,0.0,0.0,0.0,0.0,0.0,0.0,0.0,0.0,0.0,0.0,0.0,0.0,0.0,0.0,0.0,0.0,0.0,0.0,0.0,0.0,0.0,0.0,0.0,0.0,0.0,0.0,0.0,0.0,0.0,0.0,0.0,0.0,0.0,0.0,0.0,0.0,0.0,0.0,0.0,0.0,0.0,0.0,0.0,0.0,0.0,0.0,0.0,0.0,0.0,0.0,0.0,0.0,0.0,0.0,0.0,0.0,0.0,0.0,0.0,0.0,0.0,0.0,0.0,0.0,0.0,0.0,0.0,0.0,0.0,0.0,0.0,0.0,0.0,0.0,0.0,0.0,0.0,0.0,0.0,0.0,0.0,0.0,0.0,0.0,0.0,0.0,0.0,0.0,0.0,0.0,0.0,0.0,0.0,0.0,0.0,0.0,0.0,0.0,0.0,0.0,0.0,0.0,0.0,0.0,0.0,0.0,0.0,0.0,0.0,0.0,0.0,0.0,0.0,0.0,0.0,0.0,0.0,0.0,0.0,0.0,0.0,0.0,0.0,0.0,0.0,0.0,0.0,0.0,0.0,0.0,0.0,0.0,0.0,0.0,0.0,0.0,0.0,0.0,0.0,0.0,0.0,0.0,0.0,0.0,0.0,0.0,0.0,0.0,0.0,0.0,0.0,0.0,0.0,0.0,0.0,0.0,0.0,0.0,0.0,0.0,0.0,0.0,0.0,0.0,0.0,0.0,0.0,0.0,0.0,0.0,0.0,0.0,0.0,0.0,0.0,0.0,0.0,0.0,0.0,0.0,0.0,0.0,0.0,0.0,0.0,0.0,0.0,0.0,0.0,0.0,0.0,0.0,0.0,0.0,0.0,0.0,0.0,0.0,0.0,0.0,0.0,0.0,0.0,0.0,0.0,0.0,0.0,0.0,0.0,0.0,0.0,0.0,0.0,0.0,0.0,0.0,0.0,0.0,0.0,0.0,0.0,0.0,0.0,0.0,0.0,0.0,0.0,0.0,0.0,0.0,0.0,0.0,0.0,0.0,0.0,0.0,0.0,0.0,0.0,0.0,0.0,0.0,0.0,0.0,0.0,0.0,0.0,0.0,0.0,0.0,0.0,0.0,0.0,0.0,0.0,0.0,0.0,0.0,0.0,0.0,0.0,0.0,0.0,0.0,0.0,0.0,0.0,0.0,0.0,0.0,0.0,0.0,0.0,0.0,0.0,0.0,0.0,0.0,0.0,0.0,0.0,0.0,0.0,0.0,0.0,0.0,0.0,0.0,0.0,0.0,0.0,0.0,0.0,0.0,0.0,0.0,0.0,0.0,0.0,0.0,0.0,0.0,0.0,0.0,0.0,0.0,0.0,0.0,0.0,0.0,0.0,0.0,0.0,0.0,0.0,0.0,0.0,0.0,0.0,0.0,0.0,0.0,0.0,0.0,0.0,0.0,0.0,0.0,0.0,0.0,0.0,0.0,0.0,0.0,0.0,0.0,0.0,0.0,0.0,0.0,0.0,0.0,0.0,0.0,0.0,0.0,0.0,0.0,0.0,0.0,0.0,0.0,0.0,0.0,0.0,0.0,0.0,0.0,0.0,0.0,0.0,0.0,0.0,0.0,0.0,0.0,0.0,0.0,0.0,0.0,0.0,0.0,0.0,0.0,0.0,0.0,0.0,0.0,0.0,0.0,0.0,0.0,0.0,0.0,0.0,0.0,0.0,0.0,0.0,0.0,0.0,0.0,0.0,0.0,0.0,0.0,0.0,0.0,0.0,0.0,0.0,0.0,0.0,0.0,0.0,0.0,0.0,0.0,0.0,0.0,0.0,0.0,0.0,0.0,0.0,0.0,0.0,0.0,0.0,0.0,0.0,0.0,0.0,0.0,0.0,0.0,0.0,0.0,0.0,0.0,0.0,0.0,0.0,0.0,0.0,0.0,0.0,0.0,0.0,0.0,0.0,0.0,0.0,0.0,0.0,0.0,0.0,0.0,0.0,0.0,0.0,0.0,0.0,0.0,0.0,0.0,0.0,0.0,0.0,0.0,0.0,0.0,0.0,0.0,0.0,0.0,0.0,0.0,0.0,0.0,0.0,0.0,0.0,0.0,0.0,0.0,0.0,0.0,0.0,0.0,0.0,0.0,0.0,0.0,0.0,0.0,0.0,0.0,0.0,0.0,0.0,0.0,0.0,0.0,0.0,0.0,0.0,0.0,0.0,0.0,0.0,0.0,0.0,0.0,0.0,0.0,0.0,0.0,0.0,0.0,0.0,0.0,0.0,0.0,0.0,0.0,0.0,0.0,0.0,0.0,0.0,0.0,0.0,0.0,0.0,0.0,0.0,0.0,0.0,0.0,0.0,0.0,0.0,0.0,0.0,0.0,0.0,0.0,0.0,0.0,0.0,0.0,0.0,0.0,0.0,0.0,0.0,0.0,0.0,0.0,0.0,0.0,0.0,0.0,0.0,0.0,0.0,0.0,0.0,0.0,0.0,0.0,0.0,0.0,0.0,0.0,0.0,0.0,0.0,0.0,0.0,0.0,0.0,0.0,0.0,0.0,0.0,0.0,0.0,0.0,0.0,0.0,0.0,0.0,0.0,0.0,0.0,0.0,0.0,0.0,0.0,0.0,0.0,0.0,0.0,0.0,0.0,0.0,0.0,0.0,0.0,0.0,0.0,0.0,0.0,0.0,0.0,0.0,0.0,0.0,0.0,0.0,0.0,0.0,0.0,0.0,0.0,0.0,0.0,0.0,0.0,0.0,0.0,0.0,0.0,0.0,0.0,0.0,0.0,0.0,0.0,0.0,0.0,0.0,0.0,0.0,0.0,0.0,0.0,0.0,0.0,0.0,0.0,0.0,0.0,0.0,0.0,0.0,0.0,0.0,0.0,0.0,0.0,0.0,0.0,0.0,0.0,0.0,0.0,0.0,0.0,0.0,0.0,0.0,0.0,0.0,0.0,0.0,0.0,0.0,0.0,0.0,0.0,0.0,0.0,0.0,0.0,0.0,0.0,0.0,0.0,0.0,0.0,0.0,0.0,0.0,0.0,0.0,0.0,0.0,0.0,0.0,0.0,0.0,0.0,0.0,0.0,0.0,0.0,0.0,0.0,0.0,0.0,0.0,0.0,0.0,0.0,0.0,0.0,0.0,0.0,0.0,0.0,0.0,0.0,0.0,0.0,0.0,0.0,0.0,0.0,0.0,0.0,0.0,0.0,0.0,0.0,0.0,0.0,0.0,0.0,0.0,0.0,0.0,0.0,0.0,0.0,0.0,0.0,0.0,0.0,0.0,0.0,0.0,0.0,0.0,0.0,0.0,0.0,0.0,0.0,0.0,0.0,0.0,0.0,0.0,0.0,0.0,0.0,0.0,0.0,0.0,0.0,0.0,0.0,0.0,0.0,0.0,0.0,0.0,0.0,0.0,0.0,0.0,0.0,0.0,0.0,0.0,0.0,0.0,0.0,0.0,0.0,0.0,0.0,0.0,0.0,0.0,0.0,0.0,0.0,0.0,0.0,0.0,0.0,0.0,0.0,0.0,0.0,0.0,0.0,0.0,0.0,0.0,0.0,0.0,0.0,0.0,0.0,0.0,0.0,0.0,0.0,0.0,0.0,0.0,0.0,0.0,0.0,0.0,0.0,0.0,1.9095,0.0,0.0,0.0,0.0,0.0,0.0,0.0,0.0,0.0,0.0,0.0,0.0,0.0,0.0,0.0,0.0,0.0,0.0,0.0,0.0,0.0,0.0,0.0,0.0,0.0,0.0,0.0,0.0,0.0,0.0,0.0,0.0,0.0,0.0,0.0,0.0,0.0,0.0,0.0,0.0,0.0,0.0,0.0,0.0,0.0,0.0,0.0,0.0,0.0,0.0,0.0,0.0,0.0,0.0,0.0,0.0,0.0,0.0,0.0,0.0,0.0,0.0,0.0,0.0,0.0,0.0,0.0,0.0,0.0,0.0,0.0,0.0,0.0,0.0,0.0,0.0,0.0,0.0,0.0,0.0,0.0,0.0,0.0,0.0,0.0,0.0,0.0,0.0,0.0,0.0,0.0,0.0,0.0,0.0,0.0,0.0,0.0,0.0,0.0,0.0,0.0,0.0,0.0,0.0,0.0,0.0,0.0,0.0,0.0,0.0,1.9095,1.9095,1.9095,1.9095,1.9095,0.0,0.0,0.0,0.0,0.0,0.0,0.0,0.0,0.0,0.0,0.0,0.0,0.0,0.0,0.0,0.0,0.0,0.0,0.0,0.0,0.0,0.0,0.0,0.0,0.0,0.0,0.0,0.0,0.0,0.0,0.0,0.0,0.0,0.0,0.0,0.0,0.0,0.0,0.0,0.0,0.0,0.0,0.0,0.0,0.0,0.0,0.0,0.0,0.0,0.0,0.0,0.0,0.0,0.0,0.0,0.0,0.0,0.0,0.0,0.0,0.0,0.0,0.0,0.0,0.0,0.0,0.0,0.0,0.0,0.0,0.0,0.0,0.0,0.0,0.0,0.0,0.0,0.0,0.0,0.0,0.0,0.0,0.0,0.0,0.0,0.0,0.0,0.0,0.0,0.0,0.0,0.0,0.0,0.0,0.0,0.0,0.0,0.0,0.0,0.0,0.0,0.0,0.0,0.0,0.0,0.0,0.0,0.0,0.0,0.0,0.0,0.0,1.9095,1.9095,1.9095,0.0,0.0,0.0,0.0,0.0,0.0,0.0,0.0,0.0,0.0,0.0,0.0,0.0,0.0,0.0,0.0,0.0,0.0,0.0,0.0,0.0,0.0,0.0,0.0,0.0,0.0,0.0,0.0,0.0,0.0,0.0,0.0,0.0,0.0,0.0,0.0,0.0,0.0,0.0,0.0,0.0,0.0,0.0,0.0,0.0,0.0,0.0,0.0,0.0,0.0,0.0,0.0,0.0,0.0,0.0,0.0,0.0,0.0,0.0,0.0,0.0,0.0,0.0,0.0,0.0,0.0,0.0,0.0,0.0,0.0,0.0,0.0,0.0,0.0,0.0,0.0,0.0,0.0,0.0,0.0,0.0,0.0,0.0,0.0,0.0,0.0,0.0,0.0,0.0,0.0,0.0,0.0,0.0,0.0,0.0,0.0,0.0,0.0,0.0,0.0,0.0,0.0,0.0,0.0,0.0,0.0,0.0,0.0,0.0,0.0,1.9095,1.9095,1.9113,0.0,1.9095,0.0,0.0,0.0,0.0,0.0,0.0,0.0,0.0,0.0,0.0,0.0,0.0,0.0,0.0,0.0,0.0,0.0,0.0,0.0,0.0,0.0,0.0,0.0,0.0,0.0,0.0,0.0,0.0,0.0,0.0,0.0,0.0,0.0,0.0,0.0,0.0,0.0,0.0,0.0,0.0,0.0,0.0,0.0,0.0,0.0,0.0,0.0,0.0,0.0,0.0,0.0,0.0,0.0,0.0,0.0,0.0,0.0,0.0,0.0,0.0,0.0,0.0,0.0,0.0,0.0,0.0,0.0,0.0,0.0,0.0,0.0,0.0,0.0,0.0,0.0,0.0,0.0,0.0,0.0,0.0,0.0,0.0,0.0,0.0,0.0,0.0,0.0,0.0,0.0,0.0,0.0,0.0,0.0,0.0,0.0,0.0,0.0,0.0,0.0,0.0,0.0,0.0,0.0,0.0,0.0,0.0,0.0,0.0,0.0,0.0,1.9095,1.9095,1.9558,1.9811,0.0,0.0,0.0,0.0,0.0,0.0,0.0,0.0,0.0,0.0,0.0,0.0,0.0,0.0,0.0,0.0,0.0,0.0,0.0,0.0,0.0,0.0,0.0,0.0,0.0,0.0,0.0,0.0,0.0,0.0,0.0,0.0,0.0,0.0,0.0,0.0,0.0,0.0,0.0,0.0,0.0,0.0,0.0,0.0,0.0,0.0,0.0,0.0,0.0,0.0,0.0,0.0,0.0,0.0,0.0,0.0,0.0,0.0,0.0,0.0,0.0,0.0,0.0,0.0,0.0,0.0,0.0,0.0,0.0,0.0,0.0,0.0,0.0,0.0,0.0,0.0,0.0,0.0,0.0,0.0,0.0,0.0,0.0,0.0,0.0,0.0,0.0,0.0,0.0,0.0,0.0,0.0,0.0,0.0,0.0,0.0,0.0,0.0,0.0,0.0,0.0,0.0,0.0,0.0,0.0,0.0,0.0,0.0,0.0,0.0,1.9095,1.9204,1.9449,2.021,2.0644,2.0644,0.0,0.0,0.0,0.0,0.0,0.0,0.0,0.0,0.0,0.0,0.0,0.0,0.0,0.0,0.0,0.0,0.0,0.0,0.0,0.0,0.0,0.0,0.0,0.0,0.0,0.0,0.0,0.0,0.0,0.0,0.0,0.0,0.0,0.0,0.0,0.0,0.0,0.0,0.0,0.0,0.0,0.0,0.0,0.0,0.0,0.0,0.0,0.0,0.0,0.0,0.0,0.0,0.0,0.0,0.0,0.0,0.0,0.0,0.0,0.0,0.0,0.0,0.0,0.0,0.0,0.0,0.0,0.0,0.0,0.0,0.0,0.0,0.0,0.0,0.0,0.0,0.0,0.0,0.0,0.0,0.0,0.0,0.0,0.0,0.0,0.0,0.0,0.0,0.0,0.0,0.0,0.0,0.0,0.0,0.0,0.0,0.0,0.0,0.0,0.0,0.0,0.0,0.0,0.0,0.0,0.0,0.0,0.0,1.9113,1.9132,1.9494,2.0264,2.1015,2.145,0.0,0.0,0.0,0.0,0.0,0.0,0.0,0.0,0.0,0.0,0.0,0.0,0.0,0.0,0.0,0.0,0.0,0.0,0.0,0.0,0.0,0.0,0.0,0.0,0.0,0.0,0.0,0.0,0.0,0.0,0.0,0.0,0.0,0.0,0.0,0.0,0.0,0.0,0.0,0.0,0.0,0.0,0.0,0.0,0.0,0.0,0.0,0.0,0.0,0.0,0.0,0.0,0.0,0.0,0.0,0.0,0.0,0.0,0.0,0.0,0.0,0.0,0.0,0.0,0.0,0.0,0.0,0.0,0.0,0.0,0.0,0.0,0.0,0.0,0.0,0.0,0.0,0.0,0.0,0.0,0.0,0.0,0.0,0.0,0.0,0.0,0.0,0.0,0.0,0.0,0.0,0.0,0.0,0.0,0.0,0.0,0.0,0.0,0.0,0.0,0.0,0.0,0.0,0.0,0.0,0.0,0.0,0.0,0.0,1.9884,2.0373,2.1025,2.1812,2.2119,2.2264,0.0,0.0,0.0,0.0,0.0,0.0,0.0,0.0,0.0,0.0,0.0,0.0,0.0,0.0,0.0,0.0,0.0,0.0,0.0,0.0,0.0,0.0,0.0,0.0,0.0,0.0,0.0,0.0,0.0,0.0,0.0,0.0,0.0,0.0,0.0,0.0,0.0,0.0,0.0,0.0,0.0,0.0,0.0,0.0,0.0,0.0,0.0,0.0,0.0,0.0,0.0,0.0,0.0,0.0,0.0,0.0,0.0,0.0,0.0,0.0,0.0,0.0,0.0,0.0,0.0,0.0,0.0,0.0,0.0,0.0,0.0,0.0,0.0,0.0,0.0,0.0,0.0,0.0,0.0,0.0,0.0,0.0,0.0,0.0,0.0,0.0,0.0,0.0,0.0,0.0,0.0,0.0,0.0,0.0,0.0,0.0,0.0,0.0,0.0,0.0,0.0,0.0,0.0,0.0,0.0,0.0,0.0,0.0,0.0,2.0699,0.0,2.2156,2.2681,2.2934,2.3061,0.0,0.0,0.0,0.0,0.0,0.0,0.0,0.0,0.0,0.0,0.0,0.0,0.0,0.0,0.0,0.0,0.0,0.0,0.0,0.0,0.0,0.0,0.0,0.0,0.0,0.0,0.0,0.0,0.0,0.0,0.0,0.0,0.0,0.0,0.0,0.0,0.0,0.0,0.0,0.0,0.0,0.0,0.0,0.0,0.0,0.0,0.0,0.0,0.0,0.0,0.0,0.0,0.0,0.0,0.0,0.0,0.0,0.0,0.0,0.0,0.0,0.0,0.0,0.0,0.0,0.0,0.0,0.0,0.0,0.0,0.0,0.0,0.0,0.0,0.0,0.0,0.0,0.0,0.0,0.0,0.0,0.0,0.0,0.0,0.0,0.0,0.0,0.0,0.0,0.0,0.0,0.0,0.0,0.0,0.0,0.0,0.0,0.0,0.0,0.0,0.0,0.0,0.0,0.0,0.0,0.0,0.0,0.0,2.0735,2.1514,2.23,2.2735,2.2753,2.3397,2.3777,0.0,0.0,0.0,0.0,0.0,0.0,0.0,0.0,0.0,0.0,0.0,0.0,0.0,0.0,0.0,0.0,0.0,0.0,0.0,0.0,0.0,0.0,0.0,0.0,0.0,0.0,0.0,0.0,0.0,0.0,0.0,0.0,0.0,0.0,0.0,0.0,0.0,0.0,0.0,0.0,0.0,0.0,0.0,0.0,0.0,0.0,0.0,0.0,0.0,0.0,0.0,0.0,0.0,0.0,0.0,0.0,0.0,0.0,0.0,0.0,0.0,0.0,0.0,0.0,0.0,0.0,0.0,0.0,0.0,0.0,0.0,0.0,0.0,0.0,0.0,0.0,0.0,0.0,0.0,0.0,0.0,0.0,0.0,0.0,0.0,0.0,0.0,0.0,0.0,0.0,0.0,0.0,0.0,0.0,0.0,0.0,0.0,0.0,0.0,0.0,0.0,0.0,0.0,0.0,0.0,0.0,0.0,0.0,0.0,2.3081,2.3343,2.3451,2.3451,2.3668,2.3795,0.0,0.0,0.0,0.0,0.0,0.0,0.0,0.0,0.0,0.0,0.0,0.0,0.0,0.0,0.0,0.0,0.0,0.0,0.0,0.0,0.0,0.0,0.0,0.0,0.0,0.0,0.0,0.0,0.0,0.0,0.0,0.0,0.0,0.0,0.0,0.0,0.0,0.0,0.0,0.0,0.0,0.0,0.0,0.0,0.0,0.0,0.0,0.0,0.0,0.0,0.0,0.0,0.0,0.0,0.0,0.0,0.0,0.0,0.0,0.0,0.0,0.0,0.0,0.0,0.0,0.0,0.0,0.0,0.0,0.0,0.0,0.0,0.0,0.0,0.0,0.0,0.0,0.0,0.0,0.0,0.0,0.0,0.0,0.0,0.0,0.0,0.0,0.0,0.0,0.0,0.0,0.0,0.0,0.0,0.0,0.0,0.0,0.0,0.0,0.0,0.0,0.0,0.0,0.0,0.0,0.0,0.0,0.0,0.0,2.3984,2.3929,2.4003,2.429,2.399,2.3972,2.4272,0.0,0.0,0.0,0.0,0.0,0.0,0.0,0.0,0.0,0.0,0.0,0.0,0.0,0.0,0.0,0.0,0.0,0.0,0.0,0.0,0.0,0.0,0.0,0.0,0.0,0.0,0.0,0.0,0.0,0.0,0.0,0.0,0.0,0.0,0.0,0.0,0.0,0.0,0.0,0.0,0.0,0.0,0.0,0.0,0.0,0.0,0.0,0.0,0.0,0.0,0.0,0.0,0.0,0.0,0.0,0.0,0.0,0.0,0.0,0.0,0.0,0.0,0.0,0.0,0.0,0.0,0.0,0.0,0.0,0.0,0.0,0.0,0.0,0.0,0.0,0.0,0.0,0.0,0.0,0.0,0.0,0.0,0.0,0.0,0.0,0.0,0.0,0.0,0.0,0.0,0.0,0.0,0.0,0.0,0.0,0.0,0.0,0.0,0.0,0.0,0.0,0.0,0.0,0.0,0.0,0.0,0.0,0.0,2.4417,2.4154,2.4363,2.499,2.4299,2.4262,0.0,0.0,0.0,0.0,0.0,0.0,0.0,0.0,0.0,0.0,0.0,0.0,0.0,0.0,0.0,0.0,0.0,0.0,0.0,0.0,0.0,0.0,0.0,0.0,0.0,0.0,0.0,0.0,0.0,0.0,0.0,0.0,0.0,0.0,0.0,0.0,0.0,0.0,0.0,0.0,0.0,0.0,0.0,0.0,0.0,0.0,0.0,0.0,0.0,0.0,0.0,0.0,0.0,0.0,0.0,0.0,0.0,0.0,0.0,0.0,0.0,0.0,0.0,0.0,0.0,0.0,0.0,0.0,0.0,0.0,0.0,0.0,0.0,0.0,0.0,0.0,0.0,0.0,0.0,0.0,0.0,0.0,0.0,0.0,0.0,0.0,0.0,0.0,0.0,0.0,0.0,0.0,0.0,0.0,0.0,0.0,0.0,0.0,0.0,0.0,0.0,0.0,0.0,0.0,0.0,0.0,0.0,0.0,0.0,2.4483,2.4501,2.4529,2.4495,2.4311,2.4225,0.0,0.0,0.0,0.0,0.0,0.0,0.0,0.0,0.0,0.0,0.0,0.0,0.0,0.0,0.0,0.0,0.0,0.0,0.0,0.0,0.0,0.0,0.0,0.0,0.0,0.0,0.0,0.0,0.0,0.0,0.0,0.0,0.0,0.0,0.0,0.0,0.0,0.0,0.0,0.0,0.0,0.0,0.0,0.0,0.0,0.0,0.0,0.0,0.0,0.0,0.0,0.0,0.0,0.0,0.0,0.0,0.0,0.0,0.0,0.0,0.0,0.0,0.0,0.0,0.0,0.0,0.0,0.0,0.0,0.0,0.0,0.0,0.0,0.0,0.0,0.0,0.0,0.0,0.0,0.0,0.0,0.0,0.0,0.0,0.0,0.0,0.0,0.0,0.0,0.0,0.0,0.0,0.0,0.0,0.0,0.0,0.0,0.0,0.0,0.0,0.0,0.0,0.0,0.0,0.0,0.0,0.0,0.0,2.4957,2.5736,2.5543,2.548,2.5593,2.5122,2.482,0.0,0.0,0.0,0.0,0.0,0.0,0.0,0.0,0.0,0.0,0.0,0.0,0.0,0.0,0.0,0.0,0.0,0.0,0.0,0.0,0.0,0.0,0.0,0.0,0.0,0.0,0.0,0.0,0.0,0.0,0.0,0.0,0.0,0.0,0.0,0.0,0.0,0.0,0.0,0.0,0.0,0.0,0.0,0.0,0.0,0.0,0.0,0.0,0.0,0.0,0.0,0.0,0.0,0.0,0.0,0.0,0.0,0.0,0.0,0.0,0.0,0.0,0.0,0.0,0.0,0.0,0.0,0.0,0.0,0.0,0.0,0.0,0.0,0.0,0.0,0.0,0.0,0.0,0.0,0.0,0.0,0.0,0.0,0.0,0.0,0.0,0.0,0.0,0.0,0.0,0.0,0.0,0.0,0.0,0.0,0.0,0.0,0.0,0.0,0.0,0.0,0.0,0.0,0.0,0.0,0.0,0.0,0.0,2.5719,2.7336,2.6829,2.681,2.736,2.6338,2.5715,0.0,0.0,0.0,0.0,0.0,0.0,0.0,0.0,0.0,0.0,0.0,0.0,0.0,0.0,0.0,0.0,0.0,0.0,0.0,0.0,0.0,0.0,0.0,0.0,0.0,0.0,0.0,0.0,0.0,0.0,0.0,0.0,0.0,0.0,0.0,0.0,0.0,0.0,0.0,0.0,0.0,0.0,0.0,0.0,0.0,0.0,0.0,0.0,0.0,0.0,0.0,0.0,0.0,0.0,0.0,0.0,0.0,0.0,0.0,0.0,0.0,0.0,0.0,0.0,0.0,0.0,0.0,0.0,0.0,0.0,0.0,0.0,0.0,0.0,0.0,0.0,0.0,0.0,0.0,0.0,0.0,0.0,0.0,0.0,0.0,0.0,0.0,0.0,0.0,0.0,0.0,0.0,0.0,0.0,0.0,0.0,0.0,0.0,0.0,0.0,0.0,0.0,0.0,0.0,0.0,0.0,0.0,0.0,2.6091,2.6619,2.7167,2.7478,2.7624,2.6574,2.625,0.0,0.0,0.0,0.0,0.0,0.0,0.0,0.0,0.0,0.0,0.0,0.0,0.0,0.0,0.0,0.0,0.0,0.0,0.0,0.0,0.0,0.0,0.0,0.0,0.0,0.0,0.0,0.0,0.0,0.0,0.0,0.0,0.0,0.0,0.0,0.0,0.0,0.0,0.0,0.0,0.0,0.0,0.0,0.0,0.0,0.0,0.0,0.0,2.6337,0.0,0.0,0.0,0.0,0.0,0.0,0.0,0.0,0.0,0.0,0.0,0.0,0.0,0.0,0.0,0.0,0.0,0.0,0.0,0.0,0.0,0.0,0.0,0.0,0.0,0.0,0.0,0.0,0.0,0.0,0.0,0.0,0.0,0.0,0.0,0.0,0.0,0.0,0.0,0.0,0.0,0.0,0.0,0.0,0.0,0.0,0.0,0.0,0.0,0.0,0.0,0.0,0.0,0.0,0.0,0.0,0.0,0.0,0.0,2.7243,2.8088,2.8217,2.8459,2.8829,2.7925,2.7335,0.0,0.0,0.0,0.0,0.0,0.0,0.0,0.0,0.0,0.0,0.0,0.0,0.0,0.0,0.0,0.0,0.0,0.0,0.0,0.0,0.0,0.0,0.0,0.0,0.0,0.0,0.0,0.0,0.0,0.0,0.0,0.0,0.0,0.0,0.0,0.0,0.0,0.0,0.0,0.0,0.0,0.0,0.0,0.0,0.0,0.0,0.0,0.0,0.0,0.0,0.0,0.0,0.0,0.0,0.0,0.0,0.0,0.0,0.0,0.0,0.0,0.0,0.0,0.0,0.0,0.0,0.0,0.0,0.0,0.0,0.0,0.0,0.0,0.0,0.0,0.0,0.0,0.0,0.0,0.0,0.0,0.0,0.0,0.0,0.0,0.0,0.0,0.0,0.0,0.0,0.0,0.0,0.0,0.0,0.0,0.0,0.0,0.0,0.0,0.0,0.0,0.0,0.0,0.0,0.0,0.0,0.0,2.7438,2.8353,2.9804,2.9374,2.9452,3.0147,2.9374,2.8531,2.777,0.0,0.0,0.0,0.0,0.0,0.0,0.0,0.0,0.0,0.0,0.0,0.0,0.0,0.0,0.0,0.0,0.0,0.0,0.0,0.0,0.0,0.0,0.0,0.0,0.0,0.0,0.0,0.0,0.0,0.0,0.0,0.0,0.0,0.0,0.0,0.0,0.0,0.0,2.463,2.5944,0.0,0.0,0.0,0.0,0.0,0.0,0.0,0.0,2.8558,0.0,0.0,0.0,0.0,0.0,0.0,0.0,0.0,0.0,0.0,0.0,0.0,0.0,0.0,0.0,0.0,0.0,0.0,0.0,0.0,0.0,0.0,0.0,0.0,0.0,0.0,0.0,0.0,0.0,0.0,0.0,0.0,0.0,0.0,0.0,0.0,0.0,0.0,0.0,0.0,0.0,0.0,0.0,0.0,0.0,0.0,0.0,0.0,0.0,0.0,0.0,0.0,0.0,0.0,0.0,0.0,2.6457,2.7215,2.8094,2.9076,2.9681,3.0032,3.0166,2.9357,2.9136,2.9513,0.0,0.0,0.0,0.0,0.0,0.0,0.0,0.0,0.0,0.0,0.0,0.0,0.0,0.0,0.0,0.0,0.0,0.0,0.0,0.0,0.0,0.0,0.0,0.0,0.0,0.0,0.0,0.0,0.0,0.0,0.0,0.0,0.0,0.0,0.0,0.0,0.0,0.0,0.0,2.75,2.8018,0.0,0.0,0.0,0.0,0.0,0.0,0.0,0.0,2.8418,0.0,0.0,0.0,0.0,0.0,0.0,0.0,0.0,0.0,0.0,0.0,0.0,0.0,0.0,0.0,0.0,0.0,0.0,0.0,0.0,0.0,0.0,0.0,0.0,0.0,0.0,0.0,0.0,0.0,0.0,0.0,0.0,0.0,0.0,0.0,0.0,0.0,0.0,0.0,0.0,0.0,0.0,0.0,0.0,0.0,0.0,0.0,0.0,0.0,0.0,0.0,0.0,0.0,0.0,0.0,2.7012,2.8273,2.9159,2.9567,2.9975,3.0204,3.0185,2.9357,2.9272,0.0,0.0,0.0,0.0,0.0,0.0,0.0,0.0,0.0,0.0,0.0,0.0,0.0,0.0,0.0,0.0,0.0,0.0,0.0,0.0,0.0,0.0,0.0,0.0,0.0,0.0,0.0,0.0,0.0,0.0,0.0,0.0,0.0,0.0,0.0,0.0,0.0,0.0,0.0,0.0,2.8091,2.8833,2.9248,0.0,0.0,0.0,0.0,0.0,0.0,2.8415,2.8158,0.0,0.0,0.0,0.0,0.0,0.0,0.0,0.0,0.0,0.0,0.0,0.0,0.0,0.0,0.0,0.0,0.0,0.0,0.0,0.0,0.0,0.0,0.0,0.0,0.0,0.0,0.0,0.0,0.0,0.0,0.0,0.0,0.0,0.0,0.0,0.0,0.0,0.0,0.0,0.0,0.0,0.0,0.0,0.0,0.0,0.0,0.0,0.0,0.0,0.0,0.0,0.0,0.0,0.0,0.0,2.7669,2.9166,3.0032,3.0204,3.0204,3.0204,3.0185,2.9204,2.9126,0.0,0.0,0.0,0.0,0.0,0.0,0.0,0.0,0.0,0.0,0.0,0.0,0.0,0.0,0.0,0.0,0.0,0.0,0.0,0.0,0.0,0.0,0.0,0.0,0.0,0.0,0.0,0.0,0.0,0.0,0.0,0.0,0.0,0.0,0.0,0.0,0.0,0.0,0.0,0.0,0.0,2.9369,2.928,2.8821,0.0,0.0,0.0,0.0,2.8099,2.8139,0.0,0.0,0.0,0.0,0.0,0.0,0.0,0.0,0.0,0.0,0.0,0.0,0.0,0.0,0.0,0.0,0.0,0.0,0.0,0.0,0.0,0.0,0.0,0.0,0.0,0.0,0.0,0.0,0.0,0.0,0.0,0.0,0.0,0.0,0.0,0.0,0.0,0.0,0.0,0.0,0.0,0.0,0.0,0.0,0.0,0.0,0.0,0.0,0.0,0.0,0.0,0.0,0.0,0.0,0.0,0.0,2.7669,2.858,2.9433,3.0166,3.0204,3.0204,3.0185,2.8676,2.858,0.0,0.0,0.0,0.0,0.0,0.0,0.0,0.0,0.0,0.0,0.0,0.0,0.0,0.0,0.0,0.0,0.0,0.0,0.0,0.0,0.0,0.0,0.0,0.0,0.0,0.0,0.0,0.0,0.0,0.0,0.0,0.0,0.0,0.0,0.0,0.0,0.0,0.0,0.0,0.0,0.0,2.9185,2.8604,2.9099,2.9485,0.0,0.0,2.9111,2.9041,2.9049,0.0,0.0,0.0,0.0,0.0,0.0,0.0,0.0,0.0,0.0,0.0,0.0,0.0,0.0,0.0,0.0,0.0,0.0,0.0,0.0,0.0,0.0,0.0,0.0,0.0,0.0,0.0,0.0,0.0,0.0,0.0,0.0,0.0,0.0,0.0,0.0,0.0,0.0,0.0,0.0,0.0,0.0,0.0,0.0,0.0,0.0,0.0,0.0,0.0,0.0,0.0,0.0,0.0,0.0,0.0,2.7399,2.7844,2.9127,3.0009,3.0356,3.0375,3.0321,3.0267,2.8679,2.8337,0.0,0.0,0.0,0.0,0.0,0.0,0.0,0.0,0.0,0.0,0.0,0.0,0.0,0.0,0.0,0.0,0.0,0.0,0.0,0.0,0.0,0.0,0.0,0.0,0.0,0.0,0.0,0.0,0.0,0.0,0.0,0.0,0.0,0.0,0.0,0.0,0.0,0.0,0.0,0.0,0.0,0.0,2.8709,2.8973,0.0,0.0,0.0,2.8677,2.8584,0.0,0.0,0.0,0.0,0.0,0.0,0.0,0.0,0.0,0.0,0.0,0.0,0.0,0.0,0.0,0.0,0.0,0.0,0.0,0.0,0.0,0.0,0.0,0.0,0.0,0.0,0.0,0.0,0.0,0.0,0.0,0.0,0.0,0.0,0.0,0.0,0.0,0.0,0.0,0.0,0.0,0.0,0.0,0.0,0.0,0.0,0.0,0.0,0.0,0.0,0.0,0.0,0.0,0.0,0.0,0.0,0.0,2.7933,2.9617,3.0477,3.0477,3.0477,3.0462,3.0334,2.8972,0.0,0.0,0.0,0.0,0.0,0.0,0.0,0.0,0.0,0.0,0.0,0.0,0.0,0.0,0.0,0.0,0.0,0.0,0.0,0.0,0.0,0.0,0.0,0.0,0.0,0.0,0.0,2.3941,0.0,0.0,0.0,0.0,0.0,0.0,0.0,0.0,0.0,0.0,0.0,0.0,0.0,0.0,2.936,2.8891,2.9055,2.9188,0.0,0.0,2.8651,2.8501,2.8697,2.9021,0.0,0.0,0.0,0.0,0.0,0.0,0.0,0.0,0.0,0.0,0.0,0.0,0.0,0.0,0.0,0.0,0.0,0.0,0.0,0.0,0.0,0.0,0.0,0.0,0.0,0.0,0.0,0.0,0.0,0.0,0.0,0.0,0.0,0.0,0.0,0.0,0.0,0.0,0.0,0.0,0.0,0.0,0.0,0.0,0.0,0.0,0.0,0.0,0.0,0.0,0.0,0.0,0.0,0.0,0.0,2.7952,2.9622,3.0501,3.0501,3.0477,3.0496,3.0467,2.9533,2.9041,0.0,0.0,0.0,0.0,0.0,0.0,0.0,0.0,0.0,0.0,0.0,0.0,0.0,0.0,0.0,0.0,0.0,0.0,0.0,0.0,0.0,0.0,0.0,0.0,0.0,0.0,0.0,0.0,0.0,0.0,0.0,0.0,0.0,0.0,0.0,0.0,0.0,0.0,0.0,0.0,0.0,2.8801,2.8872,2.9593,3.0089,0.0,0.0,2.9719,2.9523,3.0289,3.0872,3.0711,0.0,0.0,0.0,0.0,0.0,0.0,0.0,0.0,0.0,0.0,0.0,0.0,0.0,0.0,0.0,0.0,0.0,0.0,0.0,0.0,0.0,0.0,0.0,0.0,0.0,0.0,0.0,0.0,0.0,0.0,0.0,0.0,0.0,0.0,0.0,0.0,0.0,0.0,0.0,0.0,0.0,0.0,0.0,0.0,0.0,0.0,0.0,0.0,0.0,0.0,0.0,0.0,0.0,2.7956,2.8051,2.9786,3.0695,3.0695,3.0691,3.0655,3.0568,2.9742,2.8995,0.0,0.0,0.0,0.0,0.0,0.0,0.0,0.0,0.0,0.0,0.0,0.0,0.0,0.0,0.0,0.0,0.0,0.0,0.0,0.0,0.0,0.0,0.0,0.0,0.0,0.0,0.0,0.0,2.6534,2.6358,2.5987,0.0,0.0,0.0,0.0,0.0,0.0,0.0,0.0,0.0,0.0,2.8819,2.8938,2.9711,0.0,0.0,3.0569,3.0592,2.9958,3.097,3.1634,3.1073,3.1421,0.0,0.0,0.0,0.0,0.0,0.0,0.0,0.0,0.0,0.0,0.0,0.0,0.0,0.0,0.0,0.0,0.0,0.0,0.0,0.0,0.0,0.0,0.0,0.0,0.0,0.0,0.0,0.0,0.0,0.0,0.0,0.0,0.0,0.0,0.0,0.0,0.0,0.0,0.0,0.0,0.0,0.0,0.0,0.0,0.0,0.0,0.0,0.0,0.0,0.0,0.0,0.0,2.8046,2.8116,2.9877,3.0801,3.0801,3.0801,3.0764,3.0646,3.0059,2.932,0.0,0.0,0.0,0.0,0.0,0.0,0.0,0.0,0.0,0.0,0.0,0.0,0.0,0.0,0.0,0.0,0.0,0.0,0.0,0.0,0.0,0.0,0.0,0.0,0.0,0.0,0.0,0.0,2.7755,2.7275,2.6735,0.0,0.0,0.0,0.0,0.0,0.0,0.0,0.0,0.0,0.0,2.9021,2.9365,2.9933,3.0342,3.0361,3.0778,3.0854,3.0156,3.1226,3.1993,3.159,0.0,0.0,0.0,0.0,0.0,0.0,0.0,0.0,0.0,0.0,0.0,0.0,0.0,0.0,0.0,0.0,0.0,0.0,0.0,0.0,0.0,0.0,0.0,0.0,0.0,0.0,0.0,0.0,0.0,0.0,1.9841,0.0,0.0,0.0,0.0,0.0,0.0,0.0,0.0,0.0,0.0,0.0,0.0,0.0,0.0,0.0,0.0,0.0,0.0,0.0,0.0,0.0,0.0,2.8103,2.8133,2.9883,3.0801,3.0801,3.0801,3.0799,3.0777,3.0649,3.0199,2.9382,0.0,0.0,0.0,0.0,0.0,0.0,0.0,0.0,0.0,0.0,0.0,0.0,0.0,0.0,0.0,0.0,0.0,0.0,0.0,0.0,0.0,0.0,0.0,0.0,0.0,0.0,2.8399,2.8411,2.7717,0.0,0.0,0.0,0.0,0.0,0.0,0.0,0.0,0.0,0.0,2.95,2.94,3.0227,3.0389,3.0433,3.0514,3.0475,3.0406,3.026,3.1098,3.1872,0.0,0.0,0.0,0.0,0.0,0.0,0.0,0.0,0.0,0.0,0.0,0.0,0.0,0.0,0.0,0.0,0.0,0.0,0.0,0.0,0.0,0.0,0.0,0.0,0.0,0.0,0.0,1.9792,2.0536,0.0,0.0,0.0,0.0,0.0,0.0,0.0,0.0,0.0,0.0,0.0,2.4235,2.5101,0.0,0.0,0.0,0.0,0.0,0.0,0.0,0.0,0.0,0.0,0.0,0.0,2.8129,2.8243,2.9888,3.0801,3.0801,3.0801,3.0801,3.0801,3.0764,3.03,2.9427,0.0,0.0,0.0,0.0,0.0,0.0,0.0,0.0,0.0,0.0,0.0,0.0,0.0,0.0,0.0,0.0,0.0,0.0,0.0,0.0,0.0,0.0,0.0,0.0,0.0,2.8488,0.0,0.0,0.0,0.0,0.0,0.0,0.0,0.0,0.0,0.0,0.0,2.8695,3.0119,2.9644,2.9481,3.0342,3.0452,3.0674,0.0,0.0,0.0,0.0,0.0,0.0,0.0,0.0,0.0,0.0,0.0,0.0,0.0,0.0,3.3849,3.1934,3.2051,3.2262,3.1738,0.0,0.0,0.0,0.0,0.0,0.0,0.0,0.0,0.0,0.0,0.0,0.0,0.0,0.0,2.1504,0.0,2.2059,0.0,0.0,0.0,0.0,0.0,0.0,0.0,0.0,2.523,2.5734,2.6038,2.687,2.7424,0.0,2.8001,2.7529,0.0,0.0,0.0,0.0,0.0,0.0,0.0,0.0,2.8154,2.8284,2.9915,3.0801,3.0801,3.0801,3.0801,3.0801,3.0801,3.0499,2.9914,2.9026,2.8265,0.0,0.0,0.0,0.0,0.0,0.0,0.0,0.0,0.0,0.0,0.0,0.0,0.0,0.0,0.0,0.0,0.0,0.0,0.0,0.0,0.0,0.0,0.0,2.936,0.0,0.0,0.0,0.0,0.0,0.0,0.0,0.0,0.0,2.817,2.8777,2.949,3.037,3.0284,3.0363,3.095,0.0,0.0,0.0,0.0,0.0,0.0,0.0,3.3813,3.3522,3.4408,3.5148,3.5104,3.4806,3.4589,3.4627,0.0,0.0,3.3243,3.3442,3.3781,3.3506,3.3533,3.3498,3.321,3.3204,3.3242,0.0,0.0,0.0,0.0,0.0,0.0,0.0,0.0,2.2999,2.299,0.0,2.3043,0.0,0.0,0.0,0.0,0.0,2.5214,0.0,0.0,2.7786,2.8633,2.9256,2.8553,2.8652,2.9445,2.8633,2.8244,2.8262,2.8212,0.0,0.0,0.0,0.0,0.0,0.0,2.8204,2.8313,2.9939,3.0801,3.0801,3.0801,3.0801,3.0801,3.0801,3.0782,3.076,2.9914,2.943,2.9388,2.7812,0.0,0.0,0.0,0.0,0.0,0.0,0.0,0.0,0.0,0.0,0.0,0.0,0.0,0.0,0.0,0.0,0.0,0.0,0.0,0.0,2.9841,0.0,0.0,0.0,0.0,0.0,0.0,0.0,0.0,0.0,0.0,2.918,2.9295,2.9652,3.0556,0.0,0.0,0.0,0.0,3.3206,3.3316,3.3262,3.321,3.3225,3.3265,3.3541,3.4272,0.0,0.0,3.4552,3.3852,3.3382,3.3327,3.4078,3.4772,3.5407,3.5463,3.5301,3.4672,3.4524,3.4273,3.3607,3.3557,3.3529,2.5661,0.0,0.0,0.0,0.0,2.4533,2.5023,2.5784,2.5155,2.4899,2.4859,2.4244,0.0,0.0,0.0,0.0,0.0,0.0,2.6992,2.7851,2.8729,2.9255,2.9487,2.9801,3.0095,3.0332,3.0098,2.9961,2.998,2.9978,2.8925,2.6916,0.0,0.0,0.0,0.0,2.8496,2.916,3.0234,3.0801,3.0801,3.0801,3.0801,3.0801,3.0801,3.0801,3.0801,3.0538,3.0119,2.948,2.8948,0.0,0.0,0.0,0.0,0.0,0.0,0.0,0.0,0.0,0.0,0.0,0.0,0.0,0.0,0.0,0.0,0.0,0.0,0.0,2.9096,2.9446,2.9035,0.0,0.0,0.0,0.0,0.0,0.0,0.0,0.0,0.0,2.9414,2.9927,3.0619,0.0,0.0,3.2253,3.2854,3.3171,3.3541,3.4072,3.3685,0.0,0.0,3.4164,3.4277,3.4486,3.5031,3.5421,3.5424,3.5181,3.4987,3.4987,3.5193,3.5445,3.5707,3.5733,3.5603,3.5414,3.5424,3.5424,3.5224,3.5193,3.5219,2.8639,2.7614,2.6992,2.6717,2.6679,2.6679,2.6992,2.7441,2.6914,2.6699,2.664,2.6151,2.5875,2.5834,2.5845,0.0,0.0,0.0,2.838,2.9195,2.974,2.9988,3.0016,3.0485,3.071,3.07,3.0703,3.0708,3.0733,3.0753,2.9784,2.7994,0.0,0.0,2.748,2.8301,2.8983,2.9505,3.036,3.0786,3.0801,3.0801,3.0801,3.0801,3.0801,3.0801,3.0801,3.0801,3.056,3.0041,2.9641,2.8982,0.0,0.0,0.0,0.0,0.0,0.0,0.0,0.0,0.0,0.0,0.0,2.6655,2.6672,0.0,0.0,0.0,2.8531,2.9272,2.9852,2.9881,0.0,0.0,0.0,0.0,0.0,0.0,0.0,2.9957,3.003,3.0276,3.0949,3.1169,3.1443,3.196,3.2679,3.3311,3.3796,0.0,3.458,3.5034,3.4706,3.4546,3.498,3.5112,3.5163,3.5152,3.5549,3.5864,3.5877,3.5841,3.5811,3.583,3.5819,3.5853,3.5919,3.5875,3.583,3.583,3.5895,3.5933,3.5933,3.5991,3.6002,3.0801,3.0672,2.9149,2.8493,2.8509,2.8432,2.8409,2.8401,2.8327,2.8307,2.8303,2.8228,2.8242,2.8288,2.8366,0.0,2.9608,2.9585,2.998,3.0696,3.0701,3.0712,3.0694,3.0694,3.0704,3.0697,3.0711,3.0732,3.0794,3.0794,3.0387,2.9631,2.9589,2.9194,2.847,2.9131,2.9536,2.9604,3.0384,3.0786,3.0791,3.0786,3.0784,3.0784,3.0784,3.0784,3.0784,3.0784,3.0784,3.0765,3.0037,2.9579,2.9471,0.0,0.0,0.0,0.0,0.0,0.0,0.0,0.0,0.0,0.0,0.0,0.0,0.0,0.0,0.0,3.0227,0.0,3.0696,3.0635,0.0,0.0,0.0,3.0338,2.9657,3.0262,3.076,3.0882,0.0,0.0,3.3084,3.2655,3.2224,3.2297,3.3682,3.4716,3.4794,3.5459,3.6006,3.5947,3.5917,3.5889,3.5812,3.5896,3.5923,3.593,3.6011,3.599,3.5989,3.5989,3.601,3.5988,3.6011,3.601,3.6011,3.599,3.6011,3.5991,3.6009,3.601,3.6009,3.599,3.601,3.0801,3.0762,3.0375,3.0203,3.0201,3.0182,3.018,3.0137,2.9476,2.9184,2.9162,2.8505,2.8523,2.9138,2.9819,3.0211,3.0411,3.0408,3.0519,3.0704,3.0701,3.0707,3.0694,3.0694,3.0701,3.0698,3.0701,3.071,3.0739,3.0722,3.0608,3.041,3.0422,3.002,2.9257,2.9394,2.9805,3.041,3.0605,3.076,3.0788,3.0786,3.079,3.079,3.079,3.079,3.079,3.079,3.079,3.079,3.0593,3.0201,2.9519,2.8718,0.0,0.0,0.0,0.0,0.0,0.0,0.0,0.0,0.0,2.6836,2.6787,0.0,2.8033,0.0,2.9931,3.0554,2.9812,2.9782,0.0,0.0,2.9388,2.9975,3.0426,3.0664,3.1022,3.1714,3.1248,3.1288,3.2363,3.2832,3.334,3.3984,3.4434,3.494,3.5583,3.5858,3.6015,3.5996,3.5975,3.5974,3.5975,3.5994,3.6014,3.6014,3.6014,3.6013,3.6011,3.601,3.601,3.6011,3.6012,3.6013,3.6014,3.6015,3.6015,3.6015,3.6013,3.601,3.601,3.6011,3.6011,3.1031,3.0745,3.0724,3.0727,3.0767,3.0759,3.0764,3.0706,3.0244,3.0025,2.9986,2.9521,2.9561,2.9991,3.048,3.0694,3.0694,3.0694,3.0694,3.0694,3.0694,3.0694,3.0694,3.0694,3.0694,3.0694,3.0694,3.0694,3.0694,3.0694,3.0691,3.0706,3.0709,3.0475,3.0045,3.0056,3.0307,3.0742,3.0701,3.0721,3.0762,3.0758,3.0772,3.0788,3.0785,3.0605,3.0249,3.0204,3.0066,2.9715,2.9694,2.9481,2.8993,2.8527,2.7903,0.0,0.0,0.0,0.0,0.0,0.0,0.0,0.0,0.0,0.0,0.0,2.8388,2.8757,3.0041,3.0626,3.0069,3.007,2.9886,2.9399,2.9788,3.0279,3.0795,3.0856,3.1033,3.1503,3.1504,3.1797,3.2637,3.3457,3.4316,3.5156,3.5273,3.5449,3.5879,3.6015,3.6016,3.6016,3.5975,3.595,3.5903,3.5901,3.5922,3.5924,3.5906,3.5928,3.5955,3.5956,3.5957,3.5995,3.6015,3.6015,3.6015,3.5975,3.5952,3.5952,3.593,3.5934,3.5996,3.6014,3.6014,3.1439,3.0836,3.0763,3.0714,3.0676,3.0665,3.0665,3.0694,3.0704,3.0694,3.0694,3.0694,3.0694,3.0694,3.0694,3.0694,3.0694,3.0694,3.0694,3.0694,3.0694,3.0694,3.0694,3.0694,3.0694,3.0694,3.0694,3.0694,3.0694,3.0694,3.0694,3.0694,3.0694,3.0697,3.0711,3.0759,3.0785,3.0781,3.0737,3.0695,3.0695,3.0697,3.0739,3.0801,3.0801,3.0389,2.9544,2.9519,2.9125,2.8363,2.8285,2.8363,2.8443,2.835,2.8,0.0,2.732,0.0,0.0,0.0,0.0,0.0,0.0,0.0,0.0,2.8396,2.8806,2.9624,3.0376,3.081,3.0824,3.0805,3.081,3.0817,3.0817,3.0819,3.0879,3.0918,3.0957,3.1035,3.1738,3.2539,3.3457,3.4238,3.5,3.5742,3.5898,3.5898,3.5955,3.5975,3.5996,3.5956,3.5925,3.5861,3.5812,3.5797,3.5799,3.5797,3.5802,3.5827,3.5866,3.5889,3.5897,3.5953,3.5974,3.5974,3.5975,3.5924,3.589,3.5908,3.5962,3.6023,3.5968,3.5974,3.5975,3.2273,3.1495,3.1504,3.1084,3.0453,3.0458,3.055,3.0701,3.0697,3.0694,3.0694,3.0694,3.0694,3.0694,3.0694,3.0694,3.0694,3.0694,3.0694,3.0694,3.0694,3.0694,3.0694,3.0694,3.0694,3.0694,3.0694,3.0694,3.0694,3.0694,3.0694,3.0694,3.0694,3.0701,3.0706,0.0,0.0,0.0,3.0709,3.0704,3.0706,3.076,3.0793,3.0794,3.0797,0.0,2.957,2.9512,2.9121,2.8359,2.83,0.0,0.0,0.0,0.0,0.0,0.0,0.0,0.0,0.0,0.0,0.0,2.806,2.8086,2.8291,2.8937,2.9719,3.054,3.0777,3.0876,3.0876,3.0877,3.0878,3.0879,3.0898,3.0879,3.0898,3.0918,3.1152,3.1875,3.2109,3.2773,3.418,3.4565,3.4946,3.5764,3.5882,3.5843,3.5843,3.5889,3.5893,3.5849,3.5834,3.5805,3.5794,3.5786,3.58,3.5791,3.5791,3.5814,3.5824,3.5807,3.5807,3.5845,3.5841,3.5843,3.5845,3.5812,3.5885,3.5827,3.6379,3.6651,3.5992,3.586,3.5841,3.3058,0.0,3.2261,3.1761,0.0,3.0995,3.0797,3.0453,3.0519,3.0561,3.0542,3.0582,3.061,3.0614,3.0665,3.0668,3.0642,3.0692,3.0672,3.0661,3.0642,3.0665,3.0699,3.0699,3.0703,3.0694,3.0703,3.0703,3.0694,3.0703,3.0703,3.0694,3.0694,3.0711,3.07,3.0711,3.0694,3.0694,3.0707,3.0703,3.0703,3.074,3.0763,3.0771,0.0,0.0,0.0,0.0,0.0,0.0,0.0,0.0,0.0,0.0,0.0,2.8837,2.885,2.8861,2.8866,2.9246,2.9482,2.9433,2.9435,2.9288,2.896,2.9742,3.0407,3.0837,3.0917,3.0917,3.0918,3.0918,3.0918,3.0918,3.0918,3.0918,3.0918,3.0918,3.125,3.207,3.2539,3.3281,3.4506,3.5025,3.538,3.5773,3.5809,3.5777,3.5756,3.5816,3.5812,3.5756,3.5758,3.5748,3.5753,3.576,3.5745,3.5745,3.5764,3.5741,3.5755,3.5742,3.5772,3.5803,3.5791,3.5791,3.5828,3.6119,3.6384,3.6459,3.7067,3.7504,3.7061,3.7042,3.7088,3.3798,3.3135,3.3023,3.2497,3.175,3.175,3.1218,3.0374,0.0,0.0,0.0,3.0438,3.0487,3.0492,3.0621,3.0645,3.0606,3.0665,3.0641,3.0606,3.0602,3.0637,3.0692,3.0673,3.0684,3.068,3.0707,3.0707,3.068,3.0704,3.0704,3.0683,3.0706,3.071,3.0694,3.0694,3.0694,3.0694,3.0694,3.0694,3.0694,3.0697,3.0711,3.0697,3.0695,3.0321,2.9539,2.9513,2.9088,2.8248,2.8191,2.8267,2.8402,2.8402,2.8478,2.863,2.8628,2.8946,2.9655,2.9701,2.9983,3.0661,3.0699,3.0434,2.9844,3.0449,3.0879,3.0879,3.0879,3.0918,3.0918,3.0918,3.0918,3.0918,3.0918,3.0918,3.0918,3.1074,3.1504,3.2304,3.3125,3.3921,3.4737,3.5408,3.5845,3.5786,3.5778,3.5758,3.5725,3.5733,3.5751,3.5709,3.5715,3.5708,3.5697,3.572,3.5704,3.5706,3.5701,3.5702,3.5708,3.5711,3.5725,3.5774,3.5795,3.5791,3.583,3.6382,3.6943,3.6996,3.7762,3.8431,3.8448,3.8622,3.8669,3.4497,3.3675,3.3658,3.3143,3.2288,3.2288,3.1832,3.1013,3.0475,3.0241,3.0228,3.0351,3.0413,3.0423,3.0552,3.0606,3.0606,3.0606,3.061,0.0,3.0602,3.0606,3.061,3.061,3.0614,3.0618,3.0669,3.0653,3.0637,3.0673,3.0673,3.0637,3.0657,3.0695,3.071,3.0694,3.0694,3.0694,3.0694,3.0694,3.0694,3.0704,3.0691,3.0698,3.0697,3.0336,2.9541,2.9515,2.9112,2.8255,2.8203,2.8513,2.9177,2.9232,2.9572,3.0286,3.0348,3.0411,3.0521,3.0471,3.0524,3.0678,3.0707,3.0661,3.0562,3.0701,3.0826,3.0808,3.0857,3.0918,3.0918,3.0898,3.0898,3.0918,3.0918,3.0918,3.0918,3.1523,3.2264,3.307,3.3945,3.4698,3.54,3.5661,3.5741,3.5714,3.573,3.5698,3.5713,3.5702,3.5707,3.5716,3.5711,3.5701,3.5709,3.5704,3.5704,3.5704,3.5704,3.5715,3.5697,3.5702,3.5713,3.5718,3.5737,3.5733,3.5728,3.6361,3.6897,3.711,3.821,3.9268,3.9327,3.9851,3.9926,3.4835,3.4432,3.4404,3.3847,3.2968,3.2468,3.1779,3.1025,3.0724,3.0438,3.0227,3.0375,3.0465,3.0451,3.0554,3.0604,3.061,3.0604,3.0604,3.061,3.061,3.0615,3.0613,3.0613,3.0613,3.0606,3.0625,3.0625,3.0606,3.0618,3.0637,3.0606,3.0633,3.0645,3.0653,3.0657,3.0665,3.0695,3.0706,3.0694,3.0694,3.0701,3.0704,3.0701,3.0711,3.0542,3.017,3.0137,2.9965,2.9576,2.9543,2.9715,3.0072,3.0121,3.0282,3.0676,3.0673,3.0641,3.0641,3.0602,3.0617,3.0637,3.0657,3.0634,3.0648,3.0701,3.0737,3.0737,3.0773,3.0799,3.078,3.078,3.078,3.0799,3.078,3.0799,3.0877,3.1559,3.241,3.3253,3.4049,3.4849,3.5645,3.5722,3.5715,3.5713,3.5711,3.5704,3.5704,3.5704,3.5704,3.5704,3.5704,3.5704,3.5704,3.5704,3.5704,3.5704,3.5704,3.5704,3.5704,3.5704,3.5704,3.5704,3.5704,3.5704,3.5723,3.6767,3.7425,3.7773,3.8992,4.0042,4.0274,4.0545,4.0468,3.4983,3.4879,3.4888,3.4433,3.3682,3.2773,3.1917,3.1203,3.1064,3.0675,3.02,3.0329,3.0442,3.0455,3.0554,3.0616,3.0602,3.0601,3.0621,3.0617,3.0617,3.0607,3.061,3.061,3.0615,3.0608,3.0604,3.0604,3.0608,3.0617,3.0617,3.0617,3.0617,3.0602,3.0602,3.0602,3.0633,3.0673,3.0688,3.0683,3.0694,3.071,3.0706,3.0706,3.0706,3.0706,3.0706,3.071,3.071,3.0706,3.0706,3.0703,3.068,3.0665,3.0673,3.0669,3.0629,3.0617,3.0608,3.0615,3.0601,3.0617,3.0617,3.0617,3.0612,3.0644,3.0678,3.0689,3.0706,3.0694,3.0713,3.0694,3.0709,3.0709,3.0709,3.083,3.104,3.1775,3.2605,3.3476,3.4266,3.5038,3.5519,3.5706,3.5698,3.5711,3.5704,3.5704,3.5704,3.5704,3.5704,3.5704,3.5704,3.5704,3.5704,3.5704,3.5704,3.5704,3.5704,3.5704,3.5704,3.5704,3.5704,3.5704,3.5704,3.5704,3.582,3.6826,3.7748,3.8096,3.9301,4.0429,4.0681,4.0758,4.0797,3.4879,3.4819,3.4809,3.4691,3.439,3.3625,3.278,3.1956,3.1539,3.0814,2.9991,3.0066,3.0222,3.0337,3.052,3.0598,3.0617,3.0617,3.0602,3.0617,3.0617,3.0617,3.0602,3.0602,3.0602,3.0607,3.0606,3.0606,3.0607,3.061,3.0604,3.06,3.06,3.0608,3.0602,3.0602,3.0606,3.0606,3.061,3.0634,3.071,3.0692,3.0704,3.0704,3.0704,3.0704,3.0704,3.0703,3.0703,3.0704,3.0704,3.0653,3.0618,3.061,3.0625,3.061,3.0613,3.061,3.0607,3.0602,3.0602,3.0617,3.0617,3.0617,3.0617,3.0616,3.0606,3.0616,3.0659,3.0699,3.0709,3.0704,3.0699,3.0694,3.0699,3.1001,3.1748,3.2655,3.349,3.4288,3.4987,3.5618,3.5679,3.5716,3.5706,3.5709,3.5704,3.5704,3.5704,3.5704,3.5704,3.5704,3.5704,3.5704,3.5704,3.5704,3.5704,3.5704,3.5704,3.5704,3.5704,3.5704,3.5704,3.5704,3.5704,3.5704,3.5858,3.6458,3.7309,3.8154,3.9069,3.9946,4.0565,4.0797,4.0797,3.4798,3.4695,3.4676,3.4655,3.4556,3.4245,3.3325,3.2106,3.1911,3.1085,3.0016,3.0037,3.0171,3.0306,3.0389,3.0462,3.0598,3.0617,3.0617,3.0617,3.0617,3.0617,3.0617,3.0617,3.0617,3.0617,3.0612,3.0612,3.0602,3.0607,3.0601,3.0615,3.0606,3.0601,3.0606,3.0606,3.0615,3.0608,3.0608,3.0606,3.063,3.0645,3.0641,3.0641,3.0641,3.0622,3.0641,3.0649,3.0649,3.0641,3.0641,3.0618,3.0606,3.0617,3.0613,3.0608,3.061,3.0612,3.0617,3.0617,3.0617,3.0617,3.0617,3.0617,3.0617,3.0617,3.0616,3.0613,3.0634,3.0653,3.0637,3.0633,3.0653,3.0653,3.0653,3.0979,3.179,3.2664,3.3501,3.4357,3.5171,3.5703,3.5701,3.5704,3.5704,3.5704,3.5704,3.5704,3.5704,3.5704,3.5704,3.5704,3.5704,3.5704,3.5704,3.5704,3.5704,3.5704,3.5704,3.5704,3.5704,3.5704,3.5704,3.5704,3.5704,3.5704,3.5704,3.6381,3.7174,3.8083,3.9398,4.041,4.0758,4.0797,4.0797,3.4687,3.4612,3.4612,3.4612,3.4594,3.4358,3.3469,3.2231,3.1996,3.1171,3.0033,3.0089,3.0209,3.03,3.0353,3.0451,3.0593,3.0617,3.0617,3.0617,3.0617,3.0617,3.0617,3.0617,3.0617,3.0617,3.0617,3.0617,3.0617,3.0617,3.0607,3.0601,3.0607,3.0617,3.0617,3.0617,3.0607,3.0606,3.061,3.0692,3.0895,3.0933,3.0821,3.0636,3.0617,3.0617,3.0617,3.0602,3.0602,3.0621,3.0617,3.0613,3.0608,3.0615,3.061,3.0606,3.0607,3.0617,3.0617,3.0617,3.0617,3.0617,3.0617,3.0617,3.0617,3.0617,3.0617,3.0602,3.0617,3.0602,3.0617,3.0617,3.0617,3.0617,3.0752,3.125,3.2087,3.2933,3.3833,3.4665,3.5333,3.5704,3.5704,3.5704,3.5704,3.5704,3.5704,3.5704,3.5704,3.5704,3.5704,3.5704,3.5704,3.5704,3.5704,3.5704,3.5704,3.5704,3.5704,3.5704,3.5704,3.5704,3.5704,3.5704,3.5704,3.5704,3.5704,3.6303,3.7033,3.8102,3.934,4.0487,4.0758,4.0777,4.0797,3.4612,3.4612,3.4594,3.4556,3.4537,3.3776,3.3051,3.2211,3.17,3.0917,3.0138,3.0216,3.0288,3.0319,3.0481,3.0593,3.0617,3.0617,3.0617,3.0617,3.0617,3.0617,3.0617,3.0617,3.0617,3.0617,3.0617,3.0617,3.0617,3.0617,3.0617,3.0617,3.0617,3.0617,3.0617,3.0617,3.0617,3.0602,3.066,3.097,3.1623,3.1719,3.1405,3.0828,3.0658,3.0735,3.0697,3.0632,3.0636,3.0619,3.0619,3.061,3.0602,3.0602,3.0602,3.0622,3.0617,3.0617,3.0617,3.0617,3.0617,3.0617,3.0617,3.0617,3.0617,3.0617,3.0617,3.0617,3.0617,3.0617,3.0617,3.0617,3.0617,3.0656,3.1289,3.2024,3.2914,3.3673,3.4659,3.5356,3.5626,3.5704,3.5704,3.5704,3.5704,3.5704,3.5704,3.5704,3.5704,3.5704,3.5704,3.5704,3.5704,3.5704,3.5704,3.5704,3.5704,3.5704,3.5704,3.5704,3.5704,3.5704,3.5704,3.5704,3.5679,3.5679,3.5704,3.6091,3.6781,3.7748,3.8876,3.9829,4.0661,4.0777,4.0797,3.4612,3.4556,3.4057,3.3832,3.3719,3.2931,3.2144,3.144,3.1175,3.0615,2.9983,3.008,3.0171,3.0177,3.0465,3.0617,3.0617,3.0617,3.0617,3.0617,3.0617,3.0617,3.0617,3.0617,3.0617,3.0617,3.0617,3.0617,3.0617,3.0617,3.0617,3.0617,3.0617,3.0617,3.0617,3.0617,3.0617,3.0656,3.1081,3.1521,3.185,3.2353,3.2474,3.2232,3.2193,3.2193,3.2193,3.1681,3.1371,3.1366,3.0902,3.0607,3.0617,3.0617,3.0617,3.0617,3.0617,3.0617,3.0617,3.0617,3.0617,3.0617,3.0617,3.0617,3.0617,3.0617,3.0617,3.0617,3.0617,3.0617,3.0617,3.0617,3.0617,3.0714,3.1333,3.2159,3.301,3.3866,3.4742,3.5477,3.5704,3.5704,3.5704,3.5704,3.5704,3.5704,3.5704,3.5704,3.5704,3.5704,3.5704,3.5704,3.5704,3.5704,3.5704,3.5704,3.5704,3.5704,3.5704,3.5704,3.5704,3.5684,3.5684,3.5679,3.5673,3.5662,3.5676,3.6082,3.6739,3.7665,3.8773,3.9566,4.0642,4.0681,4.0745,3.4207,3.4095,3.3325,3.2987,3.2893,3.2086,3.142,3.0951,3.0687,3.029,2.9912,3.0022,3.0117,3.0203,3.0409,3.053,3.0593,3.0617,3.0617,3.0617,3.0617,3.0617,3.0617,3.0617,3.0617,3.0617,3.0617,3.0617,3.0617,3.0617,3.0617,3.0617,3.0617,3.0617,3.0617,3.0617,3.0694,3.1043,3.1545,3.2024,3.259,3.3209,3.3673,3.39,3.3944,3.3629,3.3126,3.2527,3.2217,3.214,3.1695,3.1275,3.1018,3.0733,3.0617,3.0617,3.0617,3.0617,3.0617,3.0617,3.0617,3.0617,3.0617,3.0617,3.0617,3.0617,3.0617,3.0617,3.0617,3.0617,3.0617,3.0617,3.0617,3.0752,3.1565,3.2411,3.3068,3.4137,3.5013,3.5554,3.5704,3.5704,3.5704,3.5704,3.5704,3.5704,3.5704,3.5704,3.5704,3.5704,3.5704,3.5704,3.5704,3.5704,3.5704,3.5704,3.5704,3.5704,3.5673,3.5673,3.5662,3.5648,3.5643,3.5643,3.5637,3.5614,3.5801,3.6168,3.6818,3.7647,3.8337,3.9045,3.9863,4.0546,4.0643,3.339,3.3269,3.2461,3.2105,3.1973,3.1241,3.0969,3.0849,3.0261,2.997,3.0004,3.008,3.0131,3.0259,3.0294,3.0406,3.0554,3.0593,3.0617,3.0617,3.0617,3.0617,3.0617,3.0617,3.0617,3.0617,3.0617,3.0617,3.0617,3.0617,3.0617,3.0617,3.0617,3.0617,3.0617,3.0636,3.0984,3.156,3.185,3.2662,3.4142,3.4355,3.4742,3.5433,3.551,3.4814,3.332,3.3165,3.3107,3.3088,3.2991,3.2643,3.1831,3.1139,3.0656,3.0694,3.0636,3.0617,3.0617,3.0617,3.0617,3.0617,3.0617,3.0617,3.0617,3.0617,3.0617,3.0617,3.0617,3.0617,3.0617,3.0617,3.0617,3.0772,3.1971,3.2952,3.3358,3.4621,3.5684,3.5704,3.5704,3.5704,3.5704,3.5704,3.5704,3.5704,3.5704,3.5704,3.5704,3.5704,3.5704,3.5704,3.5704,3.5704,3.5704,3.5704,3.5704,3.5698,3.5662,3.5626,3.5552,3.554,3.5489,3.5489,3.5571,3.5572,3.5578,3.5926,3.624,3.6986,3.7713,3.8582,3.9425,4.014,4.0519,3.2499,3.2405,3.1607,3.1278,3.1175,3.0415,3.0095,3.0132,2.9849,2.979,2.9841,2.9929,2.9988,3.0073,3.0209,3.0342,3.0419,3.0525,3.0617,3.0617,3.0617,3.0617,3.0617,3.0617,3.0617,3.0617,3.0617,3.0617,3.0617,3.0617,3.0617,3.0617,3.0617,3.0617,3.0617,3.0636,3.1004,3.1773,3.2391,3.3286,3.4374,3.4993,3.5438,3.5651,3.5704,3.5394,3.4911,3.4311,3.4002,3.3982,3.3416,3.2972,3.2604,3.1889,3.1449,3.1371,3.0888,3.0617,3.0617,3.0617,3.0617,3.0617,3.0617,3.0617,3.0617,3.0617,3.0617,3.0617,3.0617,3.0617,3.0617,3.0617,3.0617,3.0617,3.2063,3.3088,3.3358,3.4659,3.5549,3.5704,3.5704,3.5704,3.5704,3.5704,3.5704,3.5704,3.5704,3.5704,3.5704,3.5704,3.5704,3.5704,3.5704,3.5693,3.5662,3.5651,3.5639,3.559,3.5547,3.5515,3.5464,3.5352,3.5324,3.5378,3.5463,3.5522,3.5541,3.5682,3.5991,3.6569,3.7443,3.8337,3.9225,3.9778,4.0169,3.1654,3.156,3.0799,3.0443,3.0415,2.9889,2.9701,2.9701,2.9701,2.9701,2.9719,2.979,2.988,2.9996,3.0151,3.0302,3.0425,3.0554,3.0617,3.0617,3.0617,3.0617,3.0617,3.0617,3.0617,3.0617,3.0617,3.0617,3.0617,3.0617,3.0617,3.0617,3.0617,3.0617,3.0656,3.0926,3.1449,3.2275,3.3151,3.4002,3.4795,3.5419,3.5704,3.5704,3.5704,3.5704,3.5665,3.5143,3.4872,3.4742,3.406,3.361,3.3513,3.2778,3.214,3.1753,3.1347,3.0946,3.0675,3.0617,3.0617,3.0617,3.0617,3.0617,3.0617,3.0617,3.0617,3.0617,3.0617,3.0617,3.0617,3.0617,3.0617,3.0617,3.1773,3.2856,3.3552,3.4814,3.5588,3.5704,3.5704,3.5704,3.5704,3.5704,3.5704,3.5704,3.5704,3.5679,3.5679,3.5648,3.5668,3.5662,3.5645,3.5639,3.5628,3.559,3.5572,3.5483,3.5404,3.539,3.5362,3.5162,3.5081,3.5262,3.5374,3.5489,3.5521,3.5521,3.574,3.6491,3.7043,3.7763,3.8507,3.9401,3.9914,3.0837,3.0724,3.0021,2.9758,2.9758,2.9701,2.9701,2.9701,2.9701,2.9701,2.9692,2.9701,2.9841,3.0022,3.0073,3.0235,3.0495,3.051,3.053,3.0535,3.055,3.0559,3.0593,3.0617,3.0617,3.0617,3.0617,3.0617,3.0617,3.0617,3.0617,3.0617,3.0617,3.0617,3.0733,3.1366,3.2121,3.2952,3.3866,3.4742,3.5554,3.5684,3.5704,3.5704,3.5704,3.5704,3.5684,3.5607,3.5626,3.5588,3.4853,3.4471,3.4336,3.3648,3.2817,3.2184,3.1927,3.1391,3.0868,3.0636,3.0617,3.0617,3.0617,3.0617,3.0617,3.0617,3.0617,3.0617,3.0617,3.0617,3.0617,3.0617,3.0617,3.0694,3.1424,3.257,3.4137,3.509,3.5458,3.5665,3.5704,3.5704,3.5704,3.5704,3.5698,3.5698,3.5698,3.5662,3.5631,3.562,3.5608,3.5622,3.5616,3.5584,3.5578,3.5457,3.543,3.5352,3.5235,3.5117,3.5144,3.498,3.487,3.506,3.5262,3.5383,3.5405,3.535,3.5342,3.5687,3.6285,3.699,3.7836,3.8792,3.9618,3.0002,2.9983,2.9786,2.9701,2.9701,2.9701,2.9701,2.9701,2.9701,2.9701,2.9701,2.9701,2.9756,2.9815,2.9921,3.0015,3.0128,3.0209,3.0222,3.0235,3.0344,3.0471,3.0583,3.0617,3.0617,3.0617,3.0617,3.0617,3.0617,3.0617,3.0617,3.0617,3.0617,3.0617,3.0733,3.1424,3.2237,3.3107,3.3963,3.4839,3.5549,3.5704,3.5704,3.5704,3.5704,3.5704,3.5704,3.5704,3.5704,3.5704,3.5516,3.5356,3.5226,3.4505,3.3886,3.3499,3.2512,3.1753,3.1449,3.0946,3.0656,3.0617,3.0617,3.0617,3.0617,3.0617,3.0617,3.0617,3.0617,3.0617,3.0617,3.0617,3.0617,3.0694,3.1275,3.2391,3.3866,3.4587,3.4955,3.5549,3.5665,3.5704,3.5698,3.5668,3.5637,3.5631,3.5639,3.5641,3.561,3.559,3.5578,3.5584,3.5578,3.5566,3.5509,3.5369,3.5255,3.5198,3.5027,3.4763,3.4773,3.4733,3.4691,3.4742,3.5019,3.5168,3.5098,3.5046,3.5063,3.5141,3.5666,3.6445,3.7371,3.8307,3.9127,2.9701,2.9701,2.9701,2.9701,2.9701,2.9701,2.9701,2.9701,2.9701,2.9701,2.9701,2.9701,2.9764,2.9883,2.9907,2.9973,3.0047,3.0054,3.0075,3.0117,3.0247,3.04,3.0559,3.0617,3.0617,3.0617,3.0617,3.0617,3.0617,3.0617,3.0617,3.0617,3.0617,3.0617,3.0694,3.1792,3.2546,3.3242,3.4272,3.5226,3.5665,3.5704,3.5704,3.5704,3.5704,3.5704,3.5704,3.5704,3.5704,3.5704,3.5704,3.5704,3.5665,3.5245,3.4781,3.4432,3.3402,3.2648,3.1869,3.1352,3.0965,3.0694,3.0617,3.0617,3.0617,3.0617,3.0617,3.0617,3.0617,3.0617,3.0617,3.0617,3.0617,3.0656,3.1023,3.1874,3.3214,3.3968,3.4538,3.5055,3.5416,3.5662,3.5651,3.5614,3.5608,3.5622,3.5616,3.5598,3.556,3.556,3.5554,3.5547,3.5554,3.5534,3.5462,3.5323,3.5083,3.5018,3.4773,3.4509,3.4498,3.4509,3.4583,3.4636,3.4801,3.4889,3.486,3.486,3.4945,3.5115,3.5458,3.5884,3.6748,3.7687,3.8524,2.9701,2.9701,2.9701,2.9701,2.9701,2.9701,2.9701,2.9701,2.9673,2.9692,2.9701,2.9701,2.978,3.0044,2.9864,2.9988,3.0158,2.9999,3.0054,3.0129,3.0216,3.0356,3.053,3.0588,3.0598,3.0617,3.0617,3.0617,3.0617,3.0617,3.0617,3.0617,3.0617,3.0617,3.0926,3.2198,3.301,3.3378,3.4737,3.553,3.5684,3.5704,3.5704,3.5704,3.5704,3.5704,3.5704,3.5704,3.5704,3.5704,3.5704,3.5704,3.5704,3.5684,3.5361,3.4703,3.4297,3.3499,3.2251,3.1835,3.1395,3.0782,3.0588,3.0593,3.0593,3.0617,3.0617,3.0617,3.0617,3.0617,3.0617,3.0617,3.0617,3.0617,3.0656,3.0965,3.1753,3.3126,3.4127,3.4235,3.493,3.5377,3.5475,3.554,3.5591,3.5572,3.5579,3.5554,3.5541,3.5515,3.5502,3.5508,3.5514,3.55,3.5403,3.5281,3.5027,3.4793,3.4524,3.4316,3.4328,3.4374,3.4465,3.4572,3.4596,3.4649,3.4682,3.4742,3.4782,3.479,3.4923,3.5335,3.5946,3.6948,3.7848,2.9701,2.9701,2.9701,2.9701,2.9701,2.9701,2.9701,2.9701,2.9636,2.9645,2.9683,2.9636,2.9664,2.9708,2.9691,2.9682,2.9731,2.9792,2.9984,3.0234,3.0096,3.0177,3.0358,3.0485,3.0583,3.0583,3.0593,3.0593,3.0588,3.0574,3.0598,3.0593,3.0554,3.0617,3.0888,3.2216,3.3107,3.3416,3.4828,3.564,3.5704,3.5704,3.5704,3.5704,3.5704,3.5704,3.5704,3.5704,3.5704,3.5704,3.5704,3.5704,3.5704,3.5704,3.5568,3.5303,3.4723,3.3944,3.2917,3.2097,3.1342,3.0699,3.0451,3.0436,3.0593,3.0617,3.0617,3.0617,3.0617,3.0617,3.0617,3.0617,3.0593,3.0593,3.0593,3.0646,3.0936,3.1767,3.27,3.3341,3.4058,3.4562,3.4614,3.5181,3.5348,3.5457,3.5515,3.5527,3.5501,3.5501,3.5494,3.55,3.55,3.5472,3.5293,3.5132,3.4832,3.462,3.4356,3.4209,3.4233,3.4233,3.434,3.434,3.4305,3.4367,3.4491,3.4424,3.4454,3.442,3.4427,3.4858,3.5443,3.6344,3.7141,2.9701,2.9701,2.9701,2.9692,2.9664,2.9664,2.9636,2.9598,2.956,2.9569,2.9589,2.956,2.9579,2.9636,2.9579,2.956,2.9598,2.9617,2.9745,2.9861,2.984,2.9924,3.0066,3.0228,3.0334,3.0358,3.0364,3.0364,3.0364,3.0375,3.0381,3.0455,3.0398,3.0739,3.1172,3.2295,3.3149,3.3854,3.4874,3.5589,3.5698,3.5704,3.5704,3.5704,3.5704,3.5704,3.5704,3.5704,3.5704,3.5704,3.5704,3.5704,3.5704,3.5704,3.5704,3.5588,3.5336,3.4304,3.323,3.2484,3.1691,3.0466,3.0294,3.0359,3.0471,3.0545,3.0617,3.0617,3.0617,3.0617,3.0617,3.0617,3.0593,3.0559,3.0554,3.0545,3.0645,3.1269,3.1906,3.2502,3.3155,3.3523,3.391,3.4494,3.4815,3.4828,3.5476,3.5514,3.5514,3.5488,3.5488,3.55,3.55,3.5424,3.5209,3.4954,3.4649,3.4454,3.4281,3.4197,3.4209,3.4209,3.4228,3.4209,3.4221,3.4221,3.4293,3.4216,3.4216,3.4257,3.4374,3.4537,3.5027,3.5992,3.6651,2.9701,2.9673,2.9673,2.9664,2.9598,2.9588,2.955,2.9521,2.9492,2.9511,2.9492,2.9474,2.9541,2.9598,2.9532,2.958,2.9626,2.9561,2.9541,2.9635,2.9706,2.9775,2.9851,2.992,2.9992,3.0011,3.0082,3.0122,3.0136,3.0096,3.0209,3.024,3.0183,3.0663,3.1594,3.2333,3.3105,3.4108,3.4905,3.5451,3.5608,3.5645,3.5651,3.5704,3.5704,3.5704,3.5704,3.5704,3.5704,3.5704,3.5704,3.5704,3.5704,3.5704,3.5668,3.5662,3.5548,3.4608,3.3218,3.2647,3.1973,3.0273,3.0157,3.024,3.0321,3.0425,3.051,3.053,3.0535,3.0588,3.0593,3.0583,3.0569,3.0535,3.0491,3.0481,3.0606,3.1176,3.143,3.1615,3.2214,3.2716,3.3147,3.3654,3.3936,3.4334,3.5026,3.55,3.55,3.55,3.55,3.55,3.55,3.5312,3.5107,3.4753,3.4443,3.4351,3.4216,3.4216,3.4216,3.4216,3.4216,3.4216,3.4216,3.4216,3.4216,3.4216,3.4216,3.4216,3.4253,3.4364,3.494,3.5702,3.6278,2.9655,2.9607,2.9607,2.9569,2.9531,2.9531,2.9502,2.9492,2.9443,2.9453,2.9482,2.9443,2.9443,2.9444,2.9434,2.9503,2.9542,2.9482,2.955,2.969,2.9716,2.9699,2.9707,2.9724,2.9715,2.9716,2.9832,3.0003,3.0066,3.0089,3.0095,3.011,3.0102,3.0602,3.1522,3.2225,3.3062,3.4131,3.4822,3.5246,3.5398,3.5457,3.5527,3.5651,3.5668,3.5693,3.5704,3.5704,3.5704,3.5704,3.5704,3.5704,3.5668,3.5668,3.5602,3.5509,3.5451,3.4614,3.2996,3.2523,3.1657,3.0528,3.0011,3.0018,3.0124,3.0266,3.0325,3.0353,3.0411,3.0491,3.052,3.0495,3.0514,3.049,3.0485,3.0474,3.0472,3.0601,3.0761,3.0873,3.1453,3.1961,3.2339,3.291,3.3603,3.4199,3.493,3.5365,3.55,3.55,3.55,3.55,3.55,3.5258,3.4982,3.4588,3.4257,3.4281,3.4216,3.4216,3.4216,3.4216,3.4216,3.4216,3.4216,3.4216,3.4216,3.4216,3.4216,3.4216,3.4216,3.4216,3.4791,3.546,3.6315,2.9598,2.955,2.9569,2.9521,2.9453,2.9453,2.9461,2.945,2.9429,2.9411,2.9421,2.9411,2.939,2.939,2.939,2.9441,2.9461,2.9431,2.9491,2.9608,2.9589,2.9551,2.9541,2.9532,2.9532,2.9532,2.9644,2.9767,2.9836,2.9872,2.9926,2.9973,2.9953,3.0584,3.1718,3.2237,3.3181,3.4183,3.4821,3.5083,3.5235,3.5258,3.5364,3.5496,3.5546,3.5608,3.5698,3.5704,3.5704,3.5673,3.5589,3.5559,3.5515,3.5444,3.5378,3.5331,3.5234,3.4366,3.2801,3.2284,3.1529,3.0067,2.9775,2.9826,2.9912,3.004,3.0144,3.0164,3.0177,3.026,3.0333,3.0333,3.0369,3.0428,3.0433,3.0411,3.0419,3.0389,3.0383,3.0383,3.0775,3.1173,3.1314,3.2102,3.3179,3.4026,3.4788,3.5192,3.5462,3.55,3.5481,3.5417,3.5369,3.5098,3.4841,3.4502,3.4228,3.4216,3.4216,3.4216,3.4216,3.4216,3.4216,3.4216,3.4216,3.4216,3.4216,3.4216,3.4216,3.4216,3.4216,3.429,3.4643,3.5237,3.6216,2.954,2.9482,2.9482,2.9443,2.9392,2.9392,2.939,2.9388,2.9388,2.9388,2.9388,2.9388,2.9388,2.9388,2.9388,2.9388,2.9388,2.9388,2.9409,2.9419,2.9419,2.9419,2.9401,2.939,2.9429,2.9471,2.9454,2.9481,2.9608,2.9655,2.9718,2.978,2.9738,3.0478,3.1777,3.209,3.3289,3.4159,3.487,3.4917,3.5032,3.5098,3.517,3.5316,3.5357,3.5424,3.5509,3.5515,3.5521,3.5496,3.5431,3.535,3.5321,3.5146,3.507,3.5135,3.5018,3.3939,3.2732,3.2147,3.1402,2.9776,2.9626,2.9653,2.9715,2.9832,2.9969,2.9985,3.0007,3.0032,3.0124,3.0131,3.0183,3.0248,3.0273,3.031,3.0304,3.0292,3.0292,3.0298,3.0349,3.049,3.0753,3.1708,3.2874,3.3623,3.4371,3.5222,3.5453,3.5481,3.546,3.5331,3.5193,3.4898,3.466,3.4454,3.4245,3.4216,3.4216,3.4216,3.4216,3.4216,3.4216,3.4216,3.4216,3.4216,3.4216,3.4216,3.4216,3.4216,3.4216,3.4309,3.4513,3.5349,3.6439,2.9472,2.9412,2.9412,2.9411,2.9388,2.9388,2.9388,2.9388,2.9388,2.9388,2.9388,2.9388,2.9388,2.9388,2.9388,2.9388,2.9388,2.9388,2.9388,2.9388,2.9388,2.9388,2.9388,2.9388,2.9388,2.9419,2.9392,2.9443,2.9511,2.9531,2.9569,2.9626,2.9692,3.0161,3.1214,3.1853,3.2604,3.3566,3.429,3.4722,3.4889,3.5005,3.5081,3.513,3.5138,3.517,3.5216,3.525,3.5216,3.522,3.5181,3.5138,3.5106,3.4953,3.4822,3.4803,3.4613,3.4025,3.241,3.189,3.1235,2.9847,2.9513,2.9541,2.958,2.9644,2.9809,2.9992,2.9946,2.9904,2.992,2.9939,2.9946,2.9977,3.0041,3.0073,3.0102,3.0155,3.0155,3.0109,3.0121,3.0197,3.0362,3.15,3.2594,3.3271,3.3995,3.4875,3.5424,3.5439,3.5361,3.5218,3.5037,3.4752,3.4542,3.4316,3.4257,3.4216,3.4216,3.4216,3.4216,3.4216,3.4216,3.4216,3.4216,3.4216,3.4216,3.4216,3.4216,3.4216,3.4216,3.4216,3.4234,3.533,3.6643,2.9411,2.939,2.939,2.9399,2.9388,2.9388,2.9388,2.9388,2.9388,2.9388,2.9388,2.9388,2.9388,2.9388,2.9388,2.9388,2.9388,2.9388,2.9388,2.9388,2.9388,2.9388,2.9388,2.9388,2.9388,2.9388,2.9399,2.9409,2.946,2.9491,2.9531,2.954,2.9578,2.9981,3.0798,3.166,3.2553,3.3419,3.4143,3.4599,3.473,3.4812,3.487,3.4962,3.499,3.5024,3.5064,3.5106,3.507,3.5037,3.4987,3.4916,3.4851,3.4703,3.4534,3.4453,3.4033,3.32,3.2061,3.1517,3.0605,2.9841,2.9431,2.946,2.947,2.9502,2.9561,2.9636,2.9636,2.9653,2.9724,2.9724,2.9792,2.9845,2.9864,2.991,2.9946,2.9969,2.9977,2.9927,2.9945,3.0138,3.0479,3.1497,3.2605,3.3454,3.4154,3.494,3.5324,3.5354,3.5234,3.5046,3.4841,3.4607,3.4431,3.4245,3.4233,3.4216,3.4216,3.4216,3.4216,3.4216,3.4216,3.4216,3.4216,3.4216,3.4216,3.4216,3.4216,3.4216,3.4216,3.4216,3.4327,3.5584,3.6848,2.9388,2.9388,2.9388,2.9388,2.9388,2.9388,2.9388,2.9388,2.9388,2.9388,2.9388,2.9388,2.9388,2.9388,2.9388,2.9388,2.9388,2.9388,2.9388,2.9388,2.9388,2.9388,2.9388,2.9388,2.9388,2.9388,2.9388,2.9417,2.9409,2.945,2.9471,2.9472,2.9472,2.9801,3.0561,3.1584,3.2616,3.3776,3.432,3.4575,3.4634,3.4634,3.471,3.4781,3.484,3.487,3.4944,3.4916,3.4869,3.4813,3.4754,3.4672,3.4601,3.4491,3.421,3.3903,3.3269,3.2423,3.1585,3.095,3.0214,2.9694,2.9388,2.9399,2.9399,2.9388,2.9388,2.945,2.944,2.9472,2.9513,2.9551,2.9608,2.9681,2.9754,2.9777,2.982,2.9801,2.9809,2.9784,2.9931,3.0387,3.0857,3.1676,3.2609,3.3558,3.4355,3.5032,3.5182,3.5218,3.5063,3.486,3.4732,3.452,3.4351,3.4209,3.4197,3.4216,3.4216,3.4216,3.4216,3.4216,3.4216,3.4216,3.4216,3.4216,3.4216,3.4216,3.4216,3.4216,3.4216,3.4216,3.4624,3.5844,3.7071,2.9388,2.9388,2.9388,2.9388,2.9388,2.9388,2.9388,2.9388,2.9388,2.9388,2.9388,2.9388,2.9388,2.9388,2.9388,2.9388,2.9388,2.9388,2.9388,2.9388,2.9388,2.9388,2.9388,2.9388,2.9388,2.9388,2.9388,2.9388,2.9388,2.9399,2.9411,2.9384,2.9412,2.9471,3.0137,3.1318,3.2858,3.395,3.4524,3.4572,3.4591,3.4591,3.4612,3.4612,3.4572,3.452,3.4542,3.4545,3.4534,3.4505,3.448,3.4465,3.4413,3.4351,3.4051,3.335,3.2571,3.1749,3.1013,3.0586,3.0188,2.9667,2.9388,2.9388,2.9388,2.9388,2.9388,2.9388,2.9388,2.9388,2.9419,2.9438,2.9471,2.9511,2.957,2.9598,2.9617,2.9626,2.9626,2.9598,2.9945,3.0475,3.1171,3.1973,3.2828,3.379,3.4311,3.4973,3.4973,3.4982,3.4841,3.4691,3.4636,3.4473,3.4269,3.4216,3.4216,3.4216,3.4216,3.4216,3.4216,3.4216,3.4216,3.4216,3.4216,3.4216,3.4216,3.4216,3.4216,3.4216,3.4234,3.429,3.4791,3.5844,3.7182,2.9388,2.9388,2.9388,2.9388,2.9388,2.9388,2.9388,2.9388,2.9388,2.9388,2.9388,2.9388,2.9388,2.9388,2.9388,2.9388,2.9388,2.9388,2.9388,2.9388,2.9388,2.9388,2.9388,2.9388,2.9388,2.9388,2.9388,2.9388,2.9388,2.9388,2.9388,2.939,2.939,2.9421,3.0002,3.1155,3.2823,3.4023,3.4484,3.4484,3.4484,3.4484,3.4484,3.4473,3.4473,3.445,3.445,3.4409,3.4374,3.4351,3.434,3.4316,3.4293,3.4276,3.3799,3.3036,3.2195,3.1403,3.0604,3.0177,2.9704,2.9574,2.9388,2.9388,2.9388,2.9388,2.9388,2.9388,2.9388,2.9388,2.9388,2.9407,2.9409,2.9388,2.9409,2.9431,2.9461,2.9492,2.9652,2.9727,3.0192,3.0716,3.1466,3.2244,3.3127,3.399,3.4436,3.4772,3.4772,3.4752,3.4639,3.4542,3.4465,3.4427,3.424,3.4216,3.4216,3.4216,3.4216,3.4216,3.4216,3.4216,3.4216,3.4216,3.4216,3.4216,3.4216,3.4216,3.4216,3.4216,3.4309,3.4457,3.5138,3.59,3.7034,2.9388,2.9388,2.9388,2.9388,2.9388,2.9388,2.9388,2.9388,2.9388,2.9388,2.9388,2.9388,2.9388,2.9388,2.9388,2.9388,2.9388,2.9388,2.9388,2.9388,2.9388,2.9388,2.9388,2.9388,2.9388,2.9388,2.9388,2.9388,2.9388,2.9388,2.9388,2.9388,2.9388,2.9409,2.9783,3.1083,3.2758,3.4012,3.4386,3.4386,3.4397,3.4397,3.4416,3.4416,3.4404,3.4363,3.4351,3.434,3.4305,3.4281,3.4269,3.4245,3.4221,3.4067,3.3633,3.2853,3.2091,3.1336,3.0381,2.9834,2.9425,2.9388,2.9388,2.9388,2.9388,2.9388,2.9388,2.9388,2.9388,2.9388,2.9388,2.9388,2.9388,2.9388,2.9388,2.9419,2.9409,2.944,2.969,2.9884,3.0392,3.0942,3.2102,3.2871,3.3413,3.4068,3.4263,3.452,3.4513,3.4491,3.4465,3.4386,3.4328,3.4269,3.4216,3.4216,3.4216,3.4216,3.4216,3.4216,3.4216,3.4216,3.4216,3.4216,3.4216,3.4216,3.4216,3.4216,3.4216,3.4216,3.4309,3.442,3.5101,3.5844,3.6681,2.9388,2.9388,2.9388,2.9388,2.9388,2.9388,2.9388,2.9388,2.9388,2.9388,2.9388,2.9388,2.9388,2.9388,2.9388,2.9388,2.9388,2.9388,2.9388,2.9388,2.9388,2.9388,2.9388,2.9388,2.9388,2.9388,2.9388,2.9388,2.9388,2.9388,2.9388,2.9388,2.9388,2.9481,2.9574,3.1041,3.2717,3.4094,3.4281,3.4374,3.4363,3.4363,3.4363,3.4351,3.4316,3.4305,3.4293,3.4269,3.4233,3.424,3.424,3.4228,3.4216,3.4216,3.3479,3.2064,3.189,3.1017,2.9636,2.9442,2.9386,2.9378,2.9388,2.9388,2.9388,2.9388,2.9388,2.9388,2.9388,2.9388,2.9388,2.9388,2.9388,2.9388,2.9388,2.9388,2.9388,2.9396,2.9619,3.0158,3.0604,3.118,3.2518,3.354,3.3881,3.4184,3.4209,3.4245,3.4298,3.4328,3.4316,3.4293,3.4257,3.4233,3.4216,3.4216,3.4216,3.4216,3.4216,3.4216,3.4216,3.4216,3.4216,3.4216,3.4185,3.4173,3.4185,3.4216,3.4216,3.4216,3.4216,3.442,3.5083,3.5677,3.6365,2.9388,2.9388,2.9388,2.9388,2.9388,2.9388,2.9388,2.9388,2.9388,2.9388,2.9388,2.9388,2.9388,2.9388,2.9388,2.9388,2.9388,2.9388,2.9388,2.9388,2.9388,2.9388,2.9388,2.9388,2.9388,2.9388,2.9388,2.9378,2.9388,2.9378,2.9388,2.9388,2.9363,2.9723,3.0318,3.1351,3.2452,3.3394,3.3897,3.425,3.4269,3.4257,3.4257,3.4227,3.4191,3.4179,3.4209,3.4173,3.4173,3.4185,3.4185,3.4173,3.4142,3.4123,3.3284,3.196,3.1469,3.0686,2.9432,2.8955,2.9211,2.9304,2.9347,2.9336,2.9396,2.9388,2.9388,2.9378,2.9368,2.9368,2.9388,2.9388,2.9388,2.9388,2.9388,2.9388,2.9388,2.9396,2.9619,3.04,3.0976,3.2091,3.3343,3.3751,3.4086,3.4216,3.4216,3.4216,3.4245,3.4245,3.4252,3.4252,3.4209,3.4228,3.4216,3.4216,3.4216,3.4216,3.4216,3.4216,3.4216,3.4204,3.4161,3.4148,3.4136,3.4117,3.4136,3.4148,3.4204,3.4216,3.4204,3.4216,3.4587,3.512,3.5696,2.9388,2.9388,2.9388,2.9388,2.9388,2.9388,2.9388,2.9388,2.9388,2.9388,2.9388,2.9388,2.9388,2.9388,2.9388,2.9388,2.9388,2.9388,2.9388,2.9388,2.9388,2.9388,2.9388,2.9368,2.9388,2.9378,2.9368,2.9357,2.9243,2.9347,2.9326,2.9232,2.9149,2.9262,3.0001,3.0923,3.2221,3.3087,3.3726,3.4148,3.4099,3.4049,3.3998,3.3915,3.3858,3.3897,3.4005,3.4074,3.4111,3.4136,3.4124,3.4074,3.4012,3.3517,3.2801,3.1651,3.0472,2.9794,2.8913,2.8682,2.8879,2.9,2.9086,2.9149,2.9222,2.9222,2.9138,2.9138,2.9283,2.9304,2.9294,2.9304,2.9347,2.9347,2.9347,2.9347,2.9402,2.9439,3.01,3.0843,3.1775,3.2953,3.3844,3.3993,3.4197,3.4216,3.4216,3.4216,3.4216,3.4197,3.4216,3.4216,3.4216,3.4216,3.4216,3.4216,3.4216,3.4216,3.4216,3.4185,3.4161,3.4148,3.4111,3.4086,3.4074,3.4074,3.4074,3.4086,3.4124,3.4167,3.4179,3.4191,3.4216,3.4606,3.5126,2.9388,2.9388,2.9388,2.9388,2.9388,2.9388,2.9388,2.9388,2.9388,2.9388,2.9388,2.9388,2.9388,2.9388,2.9388,2.9368,2.9336,2.9336,2.9286,2.9275,2.9211,2.9254,2.9265,2.9265,2.9192,2.9275,2.9265,2.9093,2.9014,2.9104,2.9115,2.8973,2.8754,2.8804,2.9405,3.0435,3.1744,3.2508,3.3475,3.3792,3.3797,3.3775,3.3648,3.355,3.3476,3.3574,3.3689,3.3757,3.3908,3.3934,3.3889,3.3815,3.3469,3.2798,3.1869,3.0785,2.95,2.8773,2.8456,2.8428,2.8504,2.8584,2.8504,2.8658,2.8862,2.8962,2.8885,2.8855,2.8955,2.9048,2.9089,2.9178,2.9265,2.9265,2.9265,2.932,2.9413,2.985,3.0669,3.1526,3.2458,3.3398,3.3956,3.4197,3.4204,3.4173,3.4173,3.4161,3.4161,3.4197,3.4197,3.4216,3.4216,3.4216,3.4216,3.4197,3.4216,3.4216,3.4173,3.4161,3.4136,3.4099,3.4061,3.4023,3.4011,3.3998,3.3998,3.4023,3.4036,3.4061,3.4099,3.4124,3.4148,3.4191,3.4637,2.9388,2.9388,2.9388,2.9388,2.9388,2.9388,2.9388,2.9388,2.9388,2.9388,2.9388,2.9388,2.9388,2.9388,2.9388,2.9283,2.9178,2.9071,2.892,2.8867,2.8855,2.8808,2.8796,2.882,2.8778,2.8778,2.8785,2.8796,2.8682,2.8766,2.8754,2.8603,2.8491,2.8466,2.8891,2.9733,3.0695,3.172,3.2885,3.3359,3.3476,3.3451,3.3335,3.3262,3.3217,3.3321,3.3408,3.3437,3.3536,3.3536,3.3508,3.3451,3.3382,3.306,3.243,3.065,2.9249,2.8156,2.8006,2.8116,2.8237,2.8166,2.8057,2.8232,2.8471,2.8621,2.8554,2.8566,2.8664,2.8773,2.8827,2.8897,2.8989,2.9041,2.9074,2.9189,2.9402,3.014,3.0979,3.2002,3.2945,3.3621,3.416,3.4204,3.4191,3.4161,3.4136,3.4124,3.4124,3.4161,3.4161,3.4161,3.4204,3.4191,3.4185,3.4185,3.4197,3.4216,3.4161,3.4124,3.4086,3.4049,3.3979,3.3941,3.3934,3.3934,3.3921,3.3947,3.3972,3.3998,3.4036,3.4074,3.4099,3.4111,3.4161,2.9388,2.9388,2.9388,2.9388,2.9388,2.9388,2.9347,2.9283,2.9347,2.9388,2.9388,2.9388,2.9388,2.9368,2.9283,2.9156,2.9014,2.885,2.8694,2.8603,2.8478,2.8541,2.8516,2.8491,2.8541,2.8504,2.8478,2.8504,2.8376,2.8232,2.8192,2.8337,2.8272,2.8192,2.843,2.9042,2.983,3.0876,3.1913,3.2751,3.3046,3.3093,3.3065,3.299,3.2975,3.3021,3.3093,3.3126,3.3154,3.3214,3.3214,3.3108,3.2865,3.2463,3.1515,2.9813,2.8752,2.8007,2.78,2.7855,2.7926,2.7911,2.7797,2.7897,2.8075,2.8246,2.8192,2.8192,2.8389,2.8541,2.8541,2.8584,2.867,2.8773,2.8882,2.9018,2.9644,3.0358,3.132,3.2353,3.3173,3.3889,3.4216,3.4179,3.4161,3.4124,3.4099,3.4061,3.4074,3.4111,3.4099,3.4086,3.4124,3.4167,3.4161,3.4161,3.4161,3.4136,3.4099,3.4061,3.4036,3.3985,3.3934,3.3895,3.3855,3.3855,3.3868,3.3881,3.3908,3.3934,3.3959,3.3972,3.4011,3.4036,3.4073,2.9388,2.9378,2.9386,2.9336,2.9376,2.9296,2.9149,2.9003,2.9171,2.9296,2.9275,2.9315,2.9265,2.916,2.9019,2.8915,2.8755,2.8572,2.8415,2.844,2.8324,2.8311,2.8324,2.841,2.8285,2.8376,2.8376,2.8174,2.8047,2.7954,2.794,2.8047,2.7883,2.7829,2.7982,2.8638,2.9463,3.0373,3.14,3.2319,3.2686,3.275,3.267,3.2508,3.2508,3.254,3.2702,3.2813,3.289,3.3001,3.2986,3.2781,3.2293,3.1473,3.0219,2.931,2.8534,2.8009,2.7786,2.7757,2.7742,2.776,2.7716,2.7742,2.7883,2.7978,2.7964,2.7936,2.8098,2.8246,2.8285,2.8582,2.8748,2.8986,2.9215,2.9353,2.9733,3.0656,3.1801,3.2693,3.324,3.3858,3.3858,3.3805,3.376,3.3897,3.3967,3.3934,3.3972,3.4011,3.4011,3.3979,3.4061,3.4086,3.4117,3.4099,3.4099,3.4074,3.4036,3.3998,3.3959,3.3921,3.3887,3.386,3.3847,3.3834,3.3834,3.3847,3.3855,3.3868,3.3881,3.3881,3.3908,3.3947,3.3965,2.9388,2.9368,2.9178,2.91,2.906,2.882,2.8694,2.8633,2.8682,2.8718,2.8718,2.873,2.8742,2.8773,2.8682,2.8559,2.8337,2.8259,2.8075,2.801,2.7968,2.8006,2.7926,2.7992,2.7954,2.7897,2.7883,2.7894,2.7829,2.7728,2.7698,2.7768,2.7686,2.7686,2.7754,2.8476,2.9299,3.0088,3.0988,3.1891,3.2433,3.2507,3.244,3.2406,3.244,3.244,3.2541,3.2541,3.2558,3.2574,3.254,3.2489,3.242,3.1406,3.0584,2.9811,2.894,2.8275,2.792,2.7812,2.7812,2.7792,2.7789,2.7736,2.7745,2.7771,2.7836,2.7824,2.7903,2.806,2.8237,2.8603,2.8912,2.9242,2.9612,2.9771,2.9942,3.1102,3.2304,3.2828,3.3328,3.3472,3.3472,3.3439,3.3411,3.3468,3.3584,3.3643,3.3743,3.3815,3.385,3.3863,3.3985,3.4023,3.4023,3.4042,3.4023,3.4011,3.3959,3.3934,3.3895,3.3873,3.3847,3.3834,3.3807,3.3807,3.3807,3.382,3.3834,3.3829,3.3829,3.3842,3.3847,3.3873,3.3842,2.9388,2.9365,2.9041,2.8838,2.87,2.8491,2.8389,2.8306,2.8285,2.8219,2.8224,2.8376,2.8504,2.8453,2.8389,2.8272,2.8057,2.795,2.7883,2.7742,2.7701,2.7745,2.7716,2.7701,2.776,2.7716,2.7689,2.7689,2.7659,2.763,2.7615,2.7597,2.7612,2.7679,2.7782,2.848,2.9287,3.0007,3.0795,3.1548,3.2231,3.2336,3.2406,3.2406,3.2406,3.2406,3.2406,3.2406,3.2371,3.2336,3.2284,3.2267,3.2092,3.1411,3.0853,3.0206,2.9404,2.8532,2.8246,2.8104,2.8104,2.8137,2.8541,2.8753,2.8807,2.8854,2.8605,2.8607,2.8839,2.8998,2.9048,2.9316,2.9386,2.9595,3.0157,3.0531,3.0997,3.1824,3.2444,3.2697,3.3078,3.3252,3.3237,3.3163,3.3115,3.31,3.3207,3.3207,3.3361,3.3536,3.3606,3.3675,3.3757,3.3908,3.3959,3.3959,3.3959,3.3934,3.3895,3.3868,3.386,3.3834,3.3807,3.3807,3.3807,3.3807,3.3807,3.3807,3.3807,3.382,3.382,3.382,3.3807,3.3807,3.382,2.9336,2.9254,2.889,2.8566,2.8324,2.8237,2.8112,2.802,2.7954,2.7844,2.7757,2.8152,2.8332,2.8311,2.8197,2.8102,2.7978,2.7826,2.7713,2.7686,2.7689,2.7659,2.7642,2.7657,2.7642,2.7644,2.7617,2.7585,2.7569,2.7539,2.7526,2.7496,2.7546,2.7596,2.7936,2.8545,2.9417,3.0205,3.0956,3.1533,3.1952,3.2249,3.2319,3.2354,3.2354,3.2371,3.2388,3.2354,3.2301,3.2232,3.2179,3.2161,3.1933,3.1462,3.1098,3.0508,2.9729,2.9086,2.8802,2.8782,2.8782,2.8923,2.9533,2.9759,2.9725,2.9707,2.9444,2.948,2.9724,2.9723,2.9757,2.9914,2.9931,3.0054,3.0681,3.1203,3.1794,3.2298,3.2418,3.2555,3.27,3.2919,3.2887,3.2809,3.2793,3.2777,3.2793,3.2795,3.2842,3.3045,3.3181,3.3284,3.3372,3.356,3.3797,3.3855,3.3842,3.3881,3.3842,3.3834,3.3807,3.3807,3.3807,3.3807,3.3807,3.3807,3.3807,3.3807,3.3807,3.3807,3.3807,3.3807,3.3807,3.3807,3.3807,2.9075,2.8814,2.8516,2.8232,2.7978,2.7757,2.7627,2.763,2.7615,2.7569,2.7585,2.7615,2.7745,2.7855,2.7829,2.7786,2.78,2.7686,2.7674,2.7647,2.7615,2.7569,2.7554,2.7569,2.7539,2.7542,2.7542,2.7526,2.7511,2.7496,2.7496,2.7481,2.7481,2.7809,2.8488,2.9147,2.9861,3.0593,3.1272,3.1899,3.1934,3.2143,3.2179,3.2179,3.2179,3.2214,3.2214,3.2196,3.2144,3.2126,3.2037,3.2019,3.1806,3.1432,3.1069,3.0675,2.9916,2.9574,2.9351,2.9299,2.9265,2.9333,2.9748,2.9868,3.0007,3.0335,3.0214,3.0249,3.0318,3.0056,3.009,3.0525,3.0664,3.0803,3.1236,3.1567,3.2004,3.2127,3.2197,3.2197,3.2214,3.2283,3.2248,3.2249,3.2283,3.2318,3.2419,3.2419,3.2602,3.2716,3.2781,3.289,3.2999,3.3375,3.3694,3.3675,3.3694,3.3748,3.3775,3.3707,3.3726,3.3807,3.3807,3.3807,3.3807,3.3807,3.3807,3.3807,3.3807,3.3807,3.3807,3.3807,3.3807,3.3807,3.3807]}]]